<?xml version="1.0" encoding="UTF-8" standalone="no" ?>
<gpx xmlns="http://www.topografix.com/GPX/1/1" xmlns:xsi="http://www.w3.org/2001/XMLSchema-instance" xsi:schemaLocation="http://www.topografix.com/GPX/1/1 http://www.topografix.com/GPX/1/1/gpx.xsd" version="1.1" creator="VisuGPX - https://www.visugpx.com">
  <metadata>
    <name>vtt coise avec micka</name>
    <desc><![CDATA[boueux]]></desc>
  </metadata>
  <trk>
    <name><![CDATA[vtt coise avec micka]]></name>
    <desc><![CDATA[boueux]]></desc>
    <trkseg>
      <trkpt lat="45.55435" lon="6.15847">
        <ele>269.20001220703</ele>
        <time>2012-03-20T14:07:03.000Z</time>
      </trkpt>
      <trkpt lat="45.55391" lon="6.15875">
        <ele>273.60000610352</ele>
        <time>2012-03-20T14:07:09.000Z</time>
      </trkpt>
      <trkpt lat="45.55366" lon="6.15892">
        <ele>274</ele>
        <time>2012-03-20T14:07:13.000Z</time>
      </trkpt>
      <trkpt lat="45.55352" lon="6.15909">
        <ele>274</ele>
        <time>2012-03-20T14:07:16.000Z</time>
      </trkpt>
      <trkpt lat="45.55332" lon="6.15914">
        <ele>275</ele>
        <time>2012-03-20T14:07:20.000Z</time>
      </trkpt>
      <trkpt lat="45.55313" lon="6.15901">
        <ele>275.39999389648</ele>
        <time>2012-03-20T14:07:24.000Z</time>
      </trkpt>
      <trkpt lat="45.553" lon="6.1591">
        <ele>275.39999389648</ele>
        <time>2012-03-20T14:07:27.000Z</time>
      </trkpt>
      <trkpt lat="45.55296" lon="6.15923">
        <ele>276</ele>
        <time>2012-03-20T14:07:29.000Z</time>
      </trkpt>
      <trkpt lat="45.55291" lon="6.15946">
        <ele>276.79998779297</ele>
        <time>2012-03-20T14:07:32.000Z</time>
      </trkpt>
      <trkpt lat="45.55278" lon="6.15971">
        <ele>277.39999389648</ele>
        <time>2012-03-20T14:07:36.000Z</time>
      </trkpt>
      <trkpt lat="45.5526" lon="6.15987">
        <ele>278.39999389648</ele>
        <time>2012-03-20T14:07:40.000Z</time>
      </trkpt>
      <trkpt lat="45.55237" lon="6.16001">
        <ele>279.39999389648</ele>
        <time>2012-03-20T14:07:45.000Z</time>
      </trkpt>
      <trkpt lat="45.55209" lon="6.16009">
        <ele>281.20001220703</ele>
        <time>2012-03-20T14:07:52.000Z</time>
      </trkpt>
      <trkpt lat="45.55208" lon="6.16009">
        <ele>281.20001220703</ele>
        <time>2012-03-20T14:07:53.000Z</time>
      </trkpt>
      <trkpt lat="45.55207" lon="6.16009">
        <ele>281.20001220703</ele>
        <time>2012-03-20T14:08:00.000Z</time>
      </trkpt>
      <trkpt lat="45.55207" lon="6.16011">
        <ele>284.20001220703</ele>
        <time>2012-03-20T14:08:30.000Z</time>
      </trkpt>
      <trkpt lat="45.55194" lon="6.1602">
        <ele>284.20001220703</ele>
        <time>2012-03-20T14:08:35.000Z</time>
      </trkpt>
      <trkpt lat="45.55175" lon="6.16038">
        <ele>284.60000610352</ele>
        <time>2012-03-20T14:08:40.000Z</time>
      </trkpt>
      <trkpt lat="45.5516" lon="6.1605">
        <ele>285</ele>
        <time>2012-03-20T14:08:44.000Z</time>
      </trkpt>
      <trkpt lat="45.55127" lon="6.16069">
        <ele>285.60000610352</ele>
        <time>2012-03-20T14:08:50.000Z</time>
      </trkpt>
      <trkpt lat="45.55084" lon="6.16094">
        <ele>286</ele>
        <time>2012-03-20T14:08:58.000Z</time>
      </trkpt>
      <trkpt lat="45.5505" lon="6.16113">
        <ele>287</ele>
        <time>2012-03-20T14:09:05.000Z</time>
      </trkpt>
      <trkpt lat="45.55015" lon="6.16142">
        <ele>289</ele>
        <time>2012-03-20T14:09:13.000Z</time>
      </trkpt>
      <trkpt lat="45.54989" lon="6.16173">
        <ele>290.39999389648</ele>
        <time>2012-03-20T14:09:20.000Z</time>
      </trkpt>
      <trkpt lat="45.54961" lon="6.16208">
        <ele>289.79998779297</ele>
        <time>2012-03-20T14:09:27.000Z</time>
      </trkpt>
      <trkpt lat="45.54939" lon="6.16236">
        <ele>289.39999389648</ele>
        <time>2012-03-20T14:09:32.000Z</time>
      </trkpt>
      <trkpt lat="45.54921" lon="6.16274">
        <ele>288</ele>
        <time>2012-03-20T14:09:37.000Z</time>
      </trkpt>
      <trkpt lat="45.54908" lon="6.16294">
        <ele>287</ele>
        <time>2012-03-20T14:09:40.000Z</time>
      </trkpt>
      <trkpt lat="45.54893" lon="6.16291">
        <ele>286</ele>
        <time>2012-03-20T14:09:42.000Z</time>
      </trkpt>
      <trkpt lat="45.5488" lon="6.16274">
        <ele>284.60000610352</ele>
        <time>2012-03-20T14:09:44.000Z</time>
      </trkpt>
      <trkpt lat="45.54864" lon="6.16245">
        <ele>282.60000610352</ele>
        <time>2012-03-20T14:09:47.000Z</time>
      </trkpt>
      <trkpt lat="45.54852" lon="6.16227">
        <ele>281.79998779297</ele>
        <time>2012-03-20T14:09:49.000Z</time>
      </trkpt>
      <trkpt lat="45.54822" lon="6.16185">
        <ele>279.39999389648</ele>
        <time>2012-03-20T14:09:54.000Z</time>
      </trkpt>
      <trkpt lat="45.54799" lon="6.16163">
        <ele>278.39999389648</ele>
        <time>2012-03-20T14:09:58.000Z</time>
      </trkpt>
      <trkpt lat="45.54795" lon="6.16158">
        <ele>278.39999389648</ele>
        <time>2012-03-20T14:09:59.000Z</time>
      </trkpt>
      <trkpt lat="45.5478" lon="6.16149">
        <ele>277.79998779297</ele>
        <time>2012-03-20T14:10:02.000Z</time>
      </trkpt>
      <trkpt lat="45.54771" lon="6.16147">
        <ele>277.79998779297</ele>
        <time>2012-03-20T14:10:04.000Z</time>
      </trkpt>
      <trkpt lat="45.54755" lon="6.16136">
        <ele>279.79998779297</ele>
        <time>2012-03-20T14:10:09.000Z</time>
      </trkpt>
      <trkpt lat="45.54745" lon="6.16128">
        <ele>283.20001220703</ele>
        <time>2012-03-20T14:10:14.000Z</time>
      </trkpt>
      <trkpt lat="45.54731" lon="6.16115">
        <ele>284.20001220703</ele>
        <time>2012-03-20T14:10:19.000Z</time>
      </trkpt>
      <trkpt lat="45.54713" lon="6.16106">
        <ele>282.60000610352</ele>
        <time>2012-03-20T14:10:23.000Z</time>
      </trkpt>
      <trkpt lat="45.54687" lon="6.16091">
        <ele>280.79998779297</ele>
        <time>2012-03-20T14:10:28.000Z</time>
      </trkpt>
      <trkpt lat="45.54677" lon="6.16086">
        <ele>279.79998779297</ele>
        <time>2012-03-20T14:10:30.000Z</time>
      </trkpt>
      <trkpt lat="45.54666" lon="6.1608">
        <ele>279.79998779297</ele>
        <time>2012-03-20T14:10:32.000Z</time>
      </trkpt>
      <trkpt lat="45.54631" lon="6.16058">
        <ele>280.79998779297</ele>
        <time>2012-03-20T14:10:38.000Z</time>
      </trkpt>
      <trkpt lat="45.54609" lon="6.16047">
        <ele>279.39999389648</ele>
        <time>2012-03-20T14:10:42.000Z</time>
      </trkpt>
      <trkpt lat="45.54593" lon="6.16033">
        <ele>278.79998779297</ele>
        <time>2012-03-20T14:10:46.000Z</time>
      </trkpt>
      <trkpt lat="45.54586" lon="6.16038">
        <ele>278.79998779297</ele>
        <time>2012-03-20T14:10:49.000Z</time>
      </trkpt>
      <trkpt lat="45.54573" lon="6.16057">
        <ele>279.79998779297</ele>
        <time>2012-03-20T14:10:56.000Z</time>
      </trkpt>
      <trkpt lat="45.54569" lon="6.16067">
        <ele>281.79998779297</ele>
        <time>2012-03-20T14:10:59.000Z</time>
      </trkpt>
      <trkpt lat="45.54576" lon="6.16081">
        <ele>282.60000610352</ele>
        <time>2012-03-20T14:11:04.000Z</time>
      </trkpt>
      <trkpt lat="45.54579" lon="6.16082">
        <ele>282.60000610352</ele>
        <time>2012-03-20T14:11:05.000Z</time>
      </trkpt>
      <trkpt lat="45.546" lon="6.16095">
        <ele>280.20001220703</ele>
        <time>2012-03-20T14:11:11.000Z</time>
      </trkpt>
      <trkpt lat="45.5461" lon="6.16107">
        <ele>280.20001220703</ele>
        <time>2012-03-20T14:11:15.000Z</time>
      </trkpt>
      <trkpt lat="45.54625" lon="6.16118">
        <ele>278.79998779297</ele>
        <time>2012-03-20T14:11:20.000Z</time>
      </trkpt>
      <trkpt lat="45.54639" lon="6.16127">
        <ele>279.79998779297</ele>
        <time>2012-03-20T14:11:25.000Z</time>
      </trkpt>
      <trkpt lat="45.54651" lon="6.16134">
        <ele>281.20001220703</ele>
        <time>2012-03-20T14:11:31.000Z</time>
      </trkpt>
      <trkpt lat="45.54655" lon="6.16138">
        <ele>281.79998779297</ele>
        <time>2012-03-20T14:11:33.000Z</time>
      </trkpt>
      <trkpt lat="45.54663" lon="6.16152">
        <ele>284.60000610352</ele>
        <time>2012-03-20T14:11:40.000Z</time>
      </trkpt>
      <trkpt lat="45.54663" lon="6.16159">
        <ele>286.60000610352</ele>
        <time>2012-03-20T14:11:43.000Z</time>
      </trkpt>
      <trkpt lat="45.54663" lon="6.16169">
        <ele>291.79998779297</ele>
        <time>2012-03-20T14:11:49.000Z</time>
      </trkpt>
      <trkpt lat="45.54659" lon="6.16187">
        <ele>297.60000610352</ele>
        <time>2012-03-20T14:11:56.000Z</time>
      </trkpt>
      <trkpt lat="45.54656" lon="6.16202">
        <ele>299.39999389648</ele>
        <time>2012-03-20T14:12:02.000Z</time>
      </trkpt>
      <trkpt lat="45.54645" lon="6.16213">
        <ele>302.79998779297</ele>
        <time>2012-03-20T14:12:09.000Z</time>
      </trkpt>
      <trkpt lat="45.54638" lon="6.16216">
        <ele>306.20001220703</ele>
        <time>2012-03-20T14:12:15.000Z</time>
      </trkpt>
      <trkpt lat="45.5463" lon="6.16218">
        <ele>309.60000610352</ele>
        <time>2012-03-20T14:12:20.000Z</time>
      </trkpt>
      <trkpt lat="45.54622" lon="6.16222">
        <ele>310.60000610352</ele>
        <time>2012-03-20T14:12:27.000Z</time>
      </trkpt>
      <trkpt lat="45.54609" lon="6.16224">
        <ele>313.39999389648</ele>
        <time>2012-03-20T14:12:35.000Z</time>
      </trkpt>
      <trkpt lat="45.54601" lon="6.16228">
        <ele>315.79998779297</ele>
        <time>2012-03-20T14:12:40.000Z</time>
      </trkpt>
      <trkpt lat="45.54593" lon="6.16233">
        <ele>318.79998779297</ele>
        <time>2012-03-20T14:12:45.000Z</time>
      </trkpt>
      <trkpt lat="45.54579" lon="6.16243">
        <ele>319.60000610352</ele>
        <time>2012-03-20T14:12:50.000Z</time>
      </trkpt>
      <trkpt lat="45.54558" lon="6.16251">
        <ele>325</ele>
        <time>2012-03-20T14:12:55.000Z</time>
      </trkpt>
      <trkpt lat="45.54544" lon="6.16259">
        <ele>324.39999389648</ele>
        <time>2012-03-20T14:12:59.000Z</time>
      </trkpt>
      <trkpt lat="45.54532" lon="6.16258">
        <ele>325</ele>
        <time>2012-03-20T14:13:04.000Z</time>
      </trkpt>
      <trkpt lat="45.54527" lon="6.16257">
        <ele>324</ele>
        <time>2012-03-20T14:13:06.000Z</time>
      </trkpt>
      <trkpt lat="45.54508" lon="6.1626">
        <ele>326</ele>
        <time>2012-03-20T14:13:12.000Z</time>
      </trkpt>
      <trkpt lat="45.54493" lon="6.16258">
        <ele>329.20001220703</ele>
        <time>2012-03-20T14:13:16.000Z</time>
      </trkpt>
      <trkpt lat="45.54487" lon="6.16246">
        <ele>332.60000610352</ele>
        <time>2012-03-20T14:13:20.000Z</time>
      </trkpt>
      <trkpt lat="45.54486" lon="6.16235">
        <ele>334</ele>
        <time>2012-03-20T14:13:23.000Z</time>
      </trkpt>
      <trkpt lat="45.54492" lon="6.16222">
        <ele>338</ele>
        <time>2012-03-20T14:13:28.000Z</time>
      </trkpt>
      <trkpt lat="45.54492" lon="6.162">
        <ele>338.39999389648</ele>
        <time>2012-03-20T14:13:32.000Z</time>
      </trkpt>
      <trkpt lat="45.5449" lon="6.16196">
        <ele>338</ele>
        <time>2012-03-20T14:13:33.000Z</time>
      </trkpt>
      <trkpt lat="45.54485" lon="6.16191">
        <ele>335</ele>
        <time>2012-03-20T14:13:36.000Z</time>
      </trkpt>
      <trkpt lat="45.54478" lon="6.16181">
        <ele>330.20001220703</ele>
        <time>2012-03-20T14:13:41.000Z</time>
      </trkpt>
      <trkpt lat="45.5447" lon="6.16171">
        <ele>326.39999389648</ele>
        <time>2012-03-20T14:13:48.000Z</time>
      </trkpt>
      <trkpt lat="45.54468" lon="6.16168">
        <ele>324.39999389648</ele>
        <time>2012-03-20T14:13:50.000Z</time>
      </trkpt>
      <trkpt lat="45.54463" lon="6.16163">
        <ele>323</ele>
        <time>2012-03-20T14:13:55.000Z</time>
      </trkpt>
      <trkpt lat="45.54464" lon="6.16162">
        <ele>323.60000610352</ele>
        <time>2012-03-20T14:13:56.000Z</time>
      </trkpt>
      <trkpt lat="45.54459" lon="6.16154">
        <ele>324.39999389648</ele>
        <time>2012-03-20T14:14:00.000Z</time>
      </trkpt>
      <trkpt lat="45.54456" lon="6.16148">
        <ele>326.79998779297</ele>
        <time>2012-03-20T14:14:04.000Z</time>
      </trkpt>
      <trkpt lat="45.54446" lon="6.16148">
        <ele>326.39999389648</ele>
        <time>2012-03-20T14:14:11.000Z</time>
      </trkpt>
      <trkpt lat="45.5444" lon="6.16149">
        <ele>326.79998779297</ele>
        <time>2012-03-20T14:14:16.000Z</time>
      </trkpt>
      <trkpt lat="45.54427" lon="6.16154">
        <ele>328.79998779297</ele>
        <time>2012-03-20T14:14:22.000Z</time>
      </trkpt>
      <trkpt lat="45.54425" lon="6.16154">
        <ele>327.39999389648</ele>
        <time>2012-03-20T14:14:23.000Z</time>
      </trkpt>
      <trkpt lat="45.54411" lon="6.16148">
        <ele>332.20001220703</ele>
        <time>2012-03-20T14:14:28.000Z</time>
      </trkpt>
      <trkpt lat="45.54394" lon="6.16142">
        <ele>338</ele>
        <time>2012-03-20T14:14:34.000Z</time>
      </trkpt>
      <trkpt lat="45.54379" lon="6.16138">
        <ele>339</ele>
        <time>2012-03-20T14:14:39.000Z</time>
      </trkpt>
      <trkpt lat="45.54365" lon="6.16133">
        <ele>339.39999389648</ele>
        <time>2012-03-20T14:14:44.000Z</time>
      </trkpt>
      <trkpt lat="45.54355" lon="6.16136">
        <ele>340.39999389648</ele>
        <time>2012-03-20T14:14:48.000Z</time>
      </trkpt>
      <trkpt lat="45.54344" lon="6.16144">
        <ele>339</ele>
        <time>2012-03-20T14:14:54.000Z</time>
      </trkpt>
      <trkpt lat="45.54337" lon="6.16151">
        <ele>338</ele>
        <time>2012-03-20T14:14:59.000Z</time>
      </trkpt>
      <trkpt lat="45.54324" lon="6.16164">
        <ele>343.79998779297</ele>
        <time>2012-03-20T14:15:06.000Z</time>
      </trkpt>
      <trkpt lat="45.54315" lon="6.16176">
        <ele>348</ele>
        <time>2012-03-20T14:15:13.000Z</time>
      </trkpt>
      <trkpt lat="45.54307" lon="6.1618">
        <ele>354.79998779297</ele>
        <time>2012-03-20T14:15:18.000Z</time>
      </trkpt>
      <trkpt lat="45.54303" lon="6.16187">
        <ele>354.79998779297</ele>
        <time>2012-03-20T14:15:24.000Z</time>
      </trkpt>
      <trkpt lat="45.54287" lon="6.16181">
        <ele>356.20001220703</ele>
        <time>2012-03-20T14:15:31.000Z</time>
      </trkpt>
      <trkpt lat="45.54284" lon="6.16181">
        <ele>355.20001220703</ele>
        <time>2012-03-20T14:15:35.000Z</time>
      </trkpt>
      <trkpt lat="45.54278" lon="6.16181">
        <ele>354.79998779297</ele>
        <time>2012-03-20T14:15:38.000Z</time>
      </trkpt>
      <trkpt lat="45.54269" lon="6.16185">
        <ele>353.79998779297</ele>
        <time>2012-03-20T14:15:45.000Z</time>
      </trkpt>
      <trkpt lat="45.54267" lon="6.16186">
        <ele>353.79998779297</ele>
        <time>2012-03-20T14:15:47.000Z</time>
      </trkpt>
      <trkpt lat="45.54263" lon="6.16191">
        <ele>354.20001220703</ele>
        <time>2012-03-20T14:15:51.000Z</time>
      </trkpt>
      <trkpt lat="45.5426" lon="6.16192">
        <ele>354.79998779297</ele>
        <time>2012-03-20T14:15:54.000Z</time>
      </trkpt>
      <trkpt lat="45.54253" lon="6.16194">
        <ele>358.60000610352</ele>
        <time>2012-03-20T14:16:00.000Z</time>
      </trkpt>
      <trkpt lat="45.54246" lon="6.16198">
        <ele>363</ele>
        <time>2012-03-20T14:16:06.000Z</time>
      </trkpt>
      <trkpt lat="45.54241" lon="6.16198">
        <ele>364.39999389648</ele>
        <time>2012-03-20T14:16:10.000Z</time>
      </trkpt>
      <trkpt lat="45.54235" lon="6.16195">
        <ele>365.79998779297</ele>
        <time>2012-03-20T14:16:16.000Z</time>
      </trkpt>
      <trkpt lat="45.54227" lon="6.16195">
        <ele>364.79998779297</ele>
        <time>2012-03-20T14:16:23.000Z</time>
      </trkpt>
      <trkpt lat="45.54222" lon="6.16195">
        <ele>363.79998779297</ele>
        <time>2012-03-20T14:16:29.000Z</time>
      </trkpt>
      <trkpt lat="45.54214" lon="6.16191">
        <ele>363.79998779297</ele>
        <time>2012-03-20T14:16:37.000Z</time>
      </trkpt>
      <trkpt lat="45.54207" lon="6.16186">
        <ele>363.79998779297</ele>
        <time>2012-03-20T14:16:43.000Z</time>
      </trkpt>
      <trkpt lat="45.542" lon="6.16183">
        <ele>363.79998779297</ele>
        <time>2012-03-20T14:16:49.000Z</time>
      </trkpt>
      <trkpt lat="45.54199" lon="6.16183">
        <ele>363.79998779297</ele>
        <time>2012-03-20T14:16:50.000Z</time>
      </trkpt>
      <trkpt lat="45.54192" lon="6.16187">
        <ele>366.79998779297</ele>
        <time>2012-03-20T14:16:58.000Z</time>
      </trkpt>
      <trkpt lat="45.5419" lon="6.16192">
        <ele>368.79998779297</ele>
        <time>2012-03-20T14:17:04.000Z</time>
      </trkpt>
      <trkpt lat="45.54193" lon="6.16196">
        <ele>370.20001220703</ele>
        <time>2012-03-20T14:17:10.000Z</time>
      </trkpt>
      <trkpt lat="45.54195" lon="6.16204">
        <ele>369.60000610352</ele>
        <time>2012-03-20T14:17:18.000Z</time>
      </trkpt>
      <trkpt lat="45.54198" lon="6.1621">
        <ele>369.20001220703</ele>
        <time>2012-03-20T14:17:24.000Z</time>
      </trkpt>
      <trkpt lat="45.54201" lon="6.16215">
        <ele>369.20001220703</ele>
        <time>2012-03-20T14:17:30.000Z</time>
      </trkpt>
      <trkpt lat="45.54204" lon="6.16221">
        <ele>369.60000610352</ele>
        <time>2012-03-20T14:17:37.000Z</time>
      </trkpt>
      <trkpt lat="45.54203" lon="6.1623">
        <ele>371.60000610352</ele>
        <time>2012-03-20T14:17:44.000Z</time>
      </trkpt>
      <trkpt lat="45.54201" lon="6.16234">
        <ele>371.20001220703</ele>
        <time>2012-03-20T14:17:49.000Z</time>
      </trkpt>
      <trkpt lat="45.54201" lon="6.16234">
        <ele>369.60000610352</ele>
        <time>2012-03-20T14:17:58.000Z</time>
      </trkpt>
      <trkpt lat="45.54202" lon="6.16235">
        <ele>369.60000610352</ele>
        <time>2012-03-20T14:18:08.000Z</time>
      </trkpt>
      <trkpt lat="45.542" lon="6.16234">
        <ele>370.20001220703</ele>
        <time>2012-03-20T14:18:12.000Z</time>
      </trkpt>
      <trkpt lat="45.54204" lon="6.16233">
        <ele>360.60000610352</ele>
        <time>2012-03-20T14:18:47.000Z</time>
      </trkpt>
      <trkpt lat="45.54201" lon="6.16236">
        <ele>362</ele>
        <time>2012-03-20T14:19:00.000Z</time>
      </trkpt>
      <trkpt lat="45.54193" lon="6.16236">
        <ele>363</ele>
        <time>2012-03-20T14:19:04.000Z</time>
      </trkpt>
      <trkpt lat="45.54169" lon="6.16226">
        <ele>363.79998779297</ele>
        <time>2012-03-20T14:19:11.000Z</time>
      </trkpt>
      <trkpt lat="45.5415" lon="6.16211">
        <ele>365.39999389648</ele>
        <time>2012-03-20T14:19:16.000Z</time>
      </trkpt>
      <trkpt lat="45.54124" lon="6.16182">
        <ele>366.79998779297</ele>
        <time>2012-03-20T14:19:23.000Z</time>
      </trkpt>
      <trkpt lat="45.54108" lon="6.16167">
        <ele>367.79998779297</ele>
        <time>2012-03-20T14:19:27.000Z</time>
      </trkpt>
      <trkpt lat="45.54082" lon="6.16149">
        <ele>368.79998779297</ele>
        <time>2012-03-20T14:19:33.000Z</time>
      </trkpt>
      <trkpt lat="45.54067" lon="6.16139">
        <ele>368.20001220703</ele>
        <time>2012-03-20T14:19:36.000Z</time>
      </trkpt>
      <trkpt lat="45.54046" lon="6.16112">
        <ele>367.20001220703</ele>
        <time>2012-03-20T14:19:41.000Z</time>
      </trkpt>
      <trkpt lat="45.54022" lon="6.1606">
        <ele>367.20001220703</ele>
        <time>2012-03-20T14:19:48.000Z</time>
      </trkpt>
      <trkpt lat="45.53995" lon="6.16003">
        <ele>368.79998779297</ele>
        <time>2012-03-20T14:19:56.000Z</time>
      </trkpt>
      <trkpt lat="45.53963" lon="6.15957">
        <ele>368.79998779297</ele>
        <time>2012-03-20T14:20:04.000Z</time>
      </trkpt>
      <trkpt lat="45.53944" lon="6.15959">
        <ele>367.20001220703</ele>
        <time>2012-03-20T14:20:08.000Z</time>
      </trkpt>
      <trkpt lat="45.53913" lon="6.15995">
        <ele>363.39999389648</ele>
        <time>2012-03-20T14:20:13.000Z</time>
      </trkpt>
      <trkpt lat="45.53867" lon="6.16043">
        <ele>358.60000610352</ele>
        <time>2012-03-20T14:20:19.000Z</time>
      </trkpt>
      <trkpt lat="45.5384" lon="6.16073">
        <ele>354.79998779297</ele>
        <time>2012-03-20T14:20:23.000Z</time>
      </trkpt>
      <trkpt lat="45.53836" lon="6.16077">
        <ele>354.79998779297</ele>
        <time>2012-03-20T14:20:24.000Z</time>
      </trkpt>
      <trkpt lat="45.53831" lon="6.16083">
        <ele>353.79998779297</ele>
        <time>2012-03-20T14:20:26.000Z</time>
      </trkpt>
      <trkpt lat="45.53826" lon="6.16087">
        <ele>352.39999389648</ele>
        <time>2012-03-20T14:20:30.000Z</time>
      </trkpt>
      <trkpt lat="45.53824" lon="6.16088">
        <ele>351.79998779297</ele>
        <time>2012-03-20T14:20:59.000Z</time>
      </trkpt>
      <trkpt lat="45.53825" lon="6.16087">
        <ele>351.79998779297</ele>
        <time>2012-03-20T14:21:05.000Z</time>
      </trkpt>
      <trkpt lat="45.53825" lon="6.16087">
        <ele>353.39999389648</ele>
        <time>2012-03-20T14:21:12.000Z</time>
      </trkpt>
      <trkpt lat="45.53827" lon="6.16086">
        <ele>352.39999389648</ele>
        <time>2012-03-20T14:21:35.000Z</time>
      </trkpt>
      <trkpt lat="45.53829" lon="6.16084">
        <ele>352.79998779297</ele>
        <time>2012-03-20T14:21:44.000Z</time>
      </trkpt>
      <trkpt lat="45.53829" lon="6.16082">
        <ele>353.79998779297</ele>
        <time>2012-03-20T14:21:49.000Z</time>
      </trkpt>
      <trkpt lat="45.53829" lon="6.16081">
        <ele>354.20001220703</ele>
        <time>2012-03-20T14:22:01.000Z</time>
      </trkpt>
      <trkpt lat="45.53828" lon="6.16082">
        <ele>354.79998779297</ele>
        <time>2012-03-20T14:22:07.000Z</time>
      </trkpt>
      <trkpt lat="45.53828" lon="6.16082">
        <ele>355.20001220703</ele>
        <time>2012-03-20T14:22:14.000Z</time>
      </trkpt>
      <trkpt lat="45.53832" lon="6.16078">
        <ele>354.79998779297</ele>
        <time>2012-03-20T14:22:19.000Z</time>
      </trkpt>
      <trkpt lat="45.53845" lon="6.16064">
        <ele>355.20001220703</ele>
        <time>2012-03-20T14:22:26.000Z</time>
      </trkpt>
      <trkpt lat="45.53864" lon="6.16045">
        <ele>356.60000610352</ele>
        <time>2012-03-20T14:22:33.000Z</time>
      </trkpt>
      <trkpt lat="45.53881" lon="6.16028">
        <ele>359.60000610352</ele>
        <time>2012-03-20T14:22:41.000Z</time>
      </trkpt>
      <trkpt lat="45.53902" lon="6.16006">
        <ele>361.39999389648</ele>
        <time>2012-03-20T14:22:49.000Z</time>
      </trkpt>
      <trkpt lat="45.5392" lon="6.15987">
        <ele>364.39999389648</ele>
        <time>2012-03-20T14:22:56.000Z</time>
      </trkpt>
      <trkpt lat="45.53933" lon="6.15973">
        <ele>366.20001220703</ele>
        <time>2012-03-20T14:23:02.000Z</time>
      </trkpt>
      <trkpt lat="45.5395" lon="6.15956">
        <ele>368.79998779297</ele>
        <time>2012-03-20T14:23:10.000Z</time>
      </trkpt>
      <trkpt lat="45.53952" lon="6.15954">
        <ele>369.20001220703</ele>
        <time>2012-03-20T14:23:11.000Z</time>
      </trkpt>
      <trkpt lat="45.53965" lon="6.15965">
        <ele>369.20001220703</ele>
        <time>2012-03-20T14:23:15.000Z</time>
      </trkpt>
      <trkpt lat="45.53991" lon="6.16003">
        <ele>369.20001220703</ele>
        <time>2012-03-20T14:23:22.000Z</time>
      </trkpt>
      <trkpt lat="45.54015" lon="6.16053">
        <ele>368.20001220703</ele>
        <time>2012-03-20T14:23:29.000Z</time>
      </trkpt>
      <trkpt lat="45.5404" lon="6.16111">
        <ele>368.79998779297</ele>
        <time>2012-03-20T14:23:37.000Z</time>
      </trkpt>
      <trkpt lat="45.54044" lon="6.16118">
        <ele>368.79998779297</ele>
        <time>2012-03-20T14:23:38.000Z</time>
      </trkpt>
      <trkpt lat="45.54065" lon="6.16143">
        <ele>369.60000610352</ele>
        <time>2012-03-20T14:23:43.000Z</time>
      </trkpt>
      <trkpt lat="45.541" lon="6.16167">
        <ele>369.60000610352</ele>
        <time>2012-03-20T14:23:50.000Z</time>
      </trkpt>
      <trkpt lat="45.54126" lon="6.16193">
        <ele>368.79998779297</ele>
        <time>2012-03-20T14:23:55.000Z</time>
      </trkpt>
      <trkpt lat="45.54149" lon="6.16218">
        <ele>368.20001220703</ele>
        <time>2012-03-20T14:23:59.000Z</time>
      </trkpt>
      <trkpt lat="45.54185" lon="6.16239">
        <ele>367.79998779297</ele>
        <time>2012-03-20T14:24:05.000Z</time>
      </trkpt>
      <trkpt lat="45.54191" lon="6.16241">
        <ele>367.79998779297</ele>
        <time>2012-03-20T14:24:06.000Z</time>
      </trkpt>
      <trkpt lat="45.54227" lon="6.16263">
        <ele>369.60000610352</ele>
        <time>2012-03-20T14:24:13.000Z</time>
      </trkpt>
      <trkpt lat="45.54231" lon="6.16266">
        <ele>369.60000610352</ele>
        <time>2012-03-20T14:24:14.000Z</time>
      </trkpt>
      <trkpt lat="45.54262" lon="6.16271">
        <ele>369.60000610352</ele>
        <time>2012-03-20T14:24:20.000Z</time>
      </trkpt>
      <trkpt lat="45.54273" lon="6.16272">
        <ele>370.20001220703</ele>
        <time>2012-03-20T14:24:22.000Z</time>
      </trkpt>
      <trkpt lat="45.543" lon="6.16289">
        <ele>371.60000610352</ele>
        <time>2012-03-20T14:24:28.000Z</time>
      </trkpt>
      <trkpt lat="45.54329" lon="6.16318">
        <ele>373.60000610352</ele>
        <time>2012-03-20T14:24:35.000Z</time>
      </trkpt>
      <trkpt lat="45.54357" lon="6.16357">
        <ele>375</ele>
        <time>2012-03-20T14:24:43.000Z</time>
      </trkpt>
      <trkpt lat="45.54383" lon="6.16398">
        <ele>376.39999389648</ele>
        <time>2012-03-20T14:24:51.000Z</time>
      </trkpt>
      <trkpt lat="45.54405" lon="6.16441">
        <ele>376.79998779297</ele>
        <time>2012-03-20T14:24:59.000Z</time>
      </trkpt>
      <trkpt lat="45.54418" lon="6.16467">
        <ele>377.39999389648</ele>
        <time>2012-03-20T14:25:04.000Z</time>
      </trkpt>
      <trkpt lat="45.54415" lon="6.16488">
        <ele>377.79998779297</ele>
        <time>2012-03-20T14:25:08.000Z</time>
      </trkpt>
      <trkpt lat="45.54412" lon="6.1649">
        <ele>377.79998779297</ele>
        <time>2012-03-20T14:25:09.000Z</time>
      </trkpt>
      <trkpt lat="45.54378" lon="6.16516">
        <ele>379.79998779297</ele>
        <time>2012-03-20T14:25:18.000Z</time>
      </trkpt>
      <trkpt lat="45.54346" lon="6.16541">
        <ele>382.20001220703</ele>
        <time>2012-03-20T14:25:27.000Z</time>
      </trkpt>
      <trkpt lat="45.54318" lon="6.16564">
        <ele>383.60000610352</ele>
        <time>2012-03-20T14:25:35.000Z</time>
      </trkpt>
      <trkpt lat="45.543" lon="6.16584">
        <ele>386.39999389648</ele>
        <time>2012-03-20T14:25:42.000Z</time>
      </trkpt>
      <trkpt lat="45.54289" lon="6.16611">
        <ele>388.79998779297</ele>
        <time>2012-03-20T14:25:49.000Z</time>
      </trkpt>
      <trkpt lat="45.54288" lon="6.16633">
        <ele>390.39999389648</ele>
        <time>2012-03-20T14:25:54.000Z</time>
      </trkpt>
      <trkpt lat="45.54292" lon="6.1667">
        <ele>392.20001220703</ele>
        <time>2012-03-20T14:26:01.000Z</time>
      </trkpt>
      <trkpt lat="45.54295" lon="6.16702">
        <ele>394.20001220703</ele>
        <time>2012-03-20T14:26:07.000Z</time>
      </trkpt>
      <trkpt lat="45.54308" lon="6.1675">
        <ele>394.20001220703</ele>
        <time>2012-03-20T14:26:15.000Z</time>
      </trkpt>
      <trkpt lat="45.54324" lon="6.16817">
        <ele>393.20001220703</ele>
        <time>2012-03-20T14:26:24.000Z</time>
      </trkpt>
      <trkpt lat="45.54338" lon="6.16879">
        <ele>393.20001220703</ele>
        <time>2012-03-20T14:26:32.000Z</time>
      </trkpt>
      <trkpt lat="45.54354" lon="6.16947">
        <ele>394.20001220703</ele>
        <time>2012-03-20T14:26:41.000Z</time>
      </trkpt>
      <trkpt lat="45.5437" lon="6.1701">
        <ele>394.60000610352</ele>
        <time>2012-03-20T14:26:49.000Z</time>
      </trkpt>
      <trkpt lat="45.54375" lon="6.17033">
        <ele>395.20001220703</ele>
        <time>2012-03-20T14:26:52.000Z</time>
      </trkpt>
      <trkpt lat="45.54373" lon="6.1706">
        <ele>395.60000610352</ele>
        <time>2012-03-20T14:26:56.000Z</time>
      </trkpt>
      <trkpt lat="45.54365" lon="6.17068">
        <ele>395.60000610352</ele>
        <time>2012-03-20T14:26:58.000Z</time>
      </trkpt>
      <trkpt lat="45.54325" lon="6.17096">
        <ele>393.60000610352</ele>
        <time>2012-03-20T14:27:05.000Z</time>
      </trkpt>
      <trkpt lat="45.54319" lon="6.171">
        <ele>393.60000610352</ele>
        <time>2012-03-20T14:27:06.000Z</time>
      </trkpt>
      <trkpt lat="45.54289" lon="6.171">
        <ele>391.20001220703</ele>
        <time>2012-03-20T14:27:10.000Z</time>
      </trkpt>
      <trkpt lat="45.54245" lon="6.17084">
        <ele>388.39999389648</ele>
        <time>2012-03-20T14:27:16.000Z</time>
      </trkpt>
      <trkpt lat="45.54222" lon="6.17058">
        <ele>386</ele>
        <time>2012-03-20T14:27:20.000Z</time>
      </trkpt>
      <trkpt lat="45.54218" lon="6.17049">
        <ele>385.60000610352</ele>
        <time>2012-03-20T14:27:21.000Z</time>
      </trkpt>
      <trkpt lat="45.54202" lon="6.17035">
        <ele>383.20001220703</ele>
        <time>2012-03-20T14:27:24.000Z</time>
      </trkpt>
      <trkpt lat="45.54191" lon="6.17044">
        <ele>381.20001220703</ele>
        <time>2012-03-20T14:27:26.000Z</time>
      </trkpt>
      <trkpt lat="45.54184" lon="6.17063">
        <ele>380.20001220703</ele>
        <time>2012-03-20T14:27:28.000Z</time>
      </trkpt>
      <trkpt lat="45.54171" lon="6.1711">
        <ele>377.79998779297</ele>
        <time>2012-03-20T14:27:32.000Z</time>
      </trkpt>
      <trkpt lat="45.54153" lon="6.17138">
        <ele>375.39999389648</ele>
        <time>2012-03-20T14:27:35.000Z</time>
      </trkpt>
      <trkpt lat="45.54128" lon="6.17153">
        <ele>373.60000610352</ele>
        <time>2012-03-20T14:27:38.000Z</time>
      </trkpt>
      <trkpt lat="45.54114" lon="6.17171">
        <ele>372.60000610352</ele>
        <time>2012-03-20T14:27:41.000Z</time>
      </trkpt>
      <trkpt lat="45.54118" lon="6.17198">
        <ele>372</ele>
        <time>2012-03-20T14:27:44.000Z</time>
      </trkpt>
      <trkpt lat="45.54127" lon="6.17225">
        <ele>371.20001220703</ele>
        <time>2012-03-20T14:27:47.000Z</time>
      </trkpt>
      <trkpt lat="45.54127" lon="6.17247">
        <ele>370.60000610352</ele>
        <time>2012-03-20T14:27:50.000Z</time>
      </trkpt>
      <trkpt lat="45.54117" lon="6.17241">
        <ele>370.20001220703</ele>
        <time>2012-03-20T14:27:52.000Z</time>
      </trkpt>
      <trkpt lat="45.54112" lon="6.17234">
        <ele>369.60000610352</ele>
        <time>2012-03-20T14:27:53.000Z</time>
      </trkpt>
      <trkpt lat="45.54096" lon="6.17207">
        <ele>368.79998779297</ele>
        <time>2012-03-20T14:27:57.000Z</time>
      </trkpt>
      <trkpt lat="45.54084" lon="6.17207">
        <ele>366.20001220703</ele>
        <time>2012-03-20T14:28:00.000Z</time>
      </trkpt>
      <trkpt lat="45.54079" lon="6.17232">
        <ele>363.79998779297</ele>
        <time>2012-03-20T14:28:03.000Z</time>
      </trkpt>
      <trkpt lat="45.54063" lon="6.17284">
        <ele>358.20001220703</ele>
        <time>2012-03-20T14:28:08.000Z</time>
      </trkpt>
      <trkpt lat="45.54042" lon="6.17304">
        <ele>356.20001220703</ele>
        <time>2012-03-20T14:28:11.000Z</time>
      </trkpt>
      <trkpt lat="45.54023" lon="6.17333">
        <ele>350.39999389648</ele>
        <time>2012-03-20T14:28:16.000Z</time>
      </trkpt>
      <trkpt lat="45.54022" lon="6.17351">
        <ele>347</ele>
        <time>2012-03-20T14:28:19.000Z</time>
      </trkpt>
      <trkpt lat="45.54012" lon="6.17361">
        <ele>345.20001220703</ele>
        <time>2012-03-20T14:28:23.000Z</time>
      </trkpt>
      <trkpt lat="45.54001" lon="6.17352">
        <ele>344.60000610352</ele>
        <time>2012-03-20T14:28:26.000Z</time>
      </trkpt>
      <trkpt lat="45.53979" lon="6.17311">
        <ele>345.20001220703</ele>
        <time>2012-03-20T14:28:33.000Z</time>
      </trkpt>
      <trkpt lat="45.53962" lon="6.17268">
        <ele>346.20001220703</ele>
        <time>2012-03-20T14:28:40.000Z</time>
      </trkpt>
      <trkpt lat="45.53952" lon="6.17241">
        <ele>347</ele>
        <time>2012-03-20T14:28:46.000Z</time>
      </trkpt>
      <trkpt lat="45.53938" lon="6.17205">
        <ele>348</ele>
        <time>2012-03-20T14:28:53.000Z</time>
      </trkpt>
      <trkpt lat="45.53917" lon="6.17161">
        <ele>349</ele>
        <time>2012-03-20T14:29:00.000Z</time>
      </trkpt>
      <trkpt lat="45.53898" lon="6.17124">
        <ele>349</ele>
        <time>2012-03-20T14:29:07.000Z</time>
      </trkpt>
      <trkpt lat="45.53875" lon="6.17075">
        <ele>350</ele>
        <time>2012-03-20T14:29:15.000Z</time>
      </trkpt>
      <trkpt lat="45.5385" lon="6.17025">
        <ele>350</ele>
        <time>2012-03-20T14:29:23.000Z</time>
      </trkpt>
      <trkpt lat="45.53828" lon="6.16981">
        <ele>350.39999389648</ele>
        <time>2012-03-20T14:29:30.000Z</time>
      </trkpt>
      <trkpt lat="45.53804" lon="6.16926">
        <ele>351</ele>
        <time>2012-03-20T14:29:38.000Z</time>
      </trkpt>
      <trkpt lat="45.53789" lon="6.16867">
        <ele>351.39999389648</ele>
        <time>2012-03-20T14:29:45.000Z</time>
      </trkpt>
      <trkpt lat="45.53775" lon="6.16797">
        <ele>350.39999389648</ele>
        <time>2012-03-20T14:29:53.000Z</time>
      </trkpt>
      <trkpt lat="45.53758" lon="6.16718">
        <ele>347.60000610352</ele>
        <time>2012-03-20T14:30:01.000Z</time>
      </trkpt>
      <trkpt lat="45.53746" lon="6.16657">
        <ele>346.60000610352</ele>
        <time>2012-03-20T14:30:08.000Z</time>
      </trkpt>
      <trkpt lat="45.53738" lon="6.16621">
        <ele>347</ele>
        <time>2012-03-20T14:30:13.000Z</time>
      </trkpt>
      <trkpt lat="45.53732" lon="6.16615">
        <ele>346.20001220703</ele>
        <time>2012-03-20T14:30:16.000Z</time>
      </trkpt>
      <trkpt lat="45.53732" lon="6.16625">
        <ele>344.60000610352</ele>
        <time>2012-03-20T14:30:18.000Z</time>
      </trkpt>
      <trkpt lat="45.53734" lon="6.16651">
        <ele>342.20001220703</ele>
        <time>2012-03-20T14:30:21.000Z</time>
      </trkpt>
      <trkpt lat="45.53721" lon="6.16668">
        <ele>339.79998779297</ele>
        <time>2012-03-20T14:30:24.000Z</time>
      </trkpt>
      <trkpt lat="45.53714" lon="6.16668">
        <ele>339.39999389648</ele>
        <time>2012-03-20T14:30:25.000Z</time>
      </trkpt>
      <trkpt lat="45.53678" lon="6.16677">
        <ele>339</ele>
        <time>2012-03-20T14:30:30.000Z</time>
      </trkpt>
      <trkpt lat="45.53645" lon="6.16686">
        <ele>337.39999389648</ele>
        <time>2012-03-20T14:30:35.000Z</time>
      </trkpt>
      <trkpt lat="45.53626" lon="6.16681">
        <ele>336</ele>
        <time>2012-03-20T14:30:38.000Z</time>
      </trkpt>
      <trkpt lat="45.53593" lon="6.16673">
        <ele>335</ele>
        <time>2012-03-20T14:30:43.000Z</time>
      </trkpt>
      <trkpt lat="45.53587" lon="6.16677">
        <ele>334.60000610352</ele>
        <time>2012-03-20T14:30:44.000Z</time>
      </trkpt>
      <trkpt lat="45.53575" lon="6.16686">
        <ele>333.60000610352</ele>
        <time>2012-03-20T14:30:46.000Z</time>
      </trkpt>
      <trkpt lat="45.53534" lon="6.16724">
        <ele>330.79998779297</ele>
        <time>2012-03-20T14:30:53.000Z</time>
      </trkpt>
      <trkpt lat="45.53522" lon="6.16734">
        <ele>330.20001220703</ele>
        <time>2012-03-20T14:30:55.000Z</time>
      </trkpt>
      <trkpt lat="45.53509" lon="6.16744">
        <ele>329.79998779297</ele>
        <time>2012-03-20T14:30:57.000Z</time>
      </trkpt>
      <trkpt lat="45.53481" lon="6.16745">
        <ele>329.20001220703</ele>
        <time>2012-03-20T14:31:01.000Z</time>
      </trkpt>
      <trkpt lat="45.53456" lon="6.16727">
        <ele>328.39999389648</ele>
        <time>2012-03-20T14:31:05.000Z</time>
      </trkpt>
      <trkpt lat="45.53441" lon="6.16703">
        <ele>327.79998779297</ele>
        <time>2012-03-20T14:31:08.000Z</time>
      </trkpt>
      <trkpt lat="45.53428" lon="6.16678">
        <ele>326.39999389648</ele>
        <time>2012-03-20T14:31:11.000Z</time>
      </trkpt>
      <trkpt lat="45.53398" lon="6.16622">
        <ele>327.39999389648</ele>
        <time>2012-03-20T14:31:18.000Z</time>
      </trkpt>
      <trkpt lat="45.53394" lon="6.16615">
        <ele>326.79998779297</ele>
        <time>2012-03-20T14:31:19.000Z</time>
      </trkpt>
      <trkpt lat="45.53371" lon="6.16581">
        <ele>327.79998779297</ele>
        <time>2012-03-20T14:31:24.000Z</time>
      </trkpt>
      <trkpt lat="45.5335" lon="6.16571">
        <ele>328.39999389648</ele>
        <time>2012-03-20T14:31:28.000Z</time>
      </trkpt>
      <trkpt lat="45.53339" lon="6.16569">
        <ele>328.79998779297</ele>
        <time>2012-03-20T14:31:30.000Z</time>
      </trkpt>
      <trkpt lat="45.53324" lon="6.16569">
        <ele>328.39999389648</ele>
        <time>2012-03-20T14:31:35.000Z</time>
      </trkpt>
      <trkpt lat="45.53325" lon="6.16565">
        <ele>324</ele>
        <time>2012-03-20T14:31:43.000Z</time>
      </trkpt>
      <trkpt lat="45.5332" lon="6.16568">
        <ele>328.79998779297</ele>
        <time>2012-03-20T14:31:50.000Z</time>
      </trkpt>
      <trkpt lat="45.5332" lon="6.16573">
        <ele>332.60000610352</ele>
        <time>2012-03-20T14:32:10.000Z</time>
      </trkpt>
      <trkpt lat="45.53322" lon="6.16572">
        <ele>332.20001220703</ele>
        <time>2012-03-20T14:32:11.000Z</time>
      </trkpt>
      <trkpt lat="45.53344" lon="6.16576">
        <ele>323.60000610352</ele>
        <time>2012-03-20T14:32:18.000Z</time>
      </trkpt>
      <trkpt lat="45.53363" lon="6.16579">
        <ele>319.20001220703</ele>
        <time>2012-03-20T14:32:23.000Z</time>
      </trkpt>
      <trkpt lat="45.53376" lon="6.16591">
        <ele>315.39999389648</ele>
        <time>2012-03-20T14:32:28.000Z</time>
      </trkpt>
      <trkpt lat="45.53386" lon="6.16607">
        <ele>315.79998779297</ele>
        <time>2012-03-20T14:32:32.000Z</time>
      </trkpt>
      <trkpt lat="45.53402" lon="6.16634">
        <ele>315.39999389648</ele>
        <time>2012-03-20T14:32:39.000Z</time>
      </trkpt>
      <trkpt lat="45.53418" lon="6.16663">
        <ele>316.79998779297</ele>
        <time>2012-03-20T14:32:46.000Z</time>
      </trkpt>
      <trkpt lat="45.53436" lon="6.16695">
        <ele>320.20001220703</ele>
        <time>2012-03-20T14:32:53.000Z</time>
      </trkpt>
      <trkpt lat="45.53451" lon="6.1672">
        <ele>322.60000610352</ele>
        <time>2012-03-20T14:32:59.000Z</time>
      </trkpt>
      <trkpt lat="45.53467" lon="6.16737">
        <ele>324</ele>
        <time>2012-03-20T14:33:05.000Z</time>
      </trkpt>
      <trkpt lat="45.53487" lon="6.16746">
        <ele>324</ele>
        <time>2012-03-20T14:33:11.000Z</time>
      </trkpt>
      <trkpt lat="45.53508" lon="6.16748">
        <ele>325</ele>
        <time>2012-03-20T14:33:18.000Z</time>
      </trkpt>
      <trkpt lat="45.53515" lon="6.16744">
        <ele>325</ele>
        <time>2012-03-20T14:33:22.000Z</time>
      </trkpt>
      <trkpt lat="45.53523" lon="6.16746">
        <ele>326.39999389648</ele>
        <time>2012-03-20T14:33:27.000Z</time>
      </trkpt>
      <trkpt lat="45.53525" lon="6.16748">
        <ele>326</ele>
        <time>2012-03-20T14:33:28.000Z</time>
      </trkpt>
      <trkpt lat="45.53535" lon="6.16758">
        <ele>326</ele>
        <time>2012-03-20T14:33:34.000Z</time>
      </trkpt>
      <trkpt lat="45.53541" lon="6.16759">
        <ele>327.39999389648</ele>
        <time>2012-03-20T14:33:38.000Z</time>
      </trkpt>
      <trkpt lat="45.53545" lon="6.16768">
        <ele>327.79998779297</ele>
        <time>2012-03-20T14:33:44.000Z</time>
      </trkpt>
      <trkpt lat="45.5354" lon="6.16779">
        <ele>327.39999389648</ele>
        <time>2012-03-20T14:33:48.000Z</time>
      </trkpt>
      <trkpt lat="45.53521" lon="6.16808">
        <ele>326</ele>
        <time>2012-03-20T14:33:55.000Z</time>
      </trkpt>
      <trkpt lat="45.53503" lon="6.16811">
        <ele>325</ele>
        <time>2012-03-20T14:33:58.000Z</time>
      </trkpt>
      <trkpt lat="45.53476" lon="6.16813">
        <ele>325.39999389648</ele>
        <time>2012-03-20T14:34:02.000Z</time>
      </trkpt>
      <trkpt lat="45.53452" lon="6.16812">
        <ele>325</ele>
        <time>2012-03-20T14:34:07.000Z</time>
      </trkpt>
      <trkpt lat="45.53436" lon="6.16829">
        <ele>324.39999389648</ele>
        <time>2012-03-20T14:34:14.000Z</time>
      </trkpt>
      <trkpt lat="45.53426" lon="6.16843">
        <ele>324</ele>
        <time>2012-03-20T14:34:21.000Z</time>
      </trkpt>
      <trkpt lat="45.53422" lon="6.16857">
        <ele>324.39999389648</ele>
        <time>2012-03-20T14:34:26.000Z</time>
      </trkpt>
      <trkpt lat="45.53427" lon="6.16871">
        <ele>326</ele>
        <time>2012-03-20T14:34:32.000Z</time>
      </trkpt>
      <trkpt lat="45.53432" lon="6.16887">
        <ele>327.79998779297</ele>
        <time>2012-03-20T14:34:38.000Z</time>
      </trkpt>
      <trkpt lat="45.53434" lon="6.16909">
        <ele>328.39999389648</ele>
        <time>2012-03-20T14:34:45.000Z</time>
      </trkpt>
      <trkpt lat="45.53434" lon="6.16923">
        <ele>328.39999389648</ele>
        <time>2012-03-20T14:34:50.000Z</time>
      </trkpt>
      <trkpt lat="45.53432" lon="6.16947">
        <ele>328.79998779297</ele>
        <time>2012-03-20T14:34:59.000Z</time>
      </trkpt>
      <trkpt lat="45.53432" lon="6.16962">
        <ele>329.79998779297</ele>
        <time>2012-03-20T14:35:05.000Z</time>
      </trkpt>
      <trkpt lat="45.53428" lon="6.16974">
        <ele>330.79998779297</ele>
        <time>2012-03-20T14:35:11.000Z</time>
      </trkpt>
      <trkpt lat="45.53427" lon="6.16977">
        <ele>330.79998779297</ele>
        <time>2012-03-20T14:35:13.000Z</time>
      </trkpt>
      <trkpt lat="45.5342" lon="6.16982">
        <ele>331.20001220703</ele>
        <time>2012-03-20T14:35:18.000Z</time>
      </trkpt>
      <trkpt lat="45.53411" lon="6.16987">
        <ele>333.60000610352</ele>
        <time>2012-03-20T14:35:25.000Z</time>
      </trkpt>
      <trkpt lat="45.53406" lon="6.16991">
        <ele>335</ele>
        <time>2012-03-20T14:35:30.000Z</time>
      </trkpt>
      <trkpt lat="45.53402" lon="6.16995">
        <ele>339</ele>
        <time>2012-03-20T14:35:36.000Z</time>
      </trkpt>
      <trkpt lat="45.53397" lon="6.16993">
        <ele>344.60000610352</ele>
        <time>2012-03-20T14:35:42.000Z</time>
      </trkpt>
      <trkpt lat="45.53395" lon="6.16993">
        <ele>343.79998779297</ele>
        <time>2012-03-20T14:35:48.000Z</time>
      </trkpt>
      <trkpt lat="45.53392" lon="6.16989">
        <ele>340.79998779297</ele>
        <time>2012-03-20T14:35:57.000Z</time>
      </trkpt>
      <trkpt lat="45.53388" lon="6.16986">
        <ele>343.20001220703</ele>
        <time>2012-03-20T14:36:01.000Z</time>
      </trkpt>
      <trkpt lat="45.53386" lon="6.16979">
        <ele>346.20001220703</ele>
        <time>2012-03-20T14:36:08.000Z</time>
      </trkpt>
      <trkpt lat="45.5338" lon="6.16973">
        <ele>344.60000610352</ele>
        <time>2012-03-20T14:36:14.000Z</time>
      </trkpt>
      <trkpt lat="45.53371" lon="6.16966">
        <ele>346.60000610352</ele>
        <time>2012-03-20T14:36:20.000Z</time>
      </trkpt>
      <trkpt lat="45.53366" lon="6.16956">
        <ele>350</ele>
        <time>2012-03-20T14:36:26.000Z</time>
      </trkpt>
      <trkpt lat="45.53362" lon="6.1695">
        <ele>352.39999389648</ele>
        <time>2012-03-20T14:36:30.000Z</time>
      </trkpt>
      <trkpt lat="45.53359" lon="6.16945">
        <ele>353.39999389648</ele>
        <time>2012-03-20T14:36:34.000Z</time>
      </trkpt>
      <trkpt lat="45.53354" lon="6.16936">
        <ele>354.79998779297</ele>
        <time>2012-03-20T14:36:42.000Z</time>
      </trkpt>
      <trkpt lat="45.53352" lon="6.16931">
        <ele>358.60000610352</ele>
        <time>2012-03-20T14:36:48.000Z</time>
      </trkpt>
      <trkpt lat="45.53349" lon="6.16927">
        <ele>359</ele>
        <time>2012-03-20T14:36:55.000Z</time>
      </trkpt>
      <trkpt lat="45.53342" lon="6.16917">
        <ele>363.79998779297</ele>
        <time>2012-03-20T14:37:03.000Z</time>
      </trkpt>
      <trkpt lat="45.53334" lon="6.16908">
        <ele>362.39999389648</ele>
        <time>2012-03-20T14:37:09.000Z</time>
      </trkpt>
      <trkpt lat="45.53327" lon="6.16899">
        <ele>363.79998779297</ele>
        <time>2012-03-20T14:37:14.000Z</time>
      </trkpt>
      <trkpt lat="45.53319" lon="6.16889">
        <ele>368.79998779297</ele>
        <time>2012-03-20T14:37:19.000Z</time>
      </trkpt>
      <trkpt lat="45.53311" lon="6.16881">
        <ele>369.20001220703</ele>
        <time>2012-03-20T14:37:24.000Z</time>
      </trkpt>
      <trkpt lat="45.53303" lon="6.16875">
        <ele>370.60000610352</ele>
        <time>2012-03-20T14:37:29.000Z</time>
      </trkpt>
      <trkpt lat="45.53302" lon="6.16874">
        <ele>371.20001220703</ele>
        <time>2012-03-20T14:37:30.000Z</time>
      </trkpt>
      <trkpt lat="45.53299" lon="6.16867">
        <ele>371.20001220703</ele>
        <time>2012-03-20T14:37:34.000Z</time>
      </trkpt>
      <trkpt lat="45.53291" lon="6.16856">
        <ele>370.60000610352</ele>
        <time>2012-03-20T14:37:40.000Z</time>
      </trkpt>
      <trkpt lat="45.53289" lon="6.16848">
        <ele>368.20001220703</ele>
        <time>2012-03-20T14:37:43.000Z</time>
      </trkpt>
      <trkpt lat="45.53278" lon="6.16827">
        <ele>366.20001220703</ele>
        <time>2012-03-20T14:37:49.000Z</time>
      </trkpt>
      <trkpt lat="45.5327" lon="6.1681">
        <ele>365.39999389648</ele>
        <time>2012-03-20T14:37:54.000Z</time>
      </trkpt>
      <trkpt lat="45.53258" lon="6.16787">
        <ele>364.39999389648</ele>
        <time>2012-03-20T14:38:01.000Z</time>
      </trkpt>
      <trkpt lat="45.53246" lon="6.1677">
        <ele>364.79998779297</ele>
        <time>2012-03-20T14:38:07.000Z</time>
      </trkpt>
      <trkpt lat="45.53233" lon="6.16747">
        <ele>365.39999389648</ele>
        <time>2012-03-20T14:38:14.000Z</time>
      </trkpt>
      <trkpt lat="45.53216" lon="6.16729">
        <ele>365.39999389648</ele>
        <time>2012-03-20T14:38:21.000Z</time>
      </trkpt>
      <trkpt lat="45.53199" lon="6.16713">
        <ele>365.79998779297</ele>
        <time>2012-03-20T14:38:28.000Z</time>
      </trkpt>
      <trkpt lat="45.53182" lon="6.16694">
        <ele>367.79998779297</ele>
        <time>2012-03-20T14:38:36.000Z</time>
      </trkpt>
      <trkpt lat="45.53172" lon="6.16685">
        <ele>369.20001220703</ele>
        <time>2012-03-20T14:38:41.000Z</time>
      </trkpt>
      <trkpt lat="45.53154" lon="6.16676">
        <ele>369.60000610352</ele>
        <time>2012-03-20T14:38:48.000Z</time>
      </trkpt>
      <trkpt lat="45.53143" lon="6.16674">
        <ele>369.60000610352</ele>
        <time>2012-03-20T14:38:53.000Z</time>
      </trkpt>
      <trkpt lat="45.53135" lon="6.16674">
        <ele>370.60000610352</ele>
        <time>2012-03-20T14:38:59.000Z</time>
      </trkpt>
      <trkpt lat="45.53125" lon="6.16673">
        <ele>371.60000610352</ele>
        <time>2012-03-20T14:39:07.000Z</time>
      </trkpt>
      <trkpt lat="45.53114" lon="6.16669">
        <ele>373</ele>
        <time>2012-03-20T14:39:15.000Z</time>
      </trkpt>
      <trkpt lat="45.53106" lon="6.1666">
        <ele>375</ele>
        <time>2012-03-20T14:39:22.000Z</time>
      </trkpt>
      <trkpt lat="45.53098" lon="6.1665">
        <ele>376</ele>
        <time>2012-03-20T14:39:29.000Z</time>
      </trkpt>
      <trkpt lat="45.53088" lon="6.16643">
        <ele>377.39999389648</ele>
        <time>2012-03-20T14:39:36.000Z</time>
      </trkpt>
      <trkpt lat="45.53077" lon="6.16634">
        <ele>379.20001220703</ele>
        <time>2012-03-20T14:39:45.000Z</time>
      </trkpt>
      <trkpt lat="45.53069" lon="6.1663">
        <ele>380.79998779297</ele>
        <time>2012-03-20T14:39:51.000Z</time>
      </trkpt>
      <trkpt lat="45.5306" lon="6.16624">
        <ele>381.60000610352</ele>
        <time>2012-03-20T14:39:57.000Z</time>
      </trkpt>
      <trkpt lat="45.53048" lon="6.16613">
        <ele>385</ele>
        <time>2012-03-20T14:40:05.000Z</time>
      </trkpt>
      <trkpt lat="45.53038" lon="6.16604">
        <ele>389.79998779297</ele>
        <time>2012-03-20T14:40:13.000Z</time>
      </trkpt>
      <trkpt lat="45.5303" lon="6.166">
        <ele>392.79998779297</ele>
        <time>2012-03-20T14:40:20.000Z</time>
      </trkpt>
      <trkpt lat="45.53027" lon="6.16599">
        <ele>392.20001220703</ele>
        <time>2012-03-20T14:40:27.000Z</time>
      </trkpt>
      <trkpt lat="45.53026" lon="6.16605">
        <ele>391.79998779297</ele>
        <time>2012-03-20T14:40:46.000Z</time>
      </trkpt>
      <trkpt lat="45.53035" lon="6.16623">
        <ele>387</ele>
        <time>2012-03-20T14:40:54.000Z</time>
      </trkpt>
      <trkpt lat="45.53044" lon="6.16644">
        <ele>383.60000610352</ele>
        <time>2012-03-20T14:41:01.000Z</time>
      </trkpt>
      <trkpt lat="45.53051" lon="6.16666">
        <ele>383.20001220703</ele>
        <time>2012-03-20T14:41:08.000Z</time>
      </trkpt>
      <trkpt lat="45.53054" lon="6.16681">
        <ele>383.60000610352</ele>
        <time>2012-03-20T14:41:14.000Z</time>
      </trkpt>
      <trkpt lat="45.53055" lon="6.16699">
        <ele>385.60000610352</ele>
        <time>2012-03-20T14:41:21.000Z</time>
      </trkpt>
      <trkpt lat="45.53056" lon="6.16719">
        <ele>388.39999389648</ele>
        <time>2012-03-20T14:41:29.000Z</time>
      </trkpt>
      <trkpt lat="45.53062" lon="6.16746">
        <ele>390.79998779297</ele>
        <time>2012-03-20T14:41:39.000Z</time>
      </trkpt>
      <trkpt lat="45.53068" lon="6.16771">
        <ele>392.20001220703</ele>
        <time>2012-03-20T14:41:48.000Z</time>
      </trkpt>
      <trkpt lat="45.53072" lon="6.16787">
        <ele>392.79998779297</ele>
        <time>2012-03-20T14:41:54.000Z</time>
      </trkpt>
      <trkpt lat="45.53076" lon="6.16804">
        <ele>393.60000610352</ele>
        <time>2012-03-20T14:42:00.000Z</time>
      </trkpt>
      <trkpt lat="45.53082" lon="6.16817">
        <ele>394.60000610352</ele>
        <time>2012-03-20T14:42:06.000Z</time>
      </trkpt>
      <trkpt lat="45.53088" lon="6.16836">
        <ele>397.60000610352</ele>
        <time>2012-03-20T14:42:13.000Z</time>
      </trkpt>
      <trkpt lat="45.53096" lon="6.16854">
        <ele>400.39999389648</ele>
        <time>2012-03-20T14:42:20.000Z</time>
      </trkpt>
      <trkpt lat="45.53098" lon="6.16859">
        <ele>400.39999389648</ele>
        <time>2012-03-20T14:42:22.000Z</time>
      </trkpt>
      <trkpt lat="45.53106" lon="6.16874">
        <ele>401.39999389648</ele>
        <time>2012-03-20T14:42:29.000Z</time>
      </trkpt>
      <trkpt lat="45.53114" lon="6.16891">
        <ele>401.79998779297</ele>
        <time>2012-03-20T14:42:36.000Z</time>
      </trkpt>
      <trkpt lat="45.53124" lon="6.16917">
        <ele>404.20001220703</ele>
        <time>2012-03-20T14:42:46.000Z</time>
      </trkpt>
      <trkpt lat="45.53135" lon="6.16945">
        <ele>406.20001220703</ele>
        <time>2012-03-20T14:42:56.000Z</time>
      </trkpt>
      <trkpt lat="45.53145" lon="6.16968">
        <ele>407.60000610352</ele>
        <time>2012-03-20T14:43:05.000Z</time>
      </trkpt>
      <trkpt lat="45.53152" lon="6.16988">
        <ele>409.60000610352</ele>
        <time>2012-03-20T14:43:12.000Z</time>
      </trkpt>
      <trkpt lat="45.53162" lon="6.17015">
        <ele>413</ele>
        <time>2012-03-20T14:43:21.000Z</time>
      </trkpt>
      <trkpt lat="45.53172" lon="6.1704">
        <ele>415.39999389648</ele>
        <time>2012-03-20T14:43:29.000Z</time>
      </trkpt>
      <trkpt lat="45.5318" lon="6.17062">
        <ele>416.79998779297</ele>
        <time>2012-03-20T14:43:36.000Z</time>
      </trkpt>
      <trkpt lat="45.53187" lon="6.17088">
        <ele>418.60000610352</ele>
        <time>2012-03-20T14:43:44.000Z</time>
      </trkpt>
      <trkpt lat="45.53194" lon="6.1711">
        <ele>420.60000610352</ele>
        <time>2012-03-20T14:43:51.000Z</time>
      </trkpt>
      <trkpt lat="45.53204" lon="6.17134">
        <ele>423</ele>
        <time>2012-03-20T14:43:59.000Z</time>
      </trkpt>
      <trkpt lat="45.53214" lon="6.1715">
        <ele>424</ele>
        <time>2012-03-20T14:44:05.000Z</time>
      </trkpt>
      <trkpt lat="45.53215" lon="6.17156">
        <ele>424.39999389648</ele>
        <time>2012-03-20T14:44:07.000Z</time>
      </trkpt>
      <trkpt lat="45.53206" lon="6.17163">
        <ele>426.39999389648</ele>
        <time>2012-03-20T14:44:12.000Z</time>
      </trkpt>
      <trkpt lat="45.53203" lon="6.1716">
        <ele>427.39999389648</ele>
        <time>2012-03-20T14:44:14.000Z</time>
      </trkpt>
      <trkpt lat="45.53186" lon="6.17137">
        <ele>430.20001220703</ele>
        <time>2012-03-20T14:44:23.000Z</time>
      </trkpt>
      <trkpt lat="45.53169" lon="6.17115">
        <ele>434</ele>
        <time>2012-03-20T14:44:32.000Z</time>
      </trkpt>
      <trkpt lat="45.53152" lon="6.17101">
        <ele>436.39999389648</ele>
        <time>2012-03-20T14:44:40.000Z</time>
      </trkpt>
      <trkpt lat="45.53139" lon="6.17103">
        <ele>438</ele>
        <time>2012-03-20T14:44:45.000Z</time>
      </trkpt>
      <trkpt lat="45.53127" lon="6.1712">
        <ele>439.39999389648</ele>
        <time>2012-03-20T14:44:51.000Z</time>
      </trkpt>
      <trkpt lat="45.53122" lon="6.17129">
        <ele>440.39999389648</ele>
        <time>2012-03-20T14:44:56.000Z</time>
      </trkpt>
      <trkpt lat="45.53119" lon="6.17132">
        <ele>441.20001220703</ele>
        <time>2012-03-20T14:45:02.000Z</time>
      </trkpt>
      <trkpt lat="45.53118" lon="6.17132">
        <ele>441.79998779297</ele>
        <time>2012-03-20T14:45:09.000Z</time>
      </trkpt>
      <trkpt lat="45.53113" lon="6.17131">
        <ele>438</ele>
        <time>2012-03-20T14:45:29.000Z</time>
      </trkpt>
      <trkpt lat="45.53107" lon="6.17124">
        <ele>438.39999389648</ele>
        <time>2012-03-20T14:45:34.000Z</time>
      </trkpt>
      <trkpt lat="45.53096" lon="6.17104">
        <ele>439.39999389648</ele>
        <time>2012-03-20T14:45:40.000Z</time>
      </trkpt>
      <trkpt lat="45.53087" lon="6.17089">
        <ele>439.79998779297</ele>
        <time>2012-03-20T14:45:46.000Z</time>
      </trkpt>
      <trkpt lat="45.53076" lon="6.1707">
        <ele>440.79998779297</ele>
        <time>2012-03-20T14:45:51.000Z</time>
      </trkpt>
      <trkpt lat="45.53059" lon="6.17034">
        <ele>441.20001220703</ele>
        <time>2012-03-20T14:45:58.000Z</time>
      </trkpt>
      <trkpt lat="45.53048" lon="6.17002">
        <ele>441.20001220703</ele>
        <time>2012-03-20T14:46:04.000Z</time>
      </trkpt>
      <trkpt lat="45.53043" lon="6.16978">
        <ele>442.20001220703</ele>
        <time>2012-03-20T14:46:09.000Z</time>
      </trkpt>
      <trkpt lat="45.53038" lon="6.16966">
        <ele>442.79998779297</ele>
        <time>2012-03-20T14:46:12.000Z</time>
      </trkpt>
      <trkpt lat="45.5302" lon="6.16929">
        <ele>442.79998779297</ele>
        <time>2012-03-20T14:46:20.000Z</time>
      </trkpt>
      <trkpt lat="45.53006" lon="6.16905">
        <ele>444.60000610352</ele>
        <time>2012-03-20T14:46:26.000Z</time>
      </trkpt>
      <trkpt lat="45.53002" lon="6.16896">
        <ele>445.60000610352</ele>
        <time>2012-03-20T14:46:30.000Z</time>
      </trkpt>
      <trkpt lat="45.52989" lon="6.16874">
        <ele>449.39999389648</ele>
        <time>2012-03-20T14:46:38.000Z</time>
      </trkpt>
      <trkpt lat="45.52982" lon="6.16863">
        <ele>451.79998779297</ele>
        <time>2012-03-20T14:46:43.000Z</time>
      </trkpt>
      <trkpt lat="45.52971" lon="6.1685">
        <ele>453.79998779297</ele>
        <time>2012-03-20T14:46:50.000Z</time>
      </trkpt>
      <trkpt lat="45.52963" lon="6.16842">
        <ele>457.20001220703</ele>
        <time>2012-03-20T14:46:56.000Z</time>
      </trkpt>
      <trkpt lat="45.52956" lon="6.16832">
        <ele>460</ele>
        <time>2012-03-20T14:47:02.000Z</time>
      </trkpt>
      <trkpt lat="45.52951" lon="6.16822">
        <ele>462.39999389648</ele>
        <time>2012-03-20T14:47:09.000Z</time>
      </trkpt>
      <trkpt lat="45.52945" lon="6.16813">
        <ele>466.79998779297</ele>
        <time>2012-03-20T14:47:15.000Z</time>
      </trkpt>
      <trkpt lat="45.52938" lon="6.16804">
        <ele>470.20001220703</ele>
        <time>2012-03-20T14:47:21.000Z</time>
      </trkpt>
      <trkpt lat="45.52935" lon="6.168">
        <ele>471.60000610352</ele>
        <time>2012-03-20T14:47:24.000Z</time>
      </trkpt>
      <trkpt lat="45.52931" lon="6.16796">
        <ele>473</ele>
        <time>2012-03-20T14:47:28.000Z</time>
      </trkpt>
      <trkpt lat="45.52927" lon="6.1679">
        <ele>474</ele>
        <time>2012-03-20T14:47:35.000Z</time>
      </trkpt>
      <trkpt lat="45.52921" lon="6.16784">
        <ele>477.79998779297</ele>
        <time>2012-03-20T14:47:41.000Z</time>
      </trkpt>
      <trkpt lat="45.52918" lon="6.16778">
        <ele>479.79998779297</ele>
        <time>2012-03-20T14:47:47.000Z</time>
      </trkpt>
      <trkpt lat="45.52917" lon="6.16776">
        <ele>480.20001220703</ele>
        <time>2012-03-20T14:47:48.000Z</time>
      </trkpt>
      <trkpt lat="45.52912" lon="6.16766">
        <ele>482.60000610352</ele>
        <time>2012-03-20T14:47:54.000Z</time>
      </trkpt>
      <trkpt lat="45.52906" lon="6.16756">
        <ele>484</ele>
        <time>2012-03-20T14:48:00.000Z</time>
      </trkpt>
      <trkpt lat="45.529" lon="6.16746">
        <ele>485.60000610352</ele>
        <time>2012-03-20T14:48:05.000Z</time>
      </trkpt>
      <trkpt lat="45.52893" lon="6.16731">
        <ele>485.60000610352</ele>
        <time>2012-03-20T14:48:12.000Z</time>
      </trkpt>
      <trkpt lat="45.52885" lon="6.16716">
        <ele>486</ele>
        <time>2012-03-20T14:48:18.000Z</time>
      </trkpt>
      <trkpt lat="45.52877" lon="6.16702">
        <ele>486</ele>
        <time>2012-03-20T14:48:25.000Z</time>
      </trkpt>
      <trkpt lat="45.5287" lon="6.16691">
        <ele>484</ele>
        <time>2012-03-20T14:48:30.000Z</time>
      </trkpt>
      <trkpt lat="45.52862" lon="6.16679">
        <ele>484</ele>
        <time>2012-03-20T14:48:35.000Z</time>
      </trkpt>
      <trkpt lat="45.52851" lon="6.16663">
        <ele>485</ele>
        <time>2012-03-20T14:48:40.000Z</time>
      </trkpt>
      <trkpt lat="45.52843" lon="6.16651">
        <ele>486</ele>
        <time>2012-03-20T14:48:44.000Z</time>
      </trkpt>
      <trkpt lat="45.52834" lon="6.16639">
        <ele>485</ele>
        <time>2012-03-20T14:48:49.000Z</time>
      </trkpt>
      <trkpt lat="45.52823" lon="6.1662">
        <ele>485</ele>
        <time>2012-03-20T14:48:55.000Z</time>
      </trkpt>
      <trkpt lat="45.52813" lon="6.16599">
        <ele>482.60000610352</ele>
        <time>2012-03-20T14:48:59.000Z</time>
      </trkpt>
      <trkpt lat="45.52798" lon="6.16568">
        <ele>477.79998779297</ele>
        <time>2012-03-20T14:49:03.000Z</time>
      </trkpt>
      <trkpt lat="45.5279" lon="6.16551">
        <ele>476.39999389648</ele>
        <time>2012-03-20T14:49:05.000Z</time>
      </trkpt>
      <trkpt lat="45.52766" lon="6.165">
        <ele>475</ele>
        <time>2012-03-20T14:49:11.000Z</time>
      </trkpt>
      <trkpt lat="45.52746" lon="6.16455">
        <ele>471</ele>
        <time>2012-03-20T14:49:17.000Z</time>
      </trkpt>
      <trkpt lat="45.52719" lon="6.16398">
        <ele>464.39999389648</ele>
        <time>2012-03-20T14:49:23.000Z</time>
      </trkpt>
      <trkpt lat="45.52704" lon="6.16366">
        <ele>461</ele>
        <time>2012-03-20T14:49:26.000Z</time>
      </trkpt>
      <trkpt lat="45.52688" lon="6.16338">
        <ele>458.20001220703</ele>
        <time>2012-03-20T14:49:29.000Z</time>
      </trkpt>
      <trkpt lat="45.52675" lon="6.16335">
        <ele>455.79998779297</ele>
        <time>2012-03-20T14:49:33.000Z</time>
      </trkpt>
      <trkpt lat="45.52674" lon="6.16336">
        <ele>456.20001220703</ele>
        <time>2012-03-20T14:49:34.000Z</time>
      </trkpt>
      <trkpt lat="45.52666" lon="6.16349">
        <ele>454.20001220703</ele>
        <time>2012-03-20T14:49:41.000Z</time>
      </trkpt>
      <trkpt lat="45.52654" lon="6.16362">
        <ele>453.79998779297</ele>
        <time>2012-03-20T14:49:48.000Z</time>
      </trkpt>
      <trkpt lat="45.52636" lon="6.1638">
        <ele>456.20001220703</ele>
        <time>2012-03-20T14:49:56.000Z</time>
      </trkpt>
      <trkpt lat="45.52613" lon="6.16403">
        <ele>455.20001220703</ele>
        <time>2012-03-20T14:50:03.000Z</time>
      </trkpt>
      <trkpt lat="45.52604" lon="6.16415">
        <ele>454.79998779297</ele>
        <time>2012-03-20T14:50:06.000Z</time>
      </trkpt>
      <trkpt lat="45.52604" lon="6.16442">
        <ele>455.20001220703</ele>
        <time>2012-03-20T14:50:10.000Z</time>
      </trkpt>
      <trkpt lat="45.52606" lon="6.16448">
        <ele>455.79998779297</ele>
        <time>2012-03-20T14:50:11.000Z</time>
      </trkpt>
      <trkpt lat="45.52614" lon="6.16488">
        <ele>454.79998779297</ele>
        <time>2012-03-20T14:50:17.000Z</time>
      </trkpt>
      <trkpt lat="45.52606" lon="6.16508">
        <ele>454.20001220703</ele>
        <time>2012-03-20T14:50:20.000Z</time>
      </trkpt>
      <trkpt lat="45.52597" lon="6.16519">
        <ele>453.79998779297</ele>
        <time>2012-03-20T14:50:22.000Z</time>
      </trkpt>
      <trkpt lat="45.52587" lon="6.16528">
        <ele>453.20001220703</ele>
        <time>2012-03-20T14:50:24.000Z</time>
      </trkpt>
      <trkpt lat="45.52576" lon="6.16536">
        <ele>452.79998779297</ele>
        <time>2012-03-20T14:50:26.000Z</time>
      </trkpt>
      <trkpt lat="45.52564" lon="6.16555">
        <ele>453.20001220703</ele>
        <time>2012-03-20T14:50:30.000Z</time>
      </trkpt>
      <trkpt lat="45.52567" lon="6.16566">
        <ele>453.20001220703</ele>
        <time>2012-03-20T14:50:32.000Z</time>
      </trkpt>
      <trkpt lat="45.52573" lon="6.16583">
        <ele>453.79998779297</ele>
        <time>2012-03-20T14:50:36.000Z</time>
      </trkpt>
      <trkpt lat="45.52585" lon="6.16615">
        <ele>453.79998779297</ele>
        <time>2012-03-20T14:50:43.000Z</time>
      </trkpt>
      <trkpt lat="45.52598" lon="6.16648">
        <ele>453.20001220703</ele>
        <time>2012-03-20T14:50:49.000Z</time>
      </trkpt>
      <trkpt lat="45.52596" lon="6.16663">
        <ele>453.20001220703</ele>
        <time>2012-03-20T14:50:52.000Z</time>
      </trkpt>
      <trkpt lat="45.52593" lon="6.16666">
        <ele>453.79998779297</ele>
        <time>2012-03-20T14:50:53.000Z</time>
      </trkpt>
      <trkpt lat="45.52574" lon="6.16683">
        <ele>455.79998779297</ele>
        <time>2012-03-20T14:51:02.000Z</time>
      </trkpt>
      <trkpt lat="45.52565" lon="6.16691">
        <ele>457.60000610352</ele>
        <time>2012-03-20T14:51:09.000Z</time>
      </trkpt>
      <trkpt lat="45.52557" lon="6.16695">
        <ele>459</ele>
        <time>2012-03-20T14:51:15.000Z</time>
      </trkpt>
      <trkpt lat="45.52555" lon="6.16694">
        <ele>460</ele>
        <time>2012-03-20T14:51:17.000Z</time>
      </trkpt>
      <trkpt lat="45.52553" lon="6.16693">
        <ele>460.60000610352</ele>
        <time>2012-03-20T14:51:20.000Z</time>
      </trkpt>
      <trkpt lat="45.5255" lon="6.16687">
        <ele>461.39999389648</ele>
        <time>2012-03-20T14:51:24.000Z</time>
      </trkpt>
      <trkpt lat="45.52545" lon="6.16678">
        <ele>463.39999389648</ele>
        <time>2012-03-20T14:51:31.000Z</time>
      </trkpt>
      <trkpt lat="45.52542" lon="6.16673">
        <ele>464.39999389648</ele>
        <time>2012-03-20T14:51:34.000Z</time>
      </trkpt>
      <trkpt lat="45.52539" lon="6.16665">
        <ele>468.60000610352</ele>
        <time>2012-03-20T14:51:41.000Z</time>
      </trkpt>
      <trkpt lat="45.52536" lon="6.16661">
        <ele>469.60000610352</ele>
        <time>2012-03-20T14:51:46.000Z</time>
      </trkpt>
      <trkpt lat="45.52533" lon="6.1666">
        <ele>468.60000610352</ele>
        <time>2012-03-20T14:51:51.000Z</time>
      </trkpt>
      <trkpt lat="45.52531" lon="6.16658">
        <ele>467.20001220703</ele>
        <time>2012-03-20T14:52:00.000Z</time>
      </trkpt>
      <trkpt lat="45.52525" lon="6.16653">
        <ele>467.79998779297</ele>
        <time>2012-03-20T14:52:06.000Z</time>
      </trkpt>
      <trkpt lat="45.52518" lon="6.16644">
        <ele>471</ele>
        <time>2012-03-20T14:52:13.000Z</time>
      </trkpt>
      <trkpt lat="45.52512" lon="6.16636">
        <ele>475.79998779297</ele>
        <time>2012-03-20T14:52:18.000Z</time>
      </trkpt>
      <trkpt lat="45.52506" lon="6.16627">
        <ele>479.79998779297</ele>
        <time>2012-03-20T14:52:24.000Z</time>
      </trkpt>
      <trkpt lat="45.52505" lon="6.16626">
        <ele>479.79998779297</ele>
        <time>2012-03-20T14:52:25.000Z</time>
      </trkpt>
      <trkpt lat="45.52499" lon="6.16621">
        <ele>479.79998779297</ele>
        <time>2012-03-20T14:52:32.000Z</time>
      </trkpt>
      <trkpt lat="45.52492" lon="6.16616">
        <ele>481.20001220703</ele>
        <time>2012-03-20T14:52:39.000Z</time>
      </trkpt>
      <trkpt lat="45.52489" lon="6.16609">
        <ele>482.20001220703</ele>
        <time>2012-03-20T14:52:43.000Z</time>
      </trkpt>
      <trkpt lat="45.52482" lon="6.16598">
        <ele>487</ele>
        <time>2012-03-20T14:52:50.000Z</time>
      </trkpt>
      <trkpt lat="45.52479" lon="6.16595">
        <ele>488.79998779297</ele>
        <time>2012-03-20T14:52:56.000Z</time>
      </trkpt>
      <trkpt lat="45.52478" lon="6.16596">
        <ele>495.20001220703</ele>
        <time>2012-03-20T14:53:11.000Z</time>
      </trkpt>
      <trkpt lat="45.52476" lon="6.16591">
        <ele>496.60000610352</ele>
        <time>2012-03-20T14:53:21.000Z</time>
      </trkpt>
      <trkpt lat="45.5247" lon="6.16589">
        <ele>494.20001220703</ele>
        <time>2012-03-20T14:53:30.000Z</time>
      </trkpt>
      <trkpt lat="45.52468" lon="6.16584">
        <ele>494.60000610352</ele>
        <time>2012-03-20T14:53:37.000Z</time>
      </trkpt>
      <trkpt lat="45.52464" lon="6.16581">
        <ele>494.60000610352</ele>
        <time>2012-03-20T14:53:42.000Z</time>
      </trkpt>
      <trkpt lat="45.52456" lon="6.16573">
        <ele>493.60000610352</ele>
        <time>2012-03-20T14:53:49.000Z</time>
      </trkpt>
      <trkpt lat="45.52453" lon="6.16569">
        <ele>494.60000610352</ele>
        <time>2012-03-20T14:53:52.000Z</time>
      </trkpt>
      <trkpt lat="45.52443" lon="6.16563">
        <ele>496.60000610352</ele>
        <time>2012-03-20T14:53:59.000Z</time>
      </trkpt>
      <trkpt lat="45.52439" lon="6.16559">
        <ele>496</ele>
        <time>2012-03-20T14:54:02.000Z</time>
      </trkpt>
      <trkpt lat="45.52435" lon="6.16554">
        <ele>497</ele>
        <time>2012-03-20T14:54:06.000Z</time>
      </trkpt>
      <trkpt lat="45.52428" lon="6.16547">
        <ele>500</ele>
        <time>2012-03-20T14:54:12.000Z</time>
      </trkpt>
      <trkpt lat="45.52426" lon="6.16544">
        <ele>500.79998779297</ele>
        <time>2012-03-20T14:54:14.000Z</time>
      </trkpt>
      <trkpt lat="45.5242" lon="6.16534">
        <ele>500.39999389648</ele>
        <time>2012-03-20T14:54:21.000Z</time>
      </trkpt>
      <trkpt lat="45.5242" lon="6.16532">
        <ele>500</ele>
        <time>2012-03-20T14:54:22.000Z</time>
      </trkpt>
      <trkpt lat="45.52415" lon="6.16522">
        <ele>501.39999389648</ele>
        <time>2012-03-20T14:54:28.000Z</time>
      </trkpt>
      <trkpt lat="45.52408" lon="6.16511">
        <ele>504.20001220703</ele>
        <time>2012-03-20T14:54:35.000Z</time>
      </trkpt>
      <trkpt lat="45.52407" lon="6.16508">
        <ele>506.20001220703</ele>
        <time>2012-03-20T14:54:38.000Z</time>
      </trkpt>
      <trkpt lat="45.52406" lon="6.16506">
        <ele>507.60000610352</ele>
        <time>2012-03-20T14:54:40.000Z</time>
      </trkpt>
      <trkpt lat="45.52402" lon="6.165">
        <ele>511.39999389648</ele>
        <time>2012-03-20T14:54:46.000Z</time>
      </trkpt>
      <trkpt lat="45.52399" lon="6.16495">
        <ele>513.79998779297</ele>
        <time>2012-03-20T14:54:50.000Z</time>
      </trkpt>
      <trkpt lat="45.52396" lon="6.16493">
        <ele>514.40002441406</ele>
        <time>2012-03-20T14:54:56.000Z</time>
      </trkpt>
      <trkpt lat="45.52392" lon="6.16489">
        <ele>513</ele>
        <time>2012-03-20T14:55:06.000Z</time>
      </trkpt>
      <trkpt lat="45.52386" lon="6.16486">
        <ele>511.39999389648</ele>
        <time>2012-03-20T14:55:14.000Z</time>
      </trkpt>
      <trkpt lat="45.52384" lon="6.16482">
        <ele>511.39999389648</ele>
        <time>2012-03-20T14:55:21.000Z</time>
      </trkpt>
      <trkpt lat="45.5238" lon="6.16477">
        <ele>513</ele>
        <time>2012-03-20T14:55:27.000Z</time>
      </trkpt>
      <trkpt lat="45.52378" lon="6.16475">
        <ele>513.40002441406</ele>
        <time>2012-03-20T14:55:29.000Z</time>
      </trkpt>
      <trkpt lat="45.52373" lon="6.16469">
        <ele>514.40002441406</ele>
        <time>2012-03-20T14:55:36.000Z</time>
      </trkpt>
      <trkpt lat="45.52372" lon="6.16468">
        <ele>515.40002441406</ele>
        <time>2012-03-20T14:55:38.000Z</time>
      </trkpt>
      <trkpt lat="45.52367" lon="6.16462">
        <ele>513.79998779297</ele>
        <time>2012-03-20T14:55:42.000Z</time>
      </trkpt>
      <trkpt lat="45.52364" lon="6.16451">
        <ele>513.40002441406</ele>
        <time>2012-03-20T14:55:48.000Z</time>
      </trkpt>
      <trkpt lat="45.52363" lon="6.16447">
        <ele>512.40002441406</ele>
        <time>2012-03-20T14:55:51.000Z</time>
      </trkpt>
      <trkpt lat="45.52358" lon="6.1644">
        <ele>513</ele>
        <time>2012-03-20T14:55:58.000Z</time>
      </trkpt>
      <trkpt lat="45.52354" lon="6.16435">
        <ele>514.40002441406</ele>
        <time>2012-03-20T14:56:03.000Z</time>
      </trkpt>
      <trkpt lat="45.52346" lon="6.16425">
        <ele>512.40002441406</ele>
        <time>2012-03-20T14:56:10.000Z</time>
      </trkpt>
      <trkpt lat="45.52343" lon="6.16421">
        <ele>512</ele>
        <time>2012-03-20T14:56:14.000Z</time>
      </trkpt>
      <trkpt lat="45.52336" lon="6.16412">
        <ele>513</ele>
        <time>2012-03-20T14:56:23.000Z</time>
      </trkpt>
      <trkpt lat="45.5233" lon="6.16402">
        <ele>516.79998779297</ele>
        <time>2012-03-20T14:56:31.000Z</time>
      </trkpt>
      <trkpt lat="45.52325" lon="6.16394">
        <ele>517.79998779297</ele>
        <time>2012-03-20T14:56:38.000Z</time>
      </trkpt>
      <trkpt lat="45.52318" lon="6.16389">
        <ele>519.59997558594</ele>
        <time>2012-03-20T14:56:45.000Z</time>
      </trkpt>
      <trkpt lat="45.52308" lon="6.16381">
        <ele>520.20001220703</ele>
        <time>2012-03-20T14:56:53.000Z</time>
      </trkpt>
      <trkpt lat="45.52304" lon="6.16375">
        <ele>521</ele>
        <time>2012-03-20T14:56:57.000Z</time>
      </trkpt>
      <trkpt lat="45.52301" lon="6.16373">
        <ele>523.40002441406</ele>
        <time>2012-03-20T14:57:01.000Z</time>
      </trkpt>
      <trkpt lat="45.52297" lon="6.16371">
        <ele>523</ele>
        <time>2012-03-20T14:57:10.000Z</time>
      </trkpt>
      <trkpt lat="45.52292" lon="6.16368">
        <ele>523.40002441406</ele>
        <time>2012-03-20T14:57:14.000Z</time>
      </trkpt>
      <trkpt lat="45.52284" lon="6.16363">
        <ele>523.40002441406</ele>
        <time>2012-03-20T14:57:19.000Z</time>
      </trkpt>
      <trkpt lat="45.52277" lon="6.16359">
        <ele>523</ele>
        <time>2012-03-20T14:57:23.000Z</time>
      </trkpt>
      <trkpt lat="45.52268" lon="6.1635">
        <ele>524.40002441406</ele>
        <time>2012-03-20T14:57:29.000Z</time>
      </trkpt>
      <trkpt lat="45.52265" lon="6.16346">
        <ele>525</ele>
        <time>2012-03-20T14:57:32.000Z</time>
      </trkpt>
      <trkpt lat="45.52257" lon="6.16339">
        <ele>525.79998779297</ele>
        <time>2012-03-20T14:57:37.000Z</time>
      </trkpt>
      <trkpt lat="45.52247" lon="6.16327">
        <ele>526.79998779297</ele>
        <time>2012-03-20T14:57:43.000Z</time>
      </trkpt>
      <trkpt lat="45.52238" lon="6.16319">
        <ele>529.20001220703</ele>
        <time>2012-03-20T14:57:48.000Z</time>
      </trkpt>
      <trkpt lat="45.52229" lon="6.16311">
        <ele>531.20001220703</ele>
        <time>2012-03-20T14:57:54.000Z</time>
      </trkpt>
      <trkpt lat="45.5222" lon="6.16308">
        <ele>531.20001220703</ele>
        <time>2012-03-20T14:58:00.000Z</time>
      </trkpt>
      <trkpt lat="45.52211" lon="6.1631">
        <ele>530.20001220703</ele>
        <time>2012-03-20T14:58:05.000Z</time>
      </trkpt>
      <trkpt lat="45.52194" lon="6.16318">
        <ele>527.40002441406</ele>
        <time>2012-03-20T14:58:12.000Z</time>
      </trkpt>
      <trkpt lat="45.52179" lon="6.16325">
        <ele>525.79998779297</ele>
        <time>2012-03-20T14:58:19.000Z</time>
      </trkpt>
      <trkpt lat="45.52168" lon="6.16332">
        <ele>523</ele>
        <time>2012-03-20T14:58:25.000Z</time>
      </trkpt>
      <trkpt lat="45.52158" lon="6.16336">
        <ele>521.59997558594</ele>
        <time>2012-03-20T14:58:32.000Z</time>
      </trkpt>
      <trkpt lat="45.52148" lon="6.16348">
        <ele>520.59997558594</ele>
        <time>2012-03-20T14:58:41.000Z</time>
      </trkpt>
      <trkpt lat="45.52144" lon="6.16344">
        <ele>521.59997558594</ele>
        <time>2012-03-20T14:58:45.000Z</time>
      </trkpt>
      <trkpt lat="45.5214" lon="6.1633">
        <ele>523.40002441406</ele>
        <time>2012-03-20T14:58:52.000Z</time>
      </trkpt>
      <trkpt lat="45.52137" lon="6.16325">
        <ele>525</ele>
        <time>2012-03-20T14:58:56.000Z</time>
      </trkpt>
      <trkpt lat="45.52133" lon="6.16315">
        <ele>528.79998779297</ele>
        <time>2012-03-20T14:59:03.000Z</time>
      </trkpt>
      <trkpt lat="45.52123" lon="6.16297">
        <ele>536.40002441406</ele>
        <time>2012-03-20T14:59:13.000Z</time>
      </trkpt>
      <trkpt lat="45.52117" lon="6.16288">
        <ele>539.79998779297</ele>
        <time>2012-03-20T14:59:20.000Z</time>
      </trkpt>
      <trkpt lat="45.5211" lon="6.16282">
        <ele>545.20001220703</ele>
        <time>2012-03-20T14:59:26.000Z</time>
      </trkpt>
      <trkpt lat="45.52104" lon="6.16274">
        <ele>548.40002441406</ele>
        <time>2012-03-20T14:59:33.000Z</time>
      </trkpt>
      <trkpt lat="45.52098" lon="6.16267">
        <ele>553.20001220703</ele>
        <time>2012-03-20T14:59:39.000Z</time>
      </trkpt>
      <trkpt lat="45.52093" lon="6.1626">
        <ele>555.59997558594</ele>
        <time>2012-03-20T14:59:44.000Z</time>
      </trkpt>
      <trkpt lat="45.52085" lon="6.16248">
        <ele>562.79998779297</ele>
        <time>2012-03-20T14:59:52.000Z</time>
      </trkpt>
      <trkpt lat="45.52078" lon="6.1624">
        <ele>565.79998779297</ele>
        <time>2012-03-20T14:59:58.000Z</time>
      </trkpt>
      <trkpt lat="45.52068" lon="6.16231">
        <ele>563.79998779297</ele>
        <time>2012-03-20T15:00:05.000Z</time>
      </trkpt>
      <trkpt lat="45.52062" lon="6.16224">
        <ele>562.40002441406</ele>
        <time>2012-03-20T15:00:09.000Z</time>
      </trkpt>
      <trkpt lat="45.52055" lon="6.16219">
        <ele>561</ele>
        <time>2012-03-20T15:00:15.000Z</time>
      </trkpt>
      <trkpt lat="45.5205" lon="6.16212">
        <ele>560</ele>
        <time>2012-03-20T15:00:19.000Z</time>
      </trkpt>
      <trkpt lat="45.52043" lon="6.162">
        <ele>556.20001220703</ele>
        <time>2012-03-20T15:00:25.000Z</time>
      </trkpt>
      <trkpt lat="45.5204" lon="6.16194">
        <ele>554.79998779297</ele>
        <time>2012-03-20T15:00:28.000Z</time>
      </trkpt>
      <trkpt lat="45.52031" lon="6.16177">
        <ele>555.20001220703</ele>
        <time>2012-03-20T15:00:34.000Z</time>
      </trkpt>
      <trkpt lat="45.52024" lon="6.16159">
        <ele>555.59997558594</ele>
        <time>2012-03-20T15:00:39.000Z</time>
      </trkpt>
      <trkpt lat="45.52022" lon="6.16141">
        <ele>553.20001220703</ele>
        <time>2012-03-20T15:00:44.000Z</time>
      </trkpt>
      <trkpt lat="45.5202" lon="6.1613">
        <ele>550.79998779297</ele>
        <time>2012-03-20T15:00:48.000Z</time>
      </trkpt>
      <trkpt lat="45.52019" lon="6.16124">
        <ele>550.40002441406</ele>
        <time>2012-03-20T15:00:52.000Z</time>
      </trkpt>
      <trkpt lat="45.52019" lon="6.16123">
        <ele>550</ele>
        <time>2012-03-20T15:00:54.000Z</time>
      </trkpt>
      <trkpt lat="45.52016" lon="6.16118">
        <ele>551.79998779297</ele>
        <time>2012-03-20T15:01:01.000Z</time>
      </trkpt>
      <trkpt lat="45.52013" lon="6.16116">
        <ele>553.20001220703</ele>
        <time>2012-03-20T15:01:08.000Z</time>
      </trkpt>
      <trkpt lat="45.52012" lon="6.16115">
        <ele>553.20001220703</ele>
        <time>2012-03-20T15:01:09.000Z</time>
      </trkpt>
      <trkpt lat="45.52005" lon="6.16108">
        <ele>550.40002441406</ele>
        <time>2012-03-20T15:01:16.000Z</time>
      </trkpt>
      <trkpt lat="45.52" lon="6.161">
        <ele>550.79998779297</ele>
        <time>2012-03-20T15:01:21.000Z</time>
      </trkpt>
      <trkpt lat="45.51994" lon="6.16092">
        <ele>551.79998779297</ele>
        <time>2012-03-20T15:01:25.000Z</time>
      </trkpt>
      <trkpt lat="45.51983" lon="6.16083">
        <ele>552.40002441406</ele>
        <time>2012-03-20T15:01:31.000Z</time>
      </trkpt>
      <trkpt lat="45.51975" lon="6.16073">
        <ele>555.59997558594</ele>
        <time>2012-03-20T15:01:36.000Z</time>
      </trkpt>
      <trkpt lat="45.51971" lon="6.16068">
        <ele>557.20001220703</ele>
        <time>2012-03-20T15:01:39.000Z</time>
      </trkpt>
      <trkpt lat="45.51965" lon="6.16059">
        <ele>556.59997558594</ele>
        <time>2012-03-20T15:01:45.000Z</time>
      </trkpt>
      <trkpt lat="45.51964" lon="6.16058">
        <ele>556.59997558594</ele>
        <time>2012-03-20T15:01:47.000Z</time>
      </trkpt>
      <trkpt lat="45.51961" lon="6.16052">
        <ele>557.59997558594</ele>
        <time>2012-03-20T15:01:53.000Z</time>
      </trkpt>
      <trkpt lat="45.51958" lon="6.16046">
        <ele>564.40002441406</ele>
        <time>2012-03-20T15:02:03.000Z</time>
      </trkpt>
      <trkpt lat="45.51957" lon="6.16042">
        <ele>565.20001220703</ele>
        <time>2012-03-20T15:02:08.000Z</time>
      </trkpt>
      <trkpt lat="45.51954" lon="6.16042">
        <ele>563.79998779297</ele>
        <time>2012-03-20T15:02:16.000Z</time>
      </trkpt>
      <trkpt lat="45.51949" lon="6.1604">
        <ele>562.79998779297</ele>
        <time>2012-03-20T15:02:21.000Z</time>
      </trkpt>
      <trkpt lat="45.51948" lon="6.16036">
        <ele>562.40002441406</ele>
        <time>2012-03-20T15:02:27.000Z</time>
      </trkpt>
      <trkpt lat="45.51947" lon="6.16032">
        <ele>562.79998779297</ele>
        <time>2012-03-20T15:02:31.000Z</time>
      </trkpt>
      <trkpt lat="45.51942" lon="6.16026">
        <ele>562.79998779297</ele>
        <time>2012-03-20T15:02:36.000Z</time>
      </trkpt>
      <trkpt lat="45.51937" lon="6.16021">
        <ele>562.79998779297</ele>
        <time>2012-03-20T15:02:41.000Z</time>
      </trkpt>
      <trkpt lat="45.51927" lon="6.1601">
        <ele>560.40002441406</ele>
        <time>2012-03-20T15:02:48.000Z</time>
      </trkpt>
      <trkpt lat="45.51921" lon="6.15995">
        <ele>559.59997558594</ele>
        <time>2012-03-20T15:02:54.000Z</time>
      </trkpt>
      <trkpt lat="45.51916" lon="6.15982">
        <ele>560.40002441406</ele>
        <time>2012-03-20T15:03:00.000Z</time>
      </trkpt>
      <trkpt lat="45.51906" lon="6.15965">
        <ele>565.79998779297</ele>
        <time>2012-03-20T15:03:07.000Z</time>
      </trkpt>
      <trkpt lat="45.51901" lon="6.15958">
        <ele>566.79998779297</ele>
        <time>2012-03-20T15:03:11.000Z</time>
      </trkpt>
      <trkpt lat="45.51897" lon="6.15951">
        <ele>569.59997558594</ele>
        <time>2012-03-20T15:03:17.000Z</time>
      </trkpt>
      <trkpt lat="45.51896" lon="6.1595">
        <ele>569.59997558594</ele>
        <time>2012-03-20T15:03:18.000Z</time>
      </trkpt>
      <trkpt lat="45.51892" lon="6.15944">
        <ele>571</ele>
        <time>2012-03-20T15:03:23.000Z</time>
      </trkpt>
      <trkpt lat="45.51887" lon="6.15937">
        <ele>568.59997558594</ele>
        <time>2012-03-20T15:03:30.000Z</time>
      </trkpt>
      <trkpt lat="45.51883" lon="6.15932">
        <ele>565.79998779297</ele>
        <time>2012-03-20T15:03:36.000Z</time>
      </trkpt>
      <trkpt lat="45.51879" lon="6.15926">
        <ele>566.20001220703</ele>
        <time>2012-03-20T15:03:42.000Z</time>
      </trkpt>
      <trkpt lat="45.51875" lon="6.15917">
        <ele>567.20001220703</ele>
        <time>2012-03-20T15:03:48.000Z</time>
      </trkpt>
      <trkpt lat="45.5187" lon="6.15911">
        <ele>570</ele>
        <time>2012-03-20T15:03:54.000Z</time>
      </trkpt>
      <trkpt lat="45.51866" lon="6.15905">
        <ele>572.59997558594</ele>
        <time>2012-03-20T15:04:00.000Z</time>
      </trkpt>
      <trkpt lat="45.51862" lon="6.159">
        <ele>575.40002441406</ele>
        <time>2012-03-20T15:04:07.000Z</time>
      </trkpt>
      <trkpt lat="45.51859" lon="6.15895">
        <ele>577.79998779297</ele>
        <time>2012-03-20T15:04:14.000Z</time>
      </trkpt>
      <trkpt lat="45.51855" lon="6.15891">
        <ele>575.79998779297</ele>
        <time>2012-03-20T15:04:21.000Z</time>
      </trkpt>
      <trkpt lat="45.51852" lon="6.15888">
        <ele>578.79998779297</ele>
        <time>2012-03-20T15:04:29.000Z</time>
      </trkpt>
      <trkpt lat="45.51847" lon="6.15883">
        <ele>581.59997558594</ele>
        <time>2012-03-20T15:04:35.000Z</time>
      </trkpt>
      <trkpt lat="45.51839" lon="6.15874">
        <ele>587.79998779297</ele>
        <time>2012-03-20T15:04:42.000Z</time>
      </trkpt>
      <trkpt lat="45.51835" lon="6.15868">
        <ele>591.20001220703</ele>
        <time>2012-03-20T15:04:49.000Z</time>
      </trkpt>
      <trkpt lat="45.51834" lon="6.15868">
        <ele>597.40002441406</ele>
        <time>2012-03-20T15:04:55.000Z</time>
      </trkpt>
      <trkpt lat="45.51832" lon="6.15869">
        <ele>596</ele>
        <time>2012-03-20T15:05:00.000Z</time>
      </trkpt>
      <trkpt lat="45.51828" lon="6.15866">
        <ele>596.59997558594</ele>
        <time>2012-03-20T15:05:08.000Z</time>
      </trkpt>
      <trkpt lat="45.51822" lon="6.1586">
        <ele>595</ele>
        <time>2012-03-20T15:05:16.000Z</time>
      </trkpt>
      <trkpt lat="45.51816" lon="6.15856">
        <ele>596.59997558594</ele>
        <time>2012-03-20T15:05:24.000Z</time>
      </trkpt>
      <trkpt lat="45.51811" lon="6.15849">
        <ele>595.59997558594</ele>
        <time>2012-03-20T15:05:30.000Z</time>
      </trkpt>
      <trkpt lat="45.51805" lon="6.1584">
        <ele>594.59997558594</ele>
        <time>2012-03-20T15:05:38.000Z</time>
      </trkpt>
      <trkpt lat="45.51802" lon="6.15836">
        <ele>593.20001220703</ele>
        <time>2012-03-20T15:05:42.000Z</time>
      </trkpt>
      <trkpt lat="45.51798" lon="6.15831">
        <ele>594.59997558594</ele>
        <time>2012-03-20T15:05:49.000Z</time>
      </trkpt>
      <trkpt lat="45.51794" lon="6.15825">
        <ele>595</ele>
        <time>2012-03-20T15:05:55.000Z</time>
      </trkpt>
      <trkpt lat="45.51793" lon="6.15822">
        <ele>595</ele>
        <time>2012-03-20T15:05:57.000Z</time>
      </trkpt>
      <trkpt lat="45.51789" lon="6.15813">
        <ele>599</ele>
        <time>2012-03-20T15:06:02.000Z</time>
      </trkpt>
      <trkpt lat="45.51783" lon="6.15801">
        <ele>598</ele>
        <time>2012-03-20T15:06:09.000Z</time>
      </trkpt>
      <trkpt lat="45.51777" lon="6.15793">
        <ele>597</ele>
        <time>2012-03-20T15:06:16.000Z</time>
      </trkpt>
      <trkpt lat="45.5177" lon="6.15791">
        <ele>595</ele>
        <time>2012-03-20T15:06:23.000Z</time>
      </trkpt>
      <trkpt lat="45.51769" lon="6.15792">
        <ele>595</ele>
        <time>2012-03-20T15:06:24.000Z</time>
      </trkpt>
      <trkpt lat="45.51768" lon="6.15798">
        <ele>593.20001220703</ele>
        <time>2012-03-20T15:06:28.000Z</time>
      </trkpt>
      <trkpt lat="45.51766" lon="6.15803">
        <ele>590.20001220703</ele>
        <time>2012-03-20T15:06:35.000Z</time>
      </trkpt>
      <trkpt lat="45.51766" lon="6.15805">
        <ele>588.40002441406</ele>
        <time>2012-03-20T15:06:40.000Z</time>
      </trkpt>
      <trkpt lat="45.51759" lon="6.15808">
        <ele>593.20001220703</ele>
        <time>2012-03-20T15:07:01.000Z</time>
      </trkpt>
      <trkpt lat="45.51761" lon="6.15809">
        <ele>589.79998779297</ele>
        <time>2012-03-20T15:07:34.000Z</time>
      </trkpt>
      <trkpt lat="45.51762" lon="6.15815">
        <ele>588.40002441406</ele>
        <time>2012-03-20T15:07:40.000Z</time>
      </trkpt>
      <trkpt lat="45.51763" lon="6.15822">
        <ele>588.40002441406</ele>
        <time>2012-03-20T15:07:45.000Z</time>
      </trkpt>
      <trkpt lat="45.51764" lon="6.15834">
        <ele>588.79998779297</ele>
        <time>2012-03-20T15:07:52.000Z</time>
      </trkpt>
      <trkpt lat="45.51765" lon="6.15844">
        <ele>587.79998779297</ele>
        <time>2012-03-20T15:07:57.000Z</time>
      </trkpt>
      <trkpt lat="45.51767" lon="6.15862">
        <ele>588.79998779297</ele>
        <time>2012-03-20T15:08:07.000Z</time>
      </trkpt>
      <trkpt lat="45.51768" lon="6.15875">
        <ele>589.40002441406</ele>
        <time>2012-03-20T15:08:15.000Z</time>
      </trkpt>
      <trkpt lat="45.51768" lon="6.1588">
        <ele>593.20001220703</ele>
        <time>2012-03-20T15:08:21.000Z</time>
      </trkpt>
      <trkpt lat="45.51771" lon="6.15881">
        <ele>598</ele>
        <time>2012-03-20T15:08:29.000Z</time>
      </trkpt>
      <trkpt lat="45.51773" lon="6.15885">
        <ele>595.59997558594</ele>
        <time>2012-03-20T15:08:39.000Z</time>
      </trkpt>
      <trkpt lat="45.51773" lon="6.15886">
        <ele>596.59997558594</ele>
        <time>2012-03-20T15:08:48.000Z</time>
      </trkpt>
      <trkpt lat="45.51772" lon="6.15888">
        <ele>601.40002441406</ele>
        <time>2012-03-20T15:08:56.000Z</time>
      </trkpt>
      <trkpt lat="45.51772" lon="6.1589">
        <ele>607.20001220703</ele>
        <time>2012-03-20T15:09:03.000Z</time>
      </trkpt>
      <trkpt lat="45.51772" lon="6.15894">
        <ele>607.20001220703</ele>
        <time>2012-03-20T15:09:08.000Z</time>
      </trkpt>
      <trkpt lat="45.51773" lon="6.15899">
        <ele>605.59997558594</ele>
        <time>2012-03-20T15:09:14.000Z</time>
      </trkpt>
      <trkpt lat="45.51774" lon="6.15907">
        <ele>603.20001220703</ele>
        <time>2012-03-20T15:09:19.000Z</time>
      </trkpt>
      <trkpt lat="45.51775" lon="6.15919">
        <ele>600.79998779297</ele>
        <time>2012-03-20T15:09:25.000Z</time>
      </trkpt>
      <trkpt lat="45.51779" lon="6.15939">
        <ele>595</ele>
        <time>2012-03-20T15:09:31.000Z</time>
      </trkpt>
      <trkpt lat="45.5179" lon="6.15956">
        <ele>586.40002441406</ele>
        <time>2012-03-20T15:09:35.000Z</time>
      </trkpt>
      <trkpt lat="45.51802" lon="6.15976">
        <ele>574</ele>
        <time>2012-03-20T15:09:40.000Z</time>
      </trkpt>
      <trkpt lat="45.51802" lon="6.15979">
        <ele>572</ele>
        <time>2012-03-20T15:09:49.000Z</time>
      </trkpt>
      <trkpt lat="45.518" lon="6.15976">
        <ele>578.20001220703</ele>
        <time>2012-03-20T15:09:54.000Z</time>
      </trkpt>
      <trkpt lat="45.51797" lon="6.15971">
        <ele>581.59997558594</ele>
        <time>2012-03-20T15:09:58.000Z</time>
      </trkpt>
      <trkpt lat="45.51795" lon="6.15967">
        <ele>582.59997558594</ele>
        <time>2012-03-20T15:10:00.000Z</time>
      </trkpt>
      <trkpt lat="45.51791" lon="6.15966">
        <ele>586.40002441406</ele>
        <time>2012-03-20T15:10:04.000Z</time>
      </trkpt>
      <trkpt lat="45.5179" lon="6.15981">
        <ele>594.20001220703</ele>
        <time>2012-03-20T15:10:11.000Z</time>
      </trkpt>
      <trkpt lat="45.5179" lon="6.15983">
        <ele>595.59997558594</ele>
        <time>2012-03-20T15:10:12.000Z</time>
      </trkpt>
      <trkpt lat="45.51794" lon="6.15983">
        <ele>596</ele>
        <time>2012-03-20T15:10:17.000Z</time>
      </trkpt>
      <trkpt lat="45.51796" lon="6.1598">
        <ele>594.59997558594</ele>
        <time>2012-03-20T15:10:22.000Z</time>
      </trkpt>
      <trkpt lat="45.51801" lon="6.1598">
        <ele>592.59997558594</ele>
        <time>2012-03-20T15:10:27.000Z</time>
      </trkpt>
      <trkpt lat="45.51803" lon="6.15984">
        <ele>589.79998779297</ele>
        <time>2012-03-20T15:10:29.000Z</time>
      </trkpt>
      <trkpt lat="45.51814" lon="6.16008">
        <ele>580.20001220703</ele>
        <time>2012-03-20T15:10:35.000Z</time>
      </trkpt>
      <trkpt lat="45.51815" lon="6.16032">
        <ele>578.79998779297</ele>
        <time>2012-03-20T15:10:39.000Z</time>
      </trkpt>
      <trkpt lat="45.51812" lon="6.16047">
        <ele>577.79998779297</ele>
        <time>2012-03-20T15:10:41.000Z</time>
      </trkpt>
      <trkpt lat="45.51808" lon="6.16064">
        <ele>575.79998779297</ele>
        <time>2012-03-20T15:10:43.000Z</time>
      </trkpt>
      <trkpt lat="45.518" lon="6.16081">
        <ele>579.79998779297</ele>
        <time>2012-03-20T15:10:47.000Z</time>
      </trkpt>
      <trkpt lat="45.51796" lon="6.16085">
        <ele>583</ele>
        <time>2012-03-20T15:10:49.000Z</time>
      </trkpt>
      <trkpt lat="45.51793" lon="6.16088">
        <ele>584.59997558594</ele>
        <time>2012-03-20T15:10:51.000Z</time>
      </trkpt>
      <trkpt lat="45.51789" lon="6.16083">
        <ele>584.59997558594</ele>
        <time>2012-03-20T15:10:56.000Z</time>
      </trkpt>
      <trkpt lat="45.51785" lon="6.16076">
        <ele>586.40002441406</ele>
        <time>2012-03-20T15:10:59.000Z</time>
      </trkpt>
      <trkpt lat="45.51782" lon="6.16067">
        <ele>587.79998779297</ele>
        <time>2012-03-20T15:11:04.000Z</time>
      </trkpt>
      <trkpt lat="45.5178" lon="6.16065">
        <ele>587.40002441406</ele>
        <time>2012-03-20T15:11:05.000Z</time>
      </trkpt>
      <trkpt lat="45.5177" lon="6.16053">
        <ele>590.20001220703</ele>
        <time>2012-03-20T15:11:12.000Z</time>
      </trkpt>
      <trkpt lat="45.51764" lon="6.16049">
        <ele>594.20001220703</ele>
        <time>2012-03-20T15:11:16.000Z</time>
      </trkpt>
      <trkpt lat="45.51762" lon="6.16047">
        <ele>595.59997558594</ele>
        <time>2012-03-20T15:11:18.000Z</time>
      </trkpt>
      <trkpt lat="45.51757" lon="6.16043">
        <ele>595.59997558594</ele>
        <time>2012-03-20T15:11:23.000Z</time>
      </trkpt>
      <trkpt lat="45.51751" lon="6.16035">
        <ele>594.59997558594</ele>
        <time>2012-03-20T15:11:29.000Z</time>
      </trkpt>
      <trkpt lat="45.51746" lon="6.1603">
        <ele>597</ele>
        <time>2012-03-20T15:11:34.000Z</time>
      </trkpt>
      <trkpt lat="45.51745" lon="6.16027">
        <ele>597</ele>
        <time>2012-03-20T15:11:39.000Z</time>
      </trkpt>
      <trkpt lat="45.51743" lon="6.16023">
        <ele>600</ele>
        <time>2012-03-20T15:11:48.000Z</time>
      </trkpt>
      <trkpt lat="45.51738" lon="6.16019">
        <ele>602.79998779297</ele>
        <time>2012-03-20T15:11:54.000Z</time>
      </trkpt>
      <trkpt lat="45.51731" lon="6.16011">
        <ele>607.59997558594</ele>
        <time>2012-03-20T15:12:01.000Z</time>
      </trkpt>
      <trkpt lat="45.51726" lon="6.16004">
        <ele>610.40002441406</ele>
        <time>2012-03-20T15:12:07.000Z</time>
      </trkpt>
      <trkpt lat="45.51718" lon="6.15994">
        <ele>617.59997558594</ele>
        <time>2012-03-20T15:12:14.000Z</time>
      </trkpt>
      <trkpt lat="45.5171" lon="6.15987">
        <ele>623</ele>
        <time>2012-03-20T15:12:20.000Z</time>
      </trkpt>
      <trkpt lat="45.51701" lon="6.15976">
        <ele>627.79998779297</ele>
        <time>2012-03-20T15:12:27.000Z</time>
      </trkpt>
      <trkpt lat="45.51694" lon="6.15967">
        <ele>629.79998779297</ele>
        <time>2012-03-20T15:12:33.000Z</time>
      </trkpt>
      <trkpt lat="45.51686" lon="6.15957">
        <ele>633.59997558594</ele>
        <time>2012-03-20T15:12:40.000Z</time>
      </trkpt>
      <trkpt lat="45.51678" lon="6.15948">
        <ele>637.79998779297</ele>
        <time>2012-03-20T15:12:46.000Z</time>
      </trkpt>
      <trkpt lat="45.5167" lon="6.15934">
        <ele>639.79998779297</ele>
        <time>2012-03-20T15:12:52.000Z</time>
      </trkpt>
      <trkpt lat="45.51667" lon="6.1593">
        <ele>639.79998779297</ele>
        <time>2012-03-20T15:12:54.000Z</time>
      </trkpt>
      <trkpt lat="45.51662" lon="6.15922">
        <ele>639.79998779297</ele>
        <time>2012-03-20T15:12:58.000Z</time>
      </trkpt>
      <trkpt lat="45.51651" lon="6.15908">
        <ele>638.40002441406</ele>
        <time>2012-03-20T15:13:05.000Z</time>
      </trkpt>
      <trkpt lat="45.51642" lon="6.15896">
        <ele>638.79998779297</ele>
        <time>2012-03-20T15:13:11.000Z</time>
      </trkpt>
      <trkpt lat="45.51636" lon="6.15888">
        <ele>638.79998779297</ele>
        <time>2012-03-20T15:13:16.000Z</time>
      </trkpt>
      <trkpt lat="45.51633" lon="6.15877">
        <ele>637</ele>
        <time>2012-03-20T15:13:21.000Z</time>
      </trkpt>
      <trkpt lat="45.51634" lon="6.15863">
        <ele>635.40002441406</ele>
        <time>2012-03-20T15:13:28.000Z</time>
      </trkpt>
      <trkpt lat="45.51634" lon="6.15861">
        <ele>635</ele>
        <time>2012-03-20T15:13:29.000Z</time>
      </trkpt>
      <trkpt lat="45.51635" lon="6.15847">
        <ele>630.59997558594</ele>
        <time>2012-03-20T15:13:35.000Z</time>
      </trkpt>
      <trkpt lat="45.51638" lon="6.15835">
        <ele>629.20001220703</ele>
        <time>2012-03-20T15:13:41.000Z</time>
      </trkpt>
      <trkpt lat="45.51642" lon="6.15823">
        <ele>628.79998779297</ele>
        <time>2012-03-20T15:13:48.000Z</time>
      </trkpt>
      <trkpt lat="45.51643" lon="6.15816">
        <ele>628.79998779297</ele>
        <time>2012-03-20T15:13:53.000Z</time>
      </trkpt>
      <trkpt lat="45.51643" lon="6.15806">
        <ele>625.40002441406</ele>
        <time>2012-03-20T15:13:58.000Z</time>
      </trkpt>
      <trkpt lat="45.51643" lon="6.15801">
        <ele>624</ele>
        <time>2012-03-20T15:14:01.000Z</time>
      </trkpt>
      <trkpt lat="45.51641" lon="6.1579">
        <ele>623.40002441406</ele>
        <time>2012-03-20T15:14:08.000Z</time>
      </trkpt>
      <trkpt lat="45.5164" lon="6.15788">
        <ele>624</ele>
        <time>2012-03-20T15:14:09.000Z</time>
      </trkpt>
      <trkpt lat="45.51633" lon="6.15773">
        <ele>625.79998779297</ele>
        <time>2012-03-20T15:14:16.000Z</time>
      </trkpt>
      <trkpt lat="45.51631" lon="6.15768">
        <ele>624.79998779297</ele>
        <time>2012-03-20T15:14:18.000Z</time>
      </trkpt>
      <trkpt lat="45.51626" lon="6.15752">
        <ele>626.79998779297</ele>
        <time>2012-03-20T15:14:24.000Z</time>
      </trkpt>
      <trkpt lat="45.5162" lon="6.1574">
        <ele>628.79998779297</ele>
        <time>2012-03-20T15:14:29.000Z</time>
      </trkpt>
      <trkpt lat="45.51616" lon="6.1573">
        <ele>632.59997558594</ele>
        <time>2012-03-20T15:14:34.000Z</time>
      </trkpt>
      <trkpt lat="45.51614" lon="6.15726">
        <ele>632.20001220703</ele>
        <time>2012-03-20T15:14:36.000Z</time>
      </trkpt>
      <trkpt lat="45.51609" lon="6.15713">
        <ele>634</ele>
        <time>2012-03-20T15:14:42.000Z</time>
      </trkpt>
      <trkpt lat="45.51602" lon="6.15696">
        <ele>636</ele>
        <time>2012-03-20T15:14:49.000Z</time>
      </trkpt>
      <trkpt lat="45.51597" lon="6.15685">
        <ele>638.79998779297</ele>
        <time>2012-03-20T15:14:55.000Z</time>
      </trkpt>
      <trkpt lat="45.5159" lon="6.15673">
        <ele>646.59997558594</ele>
        <time>2012-03-20T15:15:01.000Z</time>
      </trkpt>
      <trkpt lat="45.51582" lon="6.15662">
        <ele>650.40002441406</ele>
        <time>2012-03-20T15:15:08.000Z</time>
      </trkpt>
      <trkpt lat="45.51574" lon="6.15652">
        <ele>653.79998779297</ele>
        <time>2012-03-20T15:15:14.000Z</time>
      </trkpt>
      <trkpt lat="45.51566" lon="6.15639">
        <ele>652.79998779297</ele>
        <time>2012-03-20T15:15:20.000Z</time>
      </trkpt>
      <trkpt lat="45.51557" lon="6.15626">
        <ele>652.79998779297</ele>
        <time>2012-03-20T15:15:26.000Z</time>
      </trkpt>
      <trkpt lat="45.51547" lon="6.15613">
        <ele>651.79998779297</ele>
        <time>2012-03-20T15:15:33.000Z</time>
      </trkpt>
      <trkpt lat="45.51543" lon="6.15608">
        <ele>650.40002441406</ele>
        <time>2012-03-20T15:15:37.000Z</time>
      </trkpt>
      <trkpt lat="45.51532" lon="6.15594">
        <ele>649.79998779297</ele>
        <time>2012-03-20T15:15:43.000Z</time>
      </trkpt>
      <trkpt lat="45.5152" lon="6.15579">
        <ele>649</ele>
        <time>2012-03-20T15:15:49.000Z</time>
      </trkpt>
      <trkpt lat="45.51509" lon="6.15564">
        <ele>647</ele>
        <time>2012-03-20T15:15:55.000Z</time>
      </trkpt>
      <trkpt lat="45.51498" lon="6.15549">
        <ele>646.59997558594</ele>
        <time>2012-03-20T15:15:59.000Z</time>
      </trkpt>
      <trkpt lat="45.51482" lon="6.15509">
        <ele>644.59997558594</ele>
        <time>2012-03-20T15:16:03.000Z</time>
      </trkpt>
      <trkpt lat="45.51458" lon="6.15452">
        <ele>640.20001220703</ele>
        <time>2012-03-20T15:16:08.000Z</time>
      </trkpt>
      <trkpt lat="45.51453" lon="6.15422">
        <ele>637.79998779297</ele>
        <time>2012-03-20T15:16:10.000Z</time>
      </trkpt>
      <trkpt lat="45.51454" lon="6.15373">
        <ele>634</ele>
        <time>2012-03-20T15:16:14.000Z</time>
      </trkpt>
      <trkpt lat="45.51461" lon="6.15347">
        <ele>632.20001220703</ele>
        <time>2012-03-20T15:16:18.000Z</time>
      </trkpt>
      <trkpt lat="45.51465" lon="6.15331">
        <ele>627.20001220703</ele>
        <time>2012-03-20T15:16:23.000Z</time>
      </trkpt>
      <trkpt lat="45.51455" lon="6.15302">
        <ele>620.59997558594</ele>
        <time>2012-03-20T15:16:27.000Z</time>
      </trkpt>
      <trkpt lat="45.5145" lon="6.15292">
        <ele>620.59997558594</ele>
        <time>2012-03-20T15:16:28.000Z</time>
      </trkpt>
      <trkpt lat="45.51422" lon="6.15255">
        <ele>616.79998779297</ele>
        <time>2012-03-20T15:16:33.000Z</time>
      </trkpt>
      <trkpt lat="45.51406" lon="6.1523">
        <ele>612</ele>
        <time>2012-03-20T15:16:36.000Z</time>
      </trkpt>
      <trkpt lat="45.51389" lon="6.15199">
        <ele>608.59997558594</ele>
        <time>2012-03-20T15:16:39.000Z</time>
      </trkpt>
      <trkpt lat="45.51362" lon="6.15154">
        <ele>603.79998779297</ele>
        <time>2012-03-20T15:16:44.000Z</time>
      </trkpt>
      <trkpt lat="45.51337" lon="6.15125">
        <ele>599</ele>
        <time>2012-03-20T15:16:48.000Z</time>
      </trkpt>
      <trkpt lat="45.51318" lon="6.15095">
        <ele>596</ele>
        <time>2012-03-20T15:16:51.000Z</time>
      </trkpt>
      <trkpt lat="45.51284" lon="6.15049">
        <ele>589.79998779297</ele>
        <time>2012-03-20T15:16:57.000Z</time>
      </trkpt>
      <trkpt lat="45.51275" lon="6.15038">
        <ele>589.40002441406</ele>
        <time>2012-03-20T15:16:59.000Z</time>
      </trkpt>
      <trkpt lat="45.51274" lon="6.15025">
        <ele>587.40002441406</ele>
        <time>2012-03-20T15:17:03.000Z</time>
      </trkpt>
      <trkpt lat="45.51277" lon="6.1502">
        <ele>587.79998779297</ele>
        <time>2012-03-20T15:17:07.000Z</time>
      </trkpt>
      <trkpt lat="45.51276" lon="6.15022">
        <ele>588.79998779297</ele>
        <time>2012-03-20T15:17:19.000Z</time>
      </trkpt>
      <trkpt lat="45.51275" lon="6.15023">
        <ele>588.40002441406</ele>
        <time>2012-03-20T15:17:31.000Z</time>
      </trkpt>
      <trkpt lat="45.51275" lon="6.15024">
        <ele>587.40002441406</ele>
        <time>2012-03-20T15:17:39.000Z</time>
      </trkpt>
      <trkpt lat="45.51275" lon="6.15024">
        <ele>587.40002441406</ele>
        <time>2012-03-20T15:18:02.000Z</time>
      </trkpt>
      <trkpt lat="45.51274" lon="6.15016">
        <ele>588.40002441406</ele>
        <time>2012-03-20T15:18:32.000Z</time>
      </trkpt>
      <trkpt lat="45.51269" lon="6.15005">
        <ele>587.79998779297</ele>
        <time>2012-03-20T15:18:36.000Z</time>
      </trkpt>
      <trkpt lat="45.5126" lon="6.14997">
        <ele>587.79998779297</ele>
        <time>2012-03-20T15:18:40.000Z</time>
      </trkpt>
      <trkpt lat="45.51251" lon="6.15002">
        <ele>587.40002441406</ele>
        <time>2012-03-20T15:18:44.000Z</time>
      </trkpt>
      <trkpt lat="45.51245" lon="6.15008">
        <ele>587</ele>
        <time>2012-03-20T15:18:50.000Z</time>
      </trkpt>
      <trkpt lat="45.51243" lon="6.15007">
        <ele>587</ele>
        <time>2012-03-20T15:18:55.000Z</time>
      </trkpt>
      <trkpt lat="45.51242" lon="6.14999">
        <ele>586</ele>
        <time>2012-03-20T15:18:59.000Z</time>
      </trkpt>
      <trkpt lat="45.51241" lon="6.14984">
        <ele>583.59997558594</ele>
        <time>2012-03-20T15:19:06.000Z</time>
      </trkpt>
      <trkpt lat="45.51236" lon="6.1497">
        <ele>583</ele>
        <time>2012-03-20T15:19:12.000Z</time>
      </trkpt>
      <trkpt lat="45.5123" lon="6.14951">
        <ele>584</ele>
        <time>2012-03-20T15:19:19.000Z</time>
      </trkpt>
      <trkpt lat="45.51224" lon="6.14924">
        <ele>586.40002441406</ele>
        <time>2012-03-20T15:19:28.000Z</time>
      </trkpt>
      <trkpt lat="45.51218" lon="6.14911">
        <ele>588.79998779297</ele>
        <time>2012-03-20T15:19:33.000Z</time>
      </trkpt>
      <trkpt lat="45.51212" lon="6.14898">
        <ele>594.20001220703</ele>
        <time>2012-03-20T15:19:38.000Z</time>
      </trkpt>
      <trkpt lat="45.51207" lon="6.14887">
        <ele>595.59997558594</ele>
        <time>2012-03-20T15:19:43.000Z</time>
      </trkpt>
      <trkpt lat="45.51203" lon="6.14874">
        <ele>598</ele>
        <time>2012-03-20T15:19:50.000Z</time>
      </trkpt>
      <trkpt lat="45.51197" lon="6.14861">
        <ele>601.40002441406</ele>
        <time>2012-03-20T15:19:57.000Z</time>
      </trkpt>
      <trkpt lat="45.51195" lon="6.14854">
        <ele>601.40002441406</ele>
        <time>2012-03-20T15:20:00.000Z</time>
      </trkpt>
      <trkpt lat="45.51193" lon="6.14841">
        <ele>601.79998779297</ele>
        <time>2012-03-20T15:20:06.000Z</time>
      </trkpt>
      <trkpt lat="45.51192" lon="6.14832">
        <ele>601.40002441406</ele>
        <time>2012-03-20T15:20:09.000Z</time>
      </trkpt>
      <trkpt lat="45.51183" lon="6.14816">
        <ele>599</ele>
        <time>2012-03-20T15:20:14.000Z</time>
      </trkpt>
      <trkpt lat="45.51166" lon="6.14788">
        <ele>595</ele>
        <time>2012-03-20T15:20:19.000Z</time>
      </trkpt>
      <trkpt lat="45.51158" lon="6.14765">
        <ele>594.20001220703</ele>
        <time>2012-03-20T15:20:21.000Z</time>
      </trkpt>
      <trkpt lat="45.51153" lon="6.14747">
        <ele>594.59997558594</ele>
        <time>2012-03-20T15:20:23.000Z</time>
      </trkpt>
      <trkpt lat="45.51144" lon="6.14725">
        <ele>595</ele>
        <time>2012-03-20T15:20:27.000Z</time>
      </trkpt>
      <trkpt lat="45.5114" lon="6.14715">
        <ele>595</ele>
        <time>2012-03-20T15:20:29.000Z</time>
      </trkpt>
      <trkpt lat="45.51128" lon="6.14671">
        <ele>590.79998779297</ele>
        <time>2012-03-20T15:20:35.000Z</time>
      </trkpt>
      <trkpt lat="45.5112" lon="6.14655">
        <ele>588.40002441406</ele>
        <time>2012-03-20T15:20:39.000Z</time>
      </trkpt>
      <trkpt lat="45.51109" lon="6.14642">
        <ele>587.79998779297</ele>
        <time>2012-03-20T15:20:47.000Z</time>
      </trkpt>
      <trkpt lat="45.51098" lon="6.14632">
        <ele>588.79998779297</ele>
        <time>2012-03-20T15:20:52.000Z</time>
      </trkpt>
      <trkpt lat="45.51093" lon="6.14623">
        <ele>589.79998779297</ele>
        <time>2012-03-20T15:20:57.000Z</time>
      </trkpt>
      <trkpt lat="45.51085" lon="6.14611">
        <ele>591.79998779297</ele>
        <time>2012-03-20T15:21:02.000Z</time>
      </trkpt>
      <trkpt lat="45.51076" lon="6.14589">
        <ele>593.59997558594</ele>
        <time>2012-03-20T15:21:09.000Z</time>
      </trkpt>
      <trkpt lat="45.5107" lon="6.14574">
        <ele>593.59997558594</ele>
        <time>2012-03-20T15:21:14.000Z</time>
      </trkpt>
      <trkpt lat="45.51066" lon="6.14561">
        <ele>594.20001220703</ele>
        <time>2012-03-20T15:21:18.000Z</time>
      </trkpt>
      <trkpt lat="45.51061" lon="6.14553">
        <ele>594.59997558594</ele>
        <time>2012-03-20T15:21:22.000Z</time>
      </trkpt>
      <trkpt lat="45.51055" lon="6.14538">
        <ele>595.59997558594</ele>
        <time>2012-03-20T15:21:28.000Z</time>
      </trkpt>
      <trkpt lat="45.51046" lon="6.14524">
        <ele>596.59997558594</ele>
        <time>2012-03-20T15:21:34.000Z</time>
      </trkpt>
      <trkpt lat="45.51041" lon="6.14515">
        <ele>598.40002441406</ele>
        <time>2012-03-20T15:21:39.000Z</time>
      </trkpt>
      <trkpt lat="45.51034" lon="6.14503">
        <ele>601.40002441406</ele>
        <time>2012-03-20T15:21:46.000Z</time>
      </trkpt>
      <trkpt lat="45.51033" lon="6.145">
        <ele>602.40002441406</ele>
        <time>2012-03-20T15:21:48.000Z</time>
      </trkpt>
      <trkpt lat="45.5103" lon="6.14495">
        <ele>603.79998779297</ele>
        <time>2012-03-20T15:21:52.000Z</time>
      </trkpt>
      <trkpt lat="45.51021" lon="6.14484">
        <ele>606.20001220703</ele>
        <time>2012-03-20T15:22:00.000Z</time>
      </trkpt>
      <trkpt lat="45.51014" lon="6.14474">
        <ele>609</ele>
        <time>2012-03-20T15:22:06.000Z</time>
      </trkpt>
      <trkpt lat="45.51014" lon="6.14472">
        <ele>609.59997558594</ele>
        <time>2012-03-20T15:22:07.000Z</time>
      </trkpt>
      <trkpt lat="45.51008" lon="6.14459">
        <ele>611</ele>
        <time>2012-03-20T15:22:13.000Z</time>
      </trkpt>
      <trkpt lat="45.51" lon="6.14447">
        <ele>612</ele>
        <time>2012-03-20T15:22:20.000Z</time>
      </trkpt>
      <trkpt lat="45.50993" lon="6.14437">
        <ele>613.40002441406</ele>
        <time>2012-03-20T15:22:26.000Z</time>
      </trkpt>
      <trkpt lat="45.50985" lon="6.14431">
        <ele>614.79998779297</ele>
        <time>2012-03-20T15:22:33.000Z</time>
      </trkpt>
      <trkpt lat="45.50977" lon="6.14424">
        <ele>614.40002441406</ele>
        <time>2012-03-20T15:22:40.000Z</time>
      </trkpt>
      <trkpt lat="45.50971" lon="6.14412">
        <ele>613.40002441406</ele>
        <time>2012-03-20T15:22:44.000Z</time>
      </trkpt>
      <trkpt lat="45.50959" lon="6.14396">
        <ele>612.40002441406</ele>
        <time>2012-03-20T15:22:49.000Z</time>
      </trkpt>
      <trkpt lat="45.5095" lon="6.14379">
        <ele>612</ele>
        <time>2012-03-20T15:22:53.000Z</time>
      </trkpt>
      <trkpt lat="45.50934" lon="6.14356">
        <ele>614.40002441406</ele>
        <time>2012-03-20T15:22:58.000Z</time>
      </trkpt>
      <trkpt lat="45.50922" lon="6.14338">
        <ele>615.79998779297</ele>
        <time>2012-03-20T15:23:02.000Z</time>
      </trkpt>
      <trkpt lat="45.50909" lon="6.14322">
        <ele>615.79998779297</ele>
        <time>2012-03-20T15:23:07.000Z</time>
      </trkpt>
      <trkpt lat="45.50907" lon="6.14319">
        <ele>615.79998779297</ele>
        <time>2012-03-20T15:23:08.000Z</time>
      </trkpt>
      <trkpt lat="45.50896" lon="6.14305">
        <ele>615.20001220703</ele>
        <time>2012-03-20T15:23:15.000Z</time>
      </trkpt>
      <trkpt lat="45.50891" lon="6.14298">
        <ele>616.20001220703</ele>
        <time>2012-03-20T15:23:18.000Z</time>
      </trkpt>
      <trkpt lat="45.50889" lon="6.14294">
        <ele>616.79998779297</ele>
        <time>2012-03-20T15:23:20.000Z</time>
      </trkpt>
      <trkpt lat="45.50879" lon="6.14277">
        <ele>615.79998779297</ele>
        <time>2012-03-20T15:23:26.000Z</time>
      </trkpt>
      <trkpt lat="45.50877" lon="6.14274">
        <ele>616.20001220703</ele>
        <time>2012-03-20T15:23:27.000Z</time>
      </trkpt>
      <trkpt lat="45.50864" lon="6.14258">
        <ele>616.79998779297</ele>
        <time>2012-03-20T15:23:33.000Z</time>
      </trkpt>
      <trkpt lat="45.50853" lon="6.14244">
        <ele>616.20001220703</ele>
        <time>2012-03-20T15:23:38.000Z</time>
      </trkpt>
      <trkpt lat="45.50845" lon="6.14235">
        <ele>617.20001220703</ele>
        <time>2012-03-20T15:23:42.000Z</time>
      </trkpt>
      <trkpt lat="45.50838" lon="6.14228">
        <ele>615.79998779297</ele>
        <time>2012-03-20T15:23:47.000Z</time>
      </trkpt>
      <trkpt lat="45.50832" lon="6.14218">
        <ele>616.79998779297</ele>
        <time>2012-03-20T15:23:52.000Z</time>
      </trkpt>
      <trkpt lat="45.50831" lon="6.14214">
        <ele>617.59997558594</ele>
        <time>2012-03-20T15:23:54.000Z</time>
      </trkpt>
      <trkpt lat="45.50823" lon="6.142">
        <ele>618.20001220703</ele>
        <time>2012-03-20T15:24:00.000Z</time>
      </trkpt>
      <trkpt lat="45.5081" lon="6.14185">
        <ele>617.59997558594</ele>
        <time>2012-03-20T15:24:10.000Z</time>
      </trkpt>
      <trkpt lat="45.50803" lon="6.14173">
        <ele>618.20001220703</ele>
        <time>2012-03-20T15:24:16.000Z</time>
      </trkpt>
      <trkpt lat="45.50792" lon="6.14166">
        <ele>621.59997558594</ele>
        <time>2012-03-20T15:24:23.000Z</time>
      </trkpt>
      <trkpt lat="45.50782" lon="6.14159">
        <ele>624</ele>
        <time>2012-03-20T15:24:30.000Z</time>
      </trkpt>
      <trkpt lat="45.50775" lon="6.14154">
        <ele>626.40002441406</ele>
        <time>2012-03-20T15:24:36.000Z</time>
      </trkpt>
      <trkpt lat="45.50769" lon="6.14151">
        <ele>627.20001220703</ele>
        <time>2012-03-20T15:24:40.000Z</time>
      </trkpt>
      <trkpt lat="45.50759" lon="6.14147">
        <ele>628.79998779297</ele>
        <time>2012-03-20T15:24:48.000Z</time>
      </trkpt>
      <trkpt lat="45.50753" lon="6.14145">
        <ele>629.20001220703</ele>
        <time>2012-03-20T15:24:53.000Z</time>
      </trkpt>
      <trkpt lat="45.50745" lon="6.14143">
        <ele>629.79998779297</ele>
        <time>2012-03-20T15:24:58.000Z</time>
      </trkpt>
      <trkpt lat="45.50738" lon="6.14141">
        <ele>630.59997558594</ele>
        <time>2012-03-20T15:25:06.000Z</time>
      </trkpt>
      <trkpt lat="45.50737" lon="6.14138">
        <ele>633.59997558594</ele>
        <time>2012-03-20T15:25:11.000Z</time>
      </trkpt>
      <trkpt lat="45.50734" lon="6.14135">
        <ele>641.79998779297</ele>
        <time>2012-03-20T15:25:23.000Z</time>
      </trkpt>
      <trkpt lat="45.50731" lon="6.14125">
        <ele>658</ele>
        <time>2012-03-20T15:25:56.000Z</time>
      </trkpt>
      <trkpt lat="45.50729" lon="6.14134">
        <ele>644.20001220703</ele>
        <time>2012-03-20T15:26:15.000Z</time>
      </trkpt>
      <trkpt lat="45.50728" lon="6.14139">
        <ele>636.40002441406</ele>
        <time>2012-03-20T15:26:26.000Z</time>
      </trkpt>
      <trkpt lat="45.50726" lon="6.14135">
        <ele>636.40002441406</ele>
        <time>2012-03-20T15:26:33.000Z</time>
      </trkpt>
      <trkpt lat="45.5072" lon="6.14133">
        <ele>638.79998779297</ele>
        <time>2012-03-20T15:26:39.000Z</time>
      </trkpt>
      <trkpt lat="45.50715" lon="6.14131">
        <ele>639.40002441406</ele>
        <time>2012-03-20T15:26:45.000Z</time>
      </trkpt>
      <trkpt lat="45.50712" lon="6.1413">
        <ele>640.20001220703</ele>
        <time>2012-03-20T15:26:51.000Z</time>
      </trkpt>
      <trkpt lat="45.50709" lon="6.14126">
        <ele>643.20001220703</ele>
        <time>2012-03-20T15:26:57.000Z</time>
      </trkpt>
      <trkpt lat="45.50707" lon="6.14124">
        <ele>646.59997558594</ele>
        <time>2012-03-20T15:27:03.000Z</time>
      </trkpt>
      <trkpt lat="45.50704" lon="6.1412">
        <ele>647</ele>
        <time>2012-03-20T15:27:09.000Z</time>
      </trkpt>
      <trkpt lat="45.50705" lon="6.14124">
        <ele>645.59997558594</ele>
        <time>2012-03-20T15:27:26.000Z</time>
      </trkpt>
      <trkpt lat="45.507" lon="6.14125">
        <ele>643.59997558594</ele>
        <time>2012-03-20T15:27:33.000Z</time>
      </trkpt>
      <trkpt lat="45.50696" lon="6.14125">
        <ele>644.59997558594</ele>
        <time>2012-03-20T15:27:41.000Z</time>
      </trkpt>
      <trkpt lat="45.50694" lon="6.14124">
        <ele>643.59997558594</ele>
        <time>2012-03-20T15:27:46.000Z</time>
      </trkpt>
      <trkpt lat="45.50688" lon="6.1412">
        <ele>646.59997558594</ele>
        <time>2012-03-20T15:27:53.000Z</time>
      </trkpt>
      <trkpt lat="45.50686" lon="6.14119">
        <ele>647</ele>
        <time>2012-03-20T15:28:06.000Z</time>
      </trkpt>
      <trkpt lat="45.50685" lon="6.1412">
        <ele>643.59997558594</ele>
        <time>2012-03-20T15:28:09.000Z</time>
      </trkpt>
      <trkpt lat="45.50683" lon="6.14117">
        <ele>647.40002441406</ele>
        <time>2012-03-20T15:28:27.000Z</time>
      </trkpt>
      <trkpt lat="45.50681" lon="6.14117">
        <ele>645.59997558594</ele>
        <time>2012-03-20T15:28:33.000Z</time>
      </trkpt>
      <trkpt lat="45.50679" lon="6.14114">
        <ele>649</ele>
        <time>2012-03-20T15:28:39.000Z</time>
      </trkpt>
      <trkpt lat="45.50676" lon="6.14111">
        <ele>653.79998779297</ele>
        <time>2012-03-20T15:28:46.000Z</time>
      </trkpt>
      <trkpt lat="45.50676" lon="6.1411">
        <ele>659</ele>
        <time>2012-03-20T15:28:54.000Z</time>
      </trkpt>
      <trkpt lat="45.50674" lon="6.14109">
        <ele>658.59997558594</ele>
        <time>2012-03-20T15:29:00.000Z</time>
      </trkpt>
      <trkpt lat="45.50669" lon="6.14109">
        <ele>656.20001220703</ele>
        <time>2012-03-20T15:29:06.000Z</time>
      </trkpt>
      <trkpt lat="45.50668" lon="6.14109">
        <ele>655.59997558594</ele>
        <time>2012-03-20T15:29:14.000Z</time>
      </trkpt>
      <trkpt lat="45.50664" lon="6.14108">
        <ele>652.20001220703</ele>
        <time>2012-03-20T15:29:21.000Z</time>
      </trkpt>
      <trkpt lat="45.50659" lon="6.14103">
        <ele>649.40002441406</ele>
        <time>2012-03-20T15:29:30.000Z</time>
      </trkpt>
      <trkpt lat="45.50655" lon="6.14094">
        <ele>652.79998779297</ele>
        <time>2012-03-20T15:29:37.000Z</time>
      </trkpt>
      <trkpt lat="45.50652" lon="6.14086">
        <ele>656.20001220703</ele>
        <time>2012-03-20T15:29:43.000Z</time>
      </trkpt>
      <trkpt lat="45.50652" lon="6.14084">
        <ele>662.79998779297</ele>
        <time>2012-03-20T15:29:50.000Z</time>
      </trkpt>
      <trkpt lat="45.50653" lon="6.14087">
        <ele>665.79998779297</ele>
        <time>2012-03-20T15:29:56.000Z</time>
      </trkpt>
      <trkpt lat="45.50652" lon="6.1409">
        <ele>668.20001220703</ele>
        <time>2012-03-20T15:30:03.000Z</time>
      </trkpt>
      <trkpt lat="45.5065" lon="6.14091">
        <ele>665.20001220703</ele>
        <time>2012-03-20T15:30:09.000Z</time>
      </trkpt>
      <trkpt lat="45.50647" lon="6.14088">
        <ele>667.20001220703</ele>
        <time>2012-03-20T15:30:17.000Z</time>
      </trkpt>
      <trkpt lat="45.50643" lon="6.14086">
        <ele>669.20001220703</ele>
        <time>2012-03-20T15:30:26.000Z</time>
      </trkpt>
      <trkpt lat="45.50642" lon="6.14088">
        <ele>671</ele>
        <time>2012-03-20T15:30:32.000Z</time>
      </trkpt>
      <trkpt lat="45.5064" lon="6.14087">
        <ele>674</ele>
        <time>2012-03-20T15:30:38.000Z</time>
      </trkpt>
      <trkpt lat="45.50635" lon="6.14094">
        <ele>675.40002441406</ele>
        <time>2012-03-20T15:30:55.000Z</time>
      </trkpt>
      <trkpt lat="45.5063" lon="6.14094">
        <ele>678.79998779297</ele>
        <time>2012-03-20T15:31:03.000Z</time>
      </trkpt>
      <trkpt lat="45.50625" lon="6.14091">
        <ele>678.79998779297</ele>
        <time>2012-03-20T15:31:09.000Z</time>
      </trkpt>
      <trkpt lat="45.50625" lon="6.14092">
        <ele>681.59997558594</ele>
        <time>2012-03-20T15:31:14.000Z</time>
      </trkpt>
      <trkpt lat="45.50629" lon="6.14097">
        <ele>683</ele>
        <time>2012-03-20T15:31:21.000Z</time>
      </trkpt>
      <trkpt lat="45.50629" lon="6.14097">
        <ele>681.59997558594</ele>
        <time>2012-03-20T15:31:28.000Z</time>
      </trkpt>
      <trkpt lat="45.50631" lon="6.14093">
        <ele>685.40002441406</ele>
        <time>2012-03-20T15:31:37.000Z</time>
      </trkpt>
      <trkpt lat="45.50632" lon="6.1409">
        <ele>693.20001220703</ele>
        <time>2012-03-20T15:31:46.000Z</time>
      </trkpt>
      <trkpt lat="45.50633" lon="6.14096">
        <ele>690.79998779297</ele>
        <time>2012-03-20T15:31:54.000Z</time>
      </trkpt>
      <trkpt lat="45.5063" lon="6.14098">
        <ele>691.79998779297</ele>
        <time>2012-03-20T15:32:01.000Z</time>
      </trkpt>
      <trkpt lat="45.50628" lon="6.14099">
        <ele>690.79998779297</ele>
        <time>2012-03-20T15:32:09.000Z</time>
      </trkpt>
      <trkpt lat="45.50627" lon="6.14101">
        <ele>692.20001220703</ele>
        <time>2012-03-20T15:32:16.000Z</time>
      </trkpt>
      <trkpt lat="45.50628" lon="6.14103">
        <ele>689.79998779297</ele>
        <time>2012-03-20T15:32:22.000Z</time>
      </trkpt>
      <trkpt lat="45.5063" lon="6.14106">
        <ele>687.79998779297</ele>
        <time>2012-03-20T15:32:28.000Z</time>
      </trkpt>
      <trkpt lat="45.50628" lon="6.14116">
        <ele>672.40002441406</ele>
        <time>2012-03-20T15:32:35.000Z</time>
      </trkpt>
      <trkpt lat="45.50633" lon="6.14119">
        <ele>673.40002441406</ele>
        <time>2012-03-20T15:32:41.000Z</time>
      </trkpt>
      <trkpt lat="45.50631" lon="6.14114">
        <ele>661.40002441406</ele>
        <time>2012-03-20T15:33:00.000Z</time>
      </trkpt>
      <trkpt lat="45.50633" lon="6.14118">
        <ele>663.40002441406</ele>
        <time>2012-03-20T15:33:10.000Z</time>
      </trkpt>
      <trkpt lat="45.50633" lon="6.14118">
        <ele>664.40002441406</ele>
        <time>2012-03-20T15:33:22.000Z</time>
      </trkpt>
      <trkpt lat="45.5063" lon="6.14115">
        <ele>670</ele>
        <time>2012-03-20T15:33:30.000Z</time>
      </trkpt>
      <trkpt lat="45.50629" lon="6.14119">
        <ele>675.40002441406</ele>
        <time>2012-03-20T15:33:37.000Z</time>
      </trkpt>
      <trkpt lat="45.50628" lon="6.14116">
        <ele>672.40002441406</ele>
        <time>2012-03-20T15:33:44.000Z</time>
      </trkpt>
      <trkpt lat="45.50626" lon="6.14116">
        <ele>669.20001220703</ele>
        <time>2012-03-20T15:33:46.000Z</time>
      </trkpt>
      <trkpt lat="45.50624" lon="6.14114">
        <ele>667.59997558594</ele>
        <time>2012-03-20T15:33:55.000Z</time>
      </trkpt>
      <trkpt lat="45.50624" lon="6.14116">
        <ele>671</ele>
        <time>2012-03-20T15:34:02.000Z</time>
      </trkpt>
      <trkpt lat="45.50624" lon="6.14114">
        <ele>675.79998779297</ele>
        <time>2012-03-20T15:34:09.000Z</time>
      </trkpt>
      <trkpt lat="45.50624" lon="6.14119">
        <ele>678.20001220703</ele>
        <time>2012-03-20T15:34:18.000Z</time>
      </trkpt>
      <trkpt lat="45.50624" lon="6.14121">
        <ele>680.20001220703</ele>
        <time>2012-03-20T15:34:26.000Z</time>
      </trkpt>
      <trkpt lat="45.50622" lon="6.14122">
        <ele>685.40002441406</ele>
        <time>2012-03-20T15:34:35.000Z</time>
      </trkpt>
      <trkpt lat="45.50623" lon="6.1412">
        <ele>691.20001220703</ele>
        <time>2012-03-20T15:34:44.000Z</time>
      </trkpt>
      <trkpt lat="45.50626" lon="6.14121">
        <ele>693.59997558594</ele>
        <time>2012-03-20T15:34:51.000Z</time>
      </trkpt>
      <trkpt lat="45.50621" lon="6.14119">
        <ele>698</ele>
        <time>2012-03-20T15:35:00.000Z</time>
      </trkpt>
      <trkpt lat="45.50618" lon="6.14116">
        <ele>697.40002441406</ele>
        <time>2012-03-20T15:35:05.000Z</time>
      </trkpt>
      <trkpt lat="45.50617" lon="6.14116">
        <ele>697.40002441406</ele>
        <time>2012-03-20T15:35:13.000Z</time>
      </trkpt>
      <trkpt lat="45.50617" lon="6.14119">
        <ele>697.40002441406</ele>
        <time>2012-03-20T15:35:21.000Z</time>
      </trkpt>
      <trkpt lat="45.50617" lon="6.1412">
        <ele>697</ele>
        <time>2012-03-20T15:35:31.000Z</time>
      </trkpt>
      <trkpt lat="45.50611" lon="6.14122">
        <ele>688.79998779297</ele>
        <time>2012-03-20T15:35:38.000Z</time>
      </trkpt>
      <trkpt lat="45.50613" lon="6.14126">
        <ele>687.79998779297</ele>
        <time>2012-03-20T15:35:45.000Z</time>
      </trkpt>
      <trkpt lat="45.50613" lon="6.14128">
        <ele>688.79998779297</ele>
        <time>2012-03-20T15:35:56.000Z</time>
      </trkpt>
      <trkpt lat="45.50609" lon="6.14129">
        <ele>687.79998779297</ele>
        <time>2012-03-20T15:36:02.000Z</time>
      </trkpt>
      <trkpt lat="45.5061" lon="6.1413">
        <ele>688.79998779297</ele>
        <time>2012-03-20T15:36:12.000Z</time>
      </trkpt>
      <trkpt lat="45.50608" lon="6.14129">
        <ele>692.59997558594</ele>
        <time>2012-03-20T15:36:19.000Z</time>
      </trkpt>
      <trkpt lat="45.50607" lon="6.14126">
        <ele>698.40002441406</ele>
        <time>2012-03-20T15:36:27.000Z</time>
      </trkpt>
      <trkpt lat="45.50609" lon="6.14126">
        <ele>703.20001220703</ele>
        <time>2012-03-20T15:36:35.000Z</time>
      </trkpt>
      <trkpt lat="45.50609" lon="6.14126">
        <ele>707.59997558594</ele>
        <time>2012-03-20T15:36:44.000Z</time>
      </trkpt>
      <trkpt lat="45.5061" lon="6.14128">
        <ele>711.79998779297</ele>
        <time>2012-03-20T15:36:52.000Z</time>
      </trkpt>
      <trkpt lat="45.50609" lon="6.14133">
        <ele>710</ele>
        <time>2012-03-20T15:37:00.000Z</time>
      </trkpt>
      <trkpt lat="45.50611" lon="6.14137">
        <ele>705.20001220703</ele>
        <time>2012-03-20T15:37:07.000Z</time>
      </trkpt>
      <trkpt lat="45.5061" lon="6.14139">
        <ele>704.59997558594</ele>
        <time>2012-03-20T15:37:13.000Z</time>
      </trkpt>
      <trkpt lat="45.5061" lon="6.14142">
        <ele>706.59997558594</ele>
        <time>2012-03-20T15:37:21.000Z</time>
      </trkpt>
      <trkpt lat="45.50609" lon="6.1414">
        <ele>711.40002441406</ele>
        <time>2012-03-20T15:37:28.000Z</time>
      </trkpt>
      <trkpt lat="45.5061" lon="6.14145">
        <ele>706.59997558594</ele>
        <time>2012-03-20T15:37:37.000Z</time>
      </trkpt>
      <trkpt lat="45.50615" lon="6.1415">
        <ele>708.59997558594</ele>
        <time>2012-03-20T15:37:45.000Z</time>
      </trkpt>
      <trkpt lat="45.50619" lon="6.14153">
        <ele>713.40002441406</ele>
        <time>2012-03-20T15:37:53.000Z</time>
      </trkpt>
      <trkpt lat="45.50617" lon="6.14154">
        <ele>709.40002441406</ele>
        <time>2012-03-20T15:38:23.000Z</time>
      </trkpt>
      <trkpt lat="45.50612" lon="6.14154">
        <ele>709</ele>
        <time>2012-03-20T15:38:29.000Z</time>
      </trkpt>
      <trkpt lat="45.5061" lon="6.14153">
        <ele>709.40002441406</ele>
        <time>2012-03-20T15:38:36.000Z</time>
      </trkpt>
      <trkpt lat="45.50607" lon="6.14156">
        <ele>709.40002441406</ele>
        <time>2012-03-20T15:38:42.000Z</time>
      </trkpt>
      <trkpt lat="45.50604" lon="6.14153">
        <ele>710</ele>
        <time>2012-03-20T15:38:48.000Z</time>
      </trkpt>
      <trkpt lat="45.50603" lon="6.1415">
        <ele>711</ele>
        <time>2012-03-20T15:38:57.000Z</time>
      </trkpt>
      <trkpt lat="45.50602" lon="6.14152">
        <ele>716.20001220703</ele>
        <time>2012-03-20T15:39:06.000Z</time>
      </trkpt>
      <trkpt lat="45.50608" lon="6.14151">
        <ele>718.20001220703</ele>
        <time>2012-03-20T15:39:22.000Z</time>
      </trkpt>
      <trkpt lat="45.50607" lon="6.14151">
        <ele>718.59997558594</ele>
        <time>2012-03-20T15:39:30.000Z</time>
      </trkpt>
      <trkpt lat="45.50608" lon="6.14154">
        <ele>716.79998779297</ele>
        <time>2012-03-20T15:39:36.000Z</time>
      </trkpt>
      <trkpt lat="45.50609" lon="6.14156">
        <ele>716.20001220703</ele>
        <time>2012-03-20T15:39:43.000Z</time>
      </trkpt>
      <trkpt lat="45.50609" lon="6.1416">
        <ele>714.79998779297</ele>
        <time>2012-03-20T15:39:49.000Z</time>
      </trkpt>
      <trkpt lat="45.50609" lon="6.14164">
        <ele>713.79998779297</ele>
        <time>2012-03-20T15:39:57.000Z</time>
      </trkpt>
      <trkpt lat="45.50609" lon="6.14167">
        <ele>713.79998779297</ele>
        <time>2012-03-20T15:40:04.000Z</time>
      </trkpt>
      <trkpt lat="45.50608" lon="6.1417">
        <ele>713.79998779297</ele>
        <time>2012-03-20T15:40:12.000Z</time>
      </trkpt>
      <trkpt lat="45.50608" lon="6.14172">
        <ele>713.79998779297</ele>
        <time>2012-03-20T15:40:18.000Z</time>
      </trkpt>
      <trkpt lat="45.50605" lon="6.14173">
        <ele>715.79998779297</ele>
        <time>2012-03-20T15:40:26.000Z</time>
      </trkpt>
      <trkpt lat="45.50605" lon="6.14177">
        <ele>717.59997558594</ele>
        <time>2012-03-20T15:40:33.000Z</time>
      </trkpt>
      <trkpt lat="45.50604" lon="6.14179">
        <ele>719.59997558594</ele>
        <time>2012-03-20T15:40:38.000Z</time>
      </trkpt>
      <trkpt lat="45.50601" lon="6.14181">
        <ele>722</ele>
        <time>2012-03-20T15:40:47.000Z</time>
      </trkpt>
      <trkpt lat="45.50597" lon="6.14183">
        <ele>722.40002441406</ele>
        <time>2012-03-20T15:40:54.000Z</time>
      </trkpt>
      <trkpt lat="45.50593" lon="6.14182">
        <ele>721</ele>
        <time>2012-03-20T15:40:59.000Z</time>
      </trkpt>
      <trkpt lat="45.50591" lon="6.14182">
        <ele>722</ele>
        <time>2012-03-20T15:41:07.000Z</time>
      </trkpt>
      <trkpt lat="45.5059" lon="6.14185">
        <ele>724.40002441406</ele>
        <time>2012-03-20T15:41:17.000Z</time>
      </trkpt>
      <trkpt lat="45.5059" lon="6.14192">
        <ele>735.40002441406</ele>
        <time>2012-03-20T15:41:34.000Z</time>
      </trkpt>
      <trkpt lat="45.5059" lon="6.14191">
        <ele>736.79998779297</ele>
        <time>2012-03-20T15:41:39.000Z</time>
      </trkpt>
      <trkpt lat="45.5059" lon="6.14188">
        <ele>736</ele>
        <time>2012-03-20T15:41:46.000Z</time>
      </trkpt>
      <trkpt lat="45.50587" lon="6.14188">
        <ele>730.20001220703</ele>
        <time>2012-03-20T15:41:58.000Z</time>
      </trkpt>
      <trkpt lat="45.50587" lon="6.14186">
        <ele>726.40002441406</ele>
        <time>2012-03-20T15:42:10.000Z</time>
      </trkpt>
      <trkpt lat="45.5059" lon="6.14187">
        <ele>728.20001220703</ele>
        <time>2012-03-20T15:42:31.000Z</time>
      </trkpt>
      <trkpt lat="45.5059" lon="6.14184">
        <ele>728.20001220703</ele>
        <time>2012-03-20T15:43:00.000Z</time>
      </trkpt>
      <trkpt lat="45.50588" lon="6.14179">
        <ele>729.20001220703</ele>
        <time>2012-03-20T15:43:12.000Z</time>
      </trkpt>
      <trkpt lat="45.50588" lon="6.14172">
        <ele>730.20001220703</ele>
        <time>2012-03-20T15:43:20.000Z</time>
      </trkpt>
      <trkpt lat="45.50587" lon="6.14166">
        <ele>730.59997558594</ele>
        <time>2012-03-20T15:43:26.000Z</time>
      </trkpt>
      <trkpt lat="45.50583" lon="6.14161">
        <ele>730.20001220703</ele>
        <time>2012-03-20T15:43:34.000Z</time>
      </trkpt>
      <trkpt lat="45.50579" lon="6.14159">
        <ele>730.20001220703</ele>
        <time>2012-03-20T15:43:41.000Z</time>
      </trkpt>
      <trkpt lat="45.50575" lon="6.14156">
        <ele>731.20001220703</ele>
        <time>2012-03-20T15:43:50.000Z</time>
      </trkpt>
      <trkpt lat="45.50572" lon="6.14152">
        <ele>732.59997558594</ele>
        <time>2012-03-20T15:43:58.000Z</time>
      </trkpt>
      <trkpt lat="45.50567" lon="6.14146">
        <ele>733</ele>
        <time>2012-03-20T15:44:05.000Z</time>
      </trkpt>
      <trkpt lat="45.50561" lon="6.14141">
        <ele>734.40002441406</ele>
        <time>2012-03-20T15:44:13.000Z</time>
      </trkpt>
      <trkpt lat="45.50555" lon="6.14137">
        <ele>734</ele>
        <time>2012-03-20T15:44:21.000Z</time>
      </trkpt>
      <trkpt lat="45.5055" lon="6.14134">
        <ele>734</ele>
        <time>2012-03-20T15:44:29.000Z</time>
      </trkpt>
      <trkpt lat="45.50547" lon="6.14133">
        <ele>733</ele>
        <time>2012-03-20T15:44:40.000Z</time>
      </trkpt>
      <trkpt lat="45.50543" lon="6.14129">
        <ele>733.59997558594</ele>
        <time>2012-03-20T15:44:45.000Z</time>
      </trkpt>
      <trkpt lat="45.50532" lon="6.14117">
        <ele>733.59997558594</ele>
        <time>2012-03-20T15:44:52.000Z</time>
      </trkpt>
      <trkpt lat="45.50517" lon="6.14101">
        <ele>732.59997558594</ele>
        <time>2012-03-20T15:44:59.000Z</time>
      </trkpt>
      <trkpt lat="45.50508" lon="6.14092">
        <ele>733.59997558594</ele>
        <time>2012-03-20T15:45:03.000Z</time>
      </trkpt>
      <trkpt lat="45.50493" lon="6.14077">
        <ele>730.59997558594</ele>
        <time>2012-03-20T15:45:08.000Z</time>
      </trkpt>
      <trkpt lat="45.50476" lon="6.14055">
        <ele>726.79998779297</ele>
        <time>2012-03-20T15:45:13.000Z</time>
      </trkpt>
      <trkpt lat="45.50469" lon="6.14046">
        <ele>728.20001220703</ele>
        <time>2012-03-20T15:45:15.000Z</time>
      </trkpt>
      <trkpt lat="45.50449" lon="6.14015">
        <ele>732.59997558594</ele>
        <time>2012-03-20T15:45:21.000Z</time>
      </trkpt>
      <trkpt lat="45.50434" lon="6.14002">
        <ele>733.59997558594</ele>
        <time>2012-03-20T15:45:25.000Z</time>
      </trkpt>
      <trkpt lat="45.50418" lon="6.13989">
        <ele>734</ele>
        <time>2012-03-20T15:45:29.000Z</time>
      </trkpt>
      <trkpt lat="45.5041" lon="6.1398">
        <ele>736.40002441406</ele>
        <time>2012-03-20T15:45:31.000Z</time>
      </trkpt>
      <trkpt lat="45.50391" lon="6.13974">
        <ele>736.40002441406</ele>
        <time>2012-03-20T15:45:36.000Z</time>
      </trkpt>
      <trkpt lat="45.50378" lon="6.13969">
        <ele>736</ele>
        <time>2012-03-20T15:45:39.000Z</time>
      </trkpt>
      <trkpt lat="45.50369" lon="6.13956">
        <ele>736.79998779297</ele>
        <time>2012-03-20T15:45:43.000Z</time>
      </trkpt>
      <trkpt lat="45.50366" lon="6.13946">
        <ele>736.79998779297</ele>
        <time>2012-03-20T15:45:48.000Z</time>
      </trkpt>
      <trkpt lat="45.50366" lon="6.13936">
        <ele>736.79998779297</ele>
        <time>2012-03-20T15:45:54.000Z</time>
      </trkpt>
      <trkpt lat="45.50365" lon="6.13932">
        <ele>737.40002441406</ele>
        <time>2012-03-20T15:45:59.000Z</time>
      </trkpt>
      <trkpt lat="45.50362" lon="6.13928">
        <ele>737.40002441406</ele>
        <time>2012-03-20T15:46:08.000Z</time>
      </trkpt>
      <trkpt lat="45.5036" lon="6.13928">
        <ele>737.79998779297</ele>
        <time>2012-03-20T15:46:09.000Z</time>
      </trkpt>
      <trkpt lat="45.50355" lon="6.13922">
        <ele>738.79998779297</ele>
        <time>2012-03-20T15:46:13.000Z</time>
      </trkpt>
      <trkpt lat="45.50351" lon="6.13911">
        <ele>735</ele>
        <time>2012-03-20T15:46:18.000Z</time>
      </trkpt>
      <trkpt lat="45.50348" lon="6.13908">
        <ele>733</ele>
        <time>2012-03-20T15:46:19.000Z</time>
      </trkpt>
      <trkpt lat="45.50325" lon="6.13887">
        <ele>721.59997558594</ele>
        <time>2012-03-20T15:46:24.000Z</time>
      </trkpt>
      <trkpt lat="45.50314" lon="6.13882">
        <ele>716.20001220703</ele>
        <time>2012-03-20T15:46:26.000Z</time>
      </trkpt>
      <trkpt lat="45.50285" lon="6.13874">
        <ele>704.59997558594</ele>
        <time>2012-03-20T15:46:31.000Z</time>
      </trkpt>
      <trkpt lat="45.50279" lon="6.13869">
        <ele>700.79998779297</ele>
        <time>2012-03-20T15:46:33.000Z</time>
      </trkpt>
      <trkpt lat="45.50279" lon="6.13861">
        <ele>705.20001220703</ele>
        <time>2012-03-20T15:46:37.000Z</time>
      </trkpt>
      <trkpt lat="45.50277" lon="6.13855">
        <ele>709</ele>
        <time>2012-03-20T15:46:42.000Z</time>
      </trkpt>
      <trkpt lat="45.50279" lon="6.13841">
        <ele>711</ele>
        <time>2012-03-20T15:46:47.000Z</time>
      </trkpt>
      <trkpt lat="45.50273" lon="6.13814">
        <ele>711.79998779297</ele>
        <time>2012-03-20T15:46:51.000Z</time>
      </trkpt>
      <trkpt lat="45.50261" lon="6.13775">
        <ele>710</ele>
        <time>2012-03-20T15:46:55.000Z</time>
      </trkpt>
      <trkpt lat="45.50248" lon="6.13746">
        <ele>708.59997558594</ele>
        <time>2012-03-20T15:46:58.000Z</time>
      </trkpt>
      <trkpt lat="45.50212" lon="6.1369">
        <ele>707.59997558594</ele>
        <time>2012-03-20T15:47:03.000Z</time>
      </trkpt>
      <trkpt lat="45.502" lon="6.13671">
        <ele>705.59997558594</ele>
        <time>2012-03-20T15:47:05.000Z</time>
      </trkpt>
      <trkpt lat="45.50192" lon="6.13654">
        <ele>703.79998779297</ele>
        <time>2012-03-20T15:47:07.000Z</time>
      </trkpt>
      <trkpt lat="45.5018" lon="6.13615">
        <ele>702.79998779297</ele>
        <time>2012-03-20T15:47:12.000Z</time>
      </trkpt>
      <trkpt lat="45.50176" lon="6.13599">
        <ele>702.20001220703</ele>
        <time>2012-03-20T15:47:14.000Z</time>
      </trkpt>
      <trkpt lat="45.50169" lon="6.13578">
        <ele>692.20001220703</ele>
        <time>2012-03-20T15:47:20.000Z</time>
      </trkpt>
      <trkpt lat="45.50167" lon="6.13577">
        <ele>690.79998779297</ele>
        <time>2012-03-20T15:47:21.000Z</time>
      </trkpt>
      <trkpt lat="45.50153" lon="6.13561">
        <ele>689.79998779297</ele>
        <time>2012-03-20T15:47:27.000Z</time>
      </trkpt>
      <trkpt lat="45.50148" lon="6.13552">
        <ele>687.79998779297</ele>
        <time>2012-03-20T15:47:31.000Z</time>
      </trkpt>
      <trkpt lat="45.50144" lon="6.13546">
        <ele>683.59997558594</ele>
        <time>2012-03-20T15:47:36.000Z</time>
      </trkpt>
      <trkpt lat="45.50145" lon="6.1354">
        <ele>684</ele>
        <time>2012-03-20T15:47:52.000Z</time>
      </trkpt>
      <trkpt lat="45.50144" lon="6.13539">
        <ele>683</ele>
        <time>2012-03-20T15:47:57.000Z</time>
      </trkpt>
      <trkpt lat="45.50138" lon="6.13531">
        <ele>682</ele>
        <time>2012-03-20T15:48:02.000Z</time>
      </trkpt>
      <trkpt lat="45.50131" lon="6.13517">
        <ele>677.20001220703</ele>
        <time>2012-03-20T15:48:07.000Z</time>
      </trkpt>
      <trkpt lat="45.50123" lon="6.13503">
        <ele>680.20001220703</ele>
        <time>2012-03-20T15:48:13.000Z</time>
      </trkpt>
      <trkpt lat="45.50119" lon="6.13498">
        <ele>682.59997558594</ele>
        <time>2012-03-20T15:48:16.000Z</time>
      </trkpt>
      <trkpt lat="45.50118" lon="6.13496">
        <ele>683.59997558594</ele>
        <time>2012-03-20T15:48:18.000Z</time>
      </trkpt>
      <trkpt lat="45.50115" lon="6.1349">
        <ele>682</ele>
        <time>2012-03-20T15:48:22.000Z</time>
      </trkpt>
      <trkpt lat="45.50103" lon="6.13474">
        <ele>681.59997558594</ele>
        <time>2012-03-20T15:48:30.000Z</time>
      </trkpt>
      <trkpt lat="45.50099" lon="6.13469">
        <ele>681.59997558594</ele>
        <time>2012-03-20T15:48:34.000Z</time>
      </trkpt>
      <trkpt lat="45.50093" lon="6.13461">
        <ele>682.59997558594</ele>
        <time>2012-03-20T15:48:39.000Z</time>
      </trkpt>
      <trkpt lat="45.50085" lon="6.13451">
        <ele>682</ele>
        <time>2012-03-20T15:48:44.000Z</time>
      </trkpt>
      <trkpt lat="45.50073" lon="6.13438">
        <ele>679.59997558594</ele>
        <time>2012-03-20T15:48:51.000Z</time>
      </trkpt>
      <trkpt lat="45.50062" lon="6.13427">
        <ele>677.20001220703</ele>
        <time>2012-03-20T15:48:56.000Z</time>
      </trkpt>
      <trkpt lat="45.5006" lon="6.13426">
        <ele>677.20001220703</ele>
        <time>2012-03-20T15:48:57.000Z</time>
      </trkpt>
      <trkpt lat="45.50052" lon="6.13414">
        <ele>679.59997558594</ele>
        <time>2012-03-20T15:49:03.000Z</time>
      </trkpt>
      <trkpt lat="45.50044" lon="6.13409">
        <ele>678.79998779297</ele>
        <time>2012-03-20T15:49:07.000Z</time>
      </trkpt>
      <trkpt lat="45.50029" lon="6.13399">
        <ele>684.40002441406</ele>
        <time>2012-03-20T15:49:13.000Z</time>
      </trkpt>
      <trkpt lat="45.50022" lon="6.13389">
        <ele>686.79998779297</ele>
        <time>2012-03-20T15:49:18.000Z</time>
      </trkpt>
      <trkpt lat="45.50018" lon="6.13382">
        <ele>688.40002441406</ele>
        <time>2012-03-20T15:49:21.000Z</time>
      </trkpt>
      <trkpt lat="45.50019" lon="6.13368">
        <ele>689.40002441406</ele>
        <time>2012-03-20T15:49:25.000Z</time>
      </trkpt>
      <trkpt lat="45.50013" lon="6.1336">
        <ele>691.20001220703</ele>
        <time>2012-03-20T15:49:30.000Z</time>
      </trkpt>
      <trkpt lat="45.50007" lon="6.13353">
        <ele>689.40002441406</ele>
        <time>2012-03-20T15:49:34.000Z</time>
      </trkpt>
      <trkpt lat="45.49997" lon="6.13344">
        <ele>687.40002441406</ele>
        <time>2012-03-20T15:49:41.000Z</time>
      </trkpt>
      <trkpt lat="45.49995" lon="6.13342">
        <ele>687.40002441406</ele>
        <time>2012-03-20T15:49:43.000Z</time>
      </trkpt>
      <trkpt lat="45.49991" lon="6.13334">
        <ele>684</ele>
        <time>2012-03-20T15:49:49.000Z</time>
      </trkpt>
      <trkpt lat="45.4999" lon="6.13332">
        <ele>685.40002441406</ele>
        <time>2012-03-20T15:49:50.000Z</time>
      </trkpt>
      <trkpt lat="45.49987" lon="6.13328">
        <ele>685.40002441406</ele>
        <time>2012-03-20T15:49:52.000Z</time>
      </trkpt>
      <trkpt lat="45.49978" lon="6.13314">
        <ele>686.79998779297</ele>
        <time>2012-03-20T15:49:59.000Z</time>
      </trkpt>
      <trkpt lat="45.49975" lon="6.1331">
        <ele>686.79998779297</ele>
        <time>2012-03-20T15:50:01.000Z</time>
      </trkpt>
      <trkpt lat="45.49966" lon="6.13308">
        <ele>687.79998779297</ele>
        <time>2012-03-20T15:50:06.000Z</time>
      </trkpt>
      <trkpt lat="45.4995" lon="6.13298">
        <ele>689.40002441406</ele>
        <time>2012-03-20T15:50:15.000Z</time>
      </trkpt>
      <trkpt lat="45.49942" lon="6.13295">
        <ele>687.40002441406</ele>
        <time>2012-03-20T15:50:20.000Z</time>
      </trkpt>
      <trkpt lat="45.49939" lon="6.13293">
        <ele>686.40002441406</ele>
        <time>2012-03-20T15:50:22.000Z</time>
      </trkpt>
      <trkpt lat="45.49931" lon="6.13283">
        <ele>685.40002441406</ele>
        <time>2012-03-20T15:50:28.000Z</time>
      </trkpt>
      <trkpt lat="45.49923" lon="6.13272">
        <ele>688.40002441406</ele>
        <time>2012-03-20T15:50:33.000Z</time>
      </trkpt>
      <trkpt lat="45.49909" lon="6.13261">
        <ele>690.20001220703</ele>
        <time>2012-03-20T15:50:38.000Z</time>
      </trkpt>
      <trkpt lat="45.49895" lon="6.13242">
        <ele>690.79998779297</ele>
        <time>2012-03-20T15:50:43.000Z</time>
      </trkpt>
      <trkpt lat="45.49886" lon="6.13221">
        <ele>692.59997558594</ele>
        <time>2012-03-20T15:50:46.000Z</time>
      </trkpt>
      <trkpt lat="45.49872" lon="6.13164">
        <ele>695</ele>
        <time>2012-03-20T15:50:52.000Z</time>
      </trkpt>
      <trkpt lat="45.49876" lon="6.13131">
        <ele>693.59997558594</ele>
        <time>2012-03-20T15:50:56.000Z</time>
      </trkpt>
      <trkpt lat="45.49864" lon="6.13105">
        <ele>693.59997558594</ele>
        <time>2012-03-20T15:51:00.000Z</time>
      </trkpt>
      <trkpt lat="45.49852" lon="6.13097">
        <ele>693.20001220703</ele>
        <time>2012-03-20T15:51:02.000Z</time>
      </trkpt>
      <trkpt lat="45.4983" lon="6.13072">
        <ele>690.79998779297</ele>
        <time>2012-03-20T15:51:07.000Z</time>
      </trkpt>
      <trkpt lat="45.49805" lon="6.13038">
        <ele>681.20001220703</ele>
        <time>2012-03-20T15:51:13.000Z</time>
      </trkpt>
      <trkpt lat="45.49789" lon="6.13019">
        <ele>676.40002441406</ele>
        <time>2012-03-20T15:51:17.000Z</time>
      </trkpt>
      <trkpt lat="45.4978" lon="6.13009">
        <ele>671</ele>
        <time>2012-03-20T15:51:20.000Z</time>
      </trkpt>
      <trkpt lat="45.4976" lon="6.12992">
        <ele>673.40002441406</ele>
        <time>2012-03-20T15:51:26.000Z</time>
      </trkpt>
      <trkpt lat="45.49751" lon="6.12983">
        <ele>669.20001220703</ele>
        <time>2012-03-20T15:51:30.000Z</time>
      </trkpt>
      <trkpt lat="45.49737" lon="6.12968">
        <ele>664.40002441406</ele>
        <time>2012-03-20T15:51:35.000Z</time>
      </trkpt>
      <trkpt lat="45.49734" lon="6.12969">
        <ele>665.79998779297</ele>
        <time>2012-03-20T15:51:39.000Z</time>
      </trkpt>
      <trkpt lat="45.49731" lon="6.12967">
        <ele>662.40002441406</ele>
        <time>2012-03-20T15:51:44.000Z</time>
      </trkpt>
      <trkpt lat="45.49723" lon="6.12959">
        <ele>663.79998779297</ele>
        <time>2012-03-20T15:51:50.000Z</time>
      </trkpt>
      <trkpt lat="45.49722" lon="6.12953">
        <ele>667.59997558594</ele>
        <time>2012-03-20T15:52:01.000Z</time>
      </trkpt>
      <trkpt lat="45.4972" lon="6.12949">
        <ele>668.59997558594</ele>
        <time>2012-03-20T15:52:06.000Z</time>
      </trkpt>
      <trkpt lat="45.49714" lon="6.12942">
        <ele>668.20001220703</ele>
        <time>2012-03-20T15:52:10.000Z</time>
      </trkpt>
      <trkpt lat="45.49712" lon="6.12938">
        <ele>667.20001220703</ele>
        <time>2012-03-20T15:52:11.000Z</time>
      </trkpt>
      <trkpt lat="45.49702" lon="6.12916">
        <ele>665.20001220703</ele>
        <time>2012-03-20T15:52:16.000Z</time>
      </trkpt>
      <trkpt lat="45.49695" lon="6.12898">
        <ele>666.20001220703</ele>
        <time>2012-03-20T15:52:20.000Z</time>
      </trkpt>
      <trkpt lat="45.49685" lon="6.12866">
        <ele>667.20001220703</ele>
        <time>2012-03-20T15:52:26.000Z</time>
      </trkpt>
      <trkpt lat="45.49682" lon="6.12854">
        <ele>666.79998779297</ele>
        <time>2012-03-20T15:52:28.000Z</time>
      </trkpt>
      <trkpt lat="45.49673" lon="6.12832">
        <ele>664.79998779297</ele>
        <time>2012-03-20T15:52:33.000Z</time>
      </trkpt>
      <trkpt lat="45.49662" lon="6.12814">
        <ele>661</ele>
        <time>2012-03-20T15:52:38.000Z</time>
      </trkpt>
      <trkpt lat="45.49653" lon="6.12795">
        <ele>655.20001220703</ele>
        <time>2012-03-20T15:52:43.000Z</time>
      </trkpt>
      <trkpt lat="45.49643" lon="6.12773">
        <ele>652.20001220703</ele>
        <time>2012-03-20T15:52:48.000Z</time>
      </trkpt>
      <trkpt lat="45.49636" lon="6.12748">
        <ele>645.59997558594</ele>
        <time>2012-03-20T15:52:53.000Z</time>
      </trkpt>
      <trkpt lat="45.49637" lon="6.12726">
        <ele>641.20001220703</ele>
        <time>2012-03-20T15:52:57.000Z</time>
      </trkpt>
      <trkpt lat="45.49637" lon="6.12699">
        <ele>637.79998779297</ele>
        <time>2012-03-20T15:53:03.000Z</time>
      </trkpt>
      <trkpt lat="45.49634" lon="6.12679">
        <ele>630.20001220703</ele>
        <time>2012-03-20T15:53:08.000Z</time>
      </trkpt>
      <trkpt lat="45.49629" lon="6.12664">
        <ele>627.79998779297</ele>
        <time>2012-03-20T15:53:12.000Z</time>
      </trkpt>
      <trkpt lat="45.49628" lon="6.12664">
        <ele>626.40002441406</ele>
        <time>2012-03-20T15:53:15.000Z</time>
      </trkpt>
      <trkpt lat="45.49626" lon="6.1266">
        <ele>624</ele>
        <time>2012-03-20T15:53:23.000Z</time>
      </trkpt>
      <trkpt lat="45.49625" lon="6.12657">
        <ele>623.40002441406</ele>
        <time>2012-03-20T15:53:29.000Z</time>
      </trkpt>
      <trkpt lat="45.49624" lon="6.12638">
        <ele>624</ele>
        <time>2012-03-20T15:53:35.000Z</time>
      </trkpt>
      <trkpt lat="45.4963" lon="6.12619">
        <ele>622</ele>
        <time>2012-03-20T15:53:39.000Z</time>
      </trkpt>
      <trkpt lat="45.49633" lon="6.12616">
        <ele>622</ele>
        <time>2012-03-20T15:53:40.000Z</time>
      </trkpt>
      <trkpt lat="45.4965" lon="6.12607">
        <ele>622</ele>
        <time>2012-03-20T15:53:46.000Z</time>
      </trkpt>
      <trkpt lat="45.4966" lon="6.12602">
        <ele>624.79998779297</ele>
        <time>2012-03-20T15:53:51.000Z</time>
      </trkpt>
      <trkpt lat="45.49673" lon="6.12594">
        <ele>628.20001220703</ele>
        <time>2012-03-20T15:53:57.000Z</time>
      </trkpt>
      <trkpt lat="45.49686" lon="6.12593">
        <ele>629.20001220703</ele>
        <time>2012-03-20T15:54:02.000Z</time>
      </trkpt>
      <trkpt lat="45.49702" lon="6.12606">
        <ele>624.79998779297</ele>
        <time>2012-03-20T15:54:06.000Z</time>
      </trkpt>
      <trkpt lat="45.49724" lon="6.12632">
        <ele>617.59997558594</ele>
        <time>2012-03-20T15:54:10.000Z</time>
      </trkpt>
      <trkpt lat="45.49741" lon="6.12657">
        <ele>613.40002441406</ele>
        <time>2012-03-20T15:54:13.000Z</time>
      </trkpt>
      <trkpt lat="45.49772" lon="6.12664">
        <ele>606.59997558594</ele>
        <time>2012-03-20T15:54:17.000Z</time>
      </trkpt>
      <trkpt lat="45.49778" lon="6.12657">
        <ele>605.59997558594</ele>
        <time>2012-03-20T15:54:18.000Z</time>
      </trkpt>
      <trkpt lat="45.49811" lon="6.12646">
        <ele>597.40002441406</ele>
        <time>2012-03-20T15:54:23.000Z</time>
      </trkpt>
      <trkpt lat="45.49829" lon="6.12666">
        <ele>593.20001220703</ele>
        <time>2012-03-20T15:54:26.000Z</time>
      </trkpt>
      <trkpt lat="45.49856" lon="6.12708">
        <ele>586.40002441406</ele>
        <time>2012-03-20T15:54:31.000Z</time>
      </trkpt>
      <trkpt lat="45.49866" lon="6.12731">
        <ele>580.59997558594</ele>
        <time>2012-03-20T15:54:34.000Z</time>
      </trkpt>
      <trkpt lat="45.4989" lon="6.12746">
        <ele>574.40002441406</ele>
        <time>2012-03-20T15:54:38.000Z</time>
      </trkpt>
      <trkpt lat="45.49904" lon="6.12751">
        <ele>571.59997558594</ele>
        <time>2012-03-20T15:54:40.000Z</time>
      </trkpt>
      <trkpt lat="45.49936" lon="6.12793">
        <ele>562.40002441406</ele>
        <time>2012-03-20T15:54:45.000Z</time>
      </trkpt>
      <trkpt lat="45.49951" lon="6.12818">
        <ele>556.59997558594</ele>
        <time>2012-03-20T15:54:48.000Z</time>
      </trkpt>
      <trkpt lat="45.49978" lon="6.12832">
        <ele>553.79998779297</ele>
        <time>2012-03-20T15:54:52.000Z</time>
      </trkpt>
      <trkpt lat="45.49982" lon="6.12832">
        <ele>555.59997558594</ele>
        <time>2012-03-20T15:54:55.000Z</time>
      </trkpt>
      <trkpt lat="45.49987" lon="6.12846">
        <ele>556.59997558594</ele>
        <time>2012-03-20T15:55:00.000Z</time>
      </trkpt>
      <trkpt lat="45.49996" lon="6.1286">
        <ele>552.79998779297</ele>
        <time>2012-03-20T15:55:04.000Z</time>
      </trkpt>
      <trkpt lat="45.50017" lon="6.12881">
        <ele>550.79998779297</ele>
        <time>2012-03-20T15:55:09.000Z</time>
      </trkpt>
      <trkpt lat="45.50022" lon="6.12885">
        <ele>549.40002441406</ele>
        <time>2012-03-20T15:55:10.000Z</time>
      </trkpt>
      <trkpt lat="45.5005" lon="6.12905">
        <ele>547</ele>
        <time>2012-03-20T15:55:14.000Z</time>
      </trkpt>
      <trkpt lat="45.5007" lon="6.12917">
        <ele>544.20001220703</ele>
        <time>2012-03-20T15:55:17.000Z</time>
      </trkpt>
      <trkpt lat="45.50084" lon="6.12927">
        <ele>543.20001220703</ele>
        <time>2012-03-20T15:55:19.000Z</time>
      </trkpt>
      <trkpt lat="45.50102" lon="6.12945">
        <ele>540.20001220703</ele>
        <time>2012-03-20T15:55:22.000Z</time>
      </trkpt>
      <trkpt lat="45.50128" lon="6.12972">
        <ele>538.79998779297</ele>
        <time>2012-03-20T15:55:26.000Z</time>
      </trkpt>
      <trkpt lat="45.50139" lon="6.12982">
        <ele>537</ele>
        <time>2012-03-20T15:55:28.000Z</time>
      </trkpt>
      <trkpt lat="45.5015" lon="6.12993">
        <ele>534.59997558594</ele>
        <time>2012-03-20T15:55:30.000Z</time>
      </trkpt>
      <trkpt lat="45.5017" lon="6.1302">
        <ele>528.20001220703</ele>
        <time>2012-03-20T15:55:34.000Z</time>
      </trkpt>
      <trkpt lat="45.50192" lon="6.13025">
        <ele>526.79998779297</ele>
        <time>2012-03-20T15:55:38.000Z</time>
      </trkpt>
      <trkpt lat="45.50202" lon="6.13007">
        <ele>525</ele>
        <time>2012-03-20T15:55:42.000Z</time>
      </trkpt>
      <trkpt lat="45.50197" lon="6.12987">
        <ele>523</ele>
        <time>2012-03-20T15:55:45.000Z</time>
      </trkpt>
      <trkpt lat="45.50194" lon="6.1298">
        <ele>521.59997558594</ele>
        <time>2012-03-20T15:55:46.000Z</time>
      </trkpt>
      <trkpt lat="45.50184" lon="6.1296">
        <ele>519.59997558594</ele>
        <time>2012-03-20T15:55:49.000Z</time>
      </trkpt>
      <trkpt lat="45.50167" lon="6.12928">
        <ele>524.40002441406</ele>
        <time>2012-03-20T15:55:54.000Z</time>
      </trkpt>
      <trkpt lat="45.50164" lon="6.12912">
        <ele>527.40002441406</ele>
        <time>2012-03-20T15:55:56.000Z</time>
      </trkpt>
      <trkpt lat="45.50161" lon="6.12889">
        <ele>528.79998779297</ele>
        <time>2012-03-20T15:55:59.000Z</time>
      </trkpt>
      <trkpt lat="45.50153" lon="6.12834">
        <ele>526.79998779297</ele>
        <time>2012-03-20T15:56:05.000Z</time>
      </trkpt>
      <trkpt lat="45.50152" lon="6.12825">
        <ele>525.79998779297</ele>
        <time>2012-03-20T15:56:06.000Z</time>
      </trkpt>
      <trkpt lat="45.50139" lon="6.12777">
        <ele>519.20001220703</ele>
        <time>2012-03-20T15:56:11.000Z</time>
      </trkpt>
      <trkpt lat="45.5013" lon="6.1275">
        <ele>514.79998779297</ele>
        <time>2012-03-20T15:56:14.000Z</time>
      </trkpt>
      <trkpt lat="45.50116" lon="6.12704">
        <ele>507.20001220703</ele>
        <time>2012-03-20T15:56:20.000Z</time>
      </trkpt>
      <trkpt lat="45.50097" lon="6.12655">
        <ele>502.79998779297</ele>
        <time>2012-03-20T15:56:25.000Z</time>
      </trkpt>
      <trkpt lat="45.50082" lon="6.12627">
        <ele>498.39999389648</ele>
        <time>2012-03-20T15:56:28.000Z</time>
      </trkpt>
      <trkpt lat="45.5007" lon="6.12596">
        <ele>493.60000610352</ele>
        <time>2012-03-20T15:56:31.000Z</time>
      </trkpt>
      <trkpt lat="45.50064" lon="6.12576">
        <ele>490.79998779297</ele>
        <time>2012-03-20T15:56:33.000Z</time>
      </trkpt>
      <trkpt lat="45.5005" lon="6.12545">
        <ele>484.60000610352</ele>
        <time>2012-03-20T15:56:36.000Z</time>
      </trkpt>
      <trkpt lat="45.50032" lon="6.12505">
        <ele>478.20001220703</ele>
        <time>2012-03-20T15:56:41.000Z</time>
      </trkpt>
      <trkpt lat="45.50033" lon="6.12501">
        <ele>478.79998779297</ele>
        <time>2012-03-20T15:56:43.000Z</time>
      </trkpt>
      <trkpt lat="45.50034" lon="6.12501">
        <ele>479.20001220703</ele>
        <time>2012-03-20T15:56:44.000Z</time>
      </trkpt>
      <trkpt lat="45.50037" lon="6.12506">
        <ele>477.79998779297</ele>
        <time>2012-03-20T15:56:53.000Z</time>
      </trkpt>
      <trkpt lat="45.50039" lon="6.12512">
        <ele>473</ele>
        <time>2012-03-20T15:57:11.000Z</time>
      </trkpt>
      <trkpt lat="45.50032" lon="6.1251">
        <ele>469.20001220703</ele>
        <time>2012-03-20T15:57:22.000Z</time>
      </trkpt>
      <trkpt lat="45.50032" lon="6.12508">
        <ele>469.20001220703</ele>
        <time>2012-03-20T15:57:24.000Z</time>
      </trkpt>
      <trkpt lat="45.50042" lon="6.12503">
        <ele>468.20001220703</ele>
        <time>2012-03-20T15:57:29.000Z</time>
      </trkpt>
      <trkpt lat="45.50065" lon="6.12511">
        <ele>470.60000610352</ele>
        <time>2012-03-20T15:57:34.000Z</time>
      </trkpt>
      <trkpt lat="45.50077" lon="6.12517">
        <ele>470.20001220703</ele>
        <time>2012-03-20T15:57:36.000Z</time>
      </trkpt>
      <trkpt lat="45.50113" lon="6.12524">
        <ele>470.60000610352</ele>
        <time>2012-03-20T15:57:41.000Z</time>
      </trkpt>
      <trkpt lat="45.50127" lon="6.12527">
        <ele>470.60000610352</ele>
        <time>2012-03-20T15:57:43.000Z</time>
      </trkpt>
      <trkpt lat="45.50152" lon="6.1255">
        <ele>463</ele>
        <time>2012-03-20T15:57:47.000Z</time>
      </trkpt>
      <trkpt lat="45.50179" lon="6.12578">
        <ele>456.20001220703</ele>
        <time>2012-03-20T15:57:51.000Z</time>
      </trkpt>
      <trkpt lat="45.50201" lon="6.12585">
        <ele>453.20001220703</ele>
        <time>2012-03-20T15:57:55.000Z</time>
      </trkpt>
      <trkpt lat="45.50203" lon="6.12581">
        <ele>451.79998779297</ele>
        <time>2012-03-20T15:57:57.000Z</time>
      </trkpt>
      <trkpt lat="45.50204" lon="6.12579">
        <ele>449</ele>
        <time>2012-03-20T15:58:02.000Z</time>
      </trkpt>
      <trkpt lat="45.50201" lon="6.12562">
        <ele>447</ele>
        <time>2012-03-20T15:58:07.000Z</time>
      </trkpt>
      <trkpt lat="45.50188" lon="6.12542">
        <ele>445.60000610352</ele>
        <time>2012-03-20T15:58:12.000Z</time>
      </trkpt>
      <trkpt lat="45.50175" lon="6.12523">
        <ele>443.20001220703</ele>
        <time>2012-03-20T15:58:16.000Z</time>
      </trkpt>
      <trkpt lat="45.50157" lon="6.12493">
        <ele>439.79998779297</ele>
        <time>2012-03-20T15:58:21.000Z</time>
      </trkpt>
      <trkpt lat="45.50153" lon="6.12485">
        <ele>439.39999389648</ele>
        <time>2012-03-20T15:58:22.000Z</time>
      </trkpt>
      <trkpt lat="45.50131" lon="6.12437">
        <ele>437.39999389648</ele>
        <time>2012-03-20T15:58:27.000Z</time>
      </trkpt>
      <trkpt lat="45.50125" lon="6.12428">
        <ele>436.39999389648</ele>
        <time>2012-03-20T15:58:28.000Z</time>
      </trkpt>
      <trkpt lat="45.50088" lon="6.12374">
        <ele>426.39999389648</ele>
        <time>2012-03-20T15:58:34.000Z</time>
      </trkpt>
      <trkpt lat="45.50056" lon="6.12329">
        <ele>417.79998779297</ele>
        <time>2012-03-20T15:58:39.000Z</time>
      </trkpt>
      <trkpt lat="45.50049" lon="6.12319">
        <ele>416.20001220703</ele>
        <time>2012-03-20T15:58:40.000Z</time>
      </trkpt>
      <trkpt lat="45.50027" lon="6.12295">
        <ele>411.39999389648</ele>
        <time>2012-03-20T15:58:43.000Z</time>
      </trkpt>
      <trkpt lat="45.50022" lon="6.12266">
        <ele>408.20001220703</ele>
        <time>2012-03-20T15:58:47.000Z</time>
      </trkpt>
      <trkpt lat="45.50025" lon="6.12255">
        <ele>407.60000610352</ele>
        <time>2012-03-20T15:58:49.000Z</time>
      </trkpt>
      <trkpt lat="45.50029" lon="6.12217">
        <ele>405.20001220703</ele>
        <time>2012-03-20T15:58:54.000Z</time>
      </trkpt>
      <trkpt lat="45.5002" lon="6.12185">
        <ele>403.79998779297</ele>
        <time>2012-03-20T15:58:58.000Z</time>
      </trkpt>
      <trkpt lat="45.50023" lon="6.12145">
        <ele>402.39999389648</ele>
        <time>2012-03-20T15:59:02.000Z</time>
      </trkpt>
      <trkpt lat="45.50032" lon="6.12113">
        <ele>401</ele>
        <time>2012-03-20T15:59:05.000Z</time>
      </trkpt>
      <trkpt lat="45.50034" lon="6.12075">
        <ele>398.60000610352</ele>
        <time>2012-03-20T15:59:09.000Z</time>
      </trkpt>
      <trkpt lat="45.50042" lon="6.12065">
        <ele>396.60000610352</ele>
        <time>2012-03-20T15:59:13.000Z</time>
      </trkpt>
      <trkpt lat="45.50048" lon="6.12068">
        <ele>397</ele>
        <time>2012-03-20T15:59:15.000Z</time>
      </trkpt>
      <trkpt lat="45.50077" lon="6.12089">
        <ele>393.60000610352</ele>
        <time>2012-03-20T15:59:22.000Z</time>
      </trkpt>
      <trkpt lat="45.50108" lon="6.12112">
        <ele>392.79998779297</ele>
        <time>2012-03-20T15:59:28.000Z</time>
      </trkpt>
      <trkpt lat="45.50138" lon="6.12136">
        <ele>392.20001220703</ele>
        <time>2012-03-20T15:59:34.000Z</time>
      </trkpt>
      <trkpt lat="45.50176" lon="6.12164">
        <ele>393.20001220703</ele>
        <time>2012-03-20T15:59:41.000Z</time>
      </trkpt>
      <trkpt lat="45.50207" lon="6.12193">
        <ele>394.60000610352</ele>
        <time>2012-03-20T15:59:48.000Z</time>
      </trkpt>
      <trkpt lat="45.50229" lon="6.12225">
        <ele>395.20001220703</ele>
        <time>2012-03-20T15:59:55.000Z</time>
      </trkpt>
      <trkpt lat="45.50245" lon="6.1226">
        <ele>395.60000610352</ele>
        <time>2012-03-20T16:00:03.000Z</time>
      </trkpt>
      <trkpt lat="45.50259" lon="6.12288">
        <ele>396.20001220703</ele>
        <time>2012-03-20T16:00:11.000Z</time>
      </trkpt>
      <trkpt lat="45.50261" lon="6.12293">
        <ele>396.60000610352</ele>
        <time>2012-03-20T16:00:14.000Z</time>
      </trkpt>
      <trkpt lat="45.50265" lon="6.12299">
        <ele>397</ele>
        <time>2012-03-20T16:00:18.000Z</time>
      </trkpt>
      <trkpt lat="45.50278" lon="6.12311">
        <ele>398.60000610352</ele>
        <time>2012-03-20T16:00:26.000Z</time>
      </trkpt>
      <trkpt lat="45.50291" lon="6.12323">
        <ele>400</ele>
        <time>2012-03-20T16:00:33.000Z</time>
      </trkpt>
      <trkpt lat="45.50306" lon="6.12339">
        <ele>401.39999389648</ele>
        <time>2012-03-20T16:00:40.000Z</time>
      </trkpt>
      <trkpt lat="45.50323" lon="6.12355">
        <ele>404.79998779297</ele>
        <time>2012-03-20T16:00:48.000Z</time>
      </trkpt>
      <trkpt lat="45.50338" lon="6.12371">
        <ele>407.60000610352</ele>
        <time>2012-03-20T16:00:55.000Z</time>
      </trkpt>
      <trkpt lat="45.50347" lon="6.12382">
        <ele>410</ele>
        <time>2012-03-20T16:01:00.000Z</time>
      </trkpt>
      <trkpt lat="45.50354" lon="6.12392">
        <ele>410.60000610352</ele>
        <time>2012-03-20T16:01:05.000Z</time>
      </trkpt>
      <trkpt lat="45.50358" lon="6.12397">
        <ele>412</ele>
        <time>2012-03-20T16:01:09.000Z</time>
      </trkpt>
      <trkpt lat="45.50356" lon="6.12394">
        <ele>415.79998779297</ele>
        <time>2012-03-20T16:01:14.000Z</time>
      </trkpt>
      <trkpt lat="45.50354" lon="6.12389">
        <ele>415.39999389648</ele>
        <time>2012-03-20T16:01:17.000Z</time>
      </trkpt>
      <trkpt lat="45.50342" lon="6.12371">
        <ele>417.20001220703</ele>
        <time>2012-03-20T16:01:21.000Z</time>
      </trkpt>
      <trkpt lat="45.50322" lon="6.12349">
        <ele>414.39999389648</ele>
        <time>2012-03-20T16:01:24.000Z</time>
      </trkpt>
      <trkpt lat="45.50279" lon="6.12306">
        <ele>406.20001220703</ele>
        <time>2012-03-20T16:01:30.000Z</time>
      </trkpt>
      <trkpt lat="45.50266" lon="6.12295">
        <ele>403.39999389648</ele>
        <time>2012-03-20T16:01:33.000Z</time>
      </trkpt>
      <trkpt lat="45.5026" lon="6.12301">
        <ele>401.39999389648</ele>
        <time>2012-03-20T16:01:37.000Z</time>
      </trkpt>
      <trkpt lat="45.50263" lon="6.12326">
        <ele>402.39999389648</ele>
        <time>2012-03-20T16:01:44.000Z</time>
      </trkpt>
      <trkpt lat="45.50269" lon="6.12353">
        <ele>402.79998779297</ele>
        <time>2012-03-20T16:01:50.000Z</time>
      </trkpt>
      <trkpt lat="45.50277" lon="6.12387">
        <ele>404.79998779297</ele>
        <time>2012-03-20T16:01:57.000Z</time>
      </trkpt>
      <trkpt lat="45.5029" lon="6.12426">
        <ele>405.79998779297</ele>
        <time>2012-03-20T16:02:06.000Z</time>
      </trkpt>
      <trkpt lat="45.50299" lon="6.1245">
        <ele>406.20001220703</ele>
        <time>2012-03-20T16:02:12.000Z</time>
      </trkpt>
      <trkpt lat="45.5031" lon="6.1248">
        <ele>406.60000610352</ele>
        <time>2012-03-20T16:02:19.000Z</time>
      </trkpt>
      <trkpt lat="45.50326" lon="6.12513">
        <ele>407.20001220703</ele>
        <time>2012-03-20T16:02:26.000Z</time>
      </trkpt>
      <trkpt lat="45.5035" lon="6.12547">
        <ele>407.60000610352</ele>
        <time>2012-03-20T16:02:33.000Z</time>
      </trkpt>
      <trkpt lat="45.50369" lon="6.12573">
        <ele>408.20001220703</ele>
        <time>2012-03-20T16:02:40.000Z</time>
      </trkpt>
      <trkpt lat="45.50389" lon="6.12604">
        <ele>408.20001220703</ele>
        <time>2012-03-20T16:02:48.000Z</time>
      </trkpt>
      <trkpt lat="45.50398" lon="6.12622">
        <ele>408.60000610352</ele>
        <time>2012-03-20T16:02:54.000Z</time>
      </trkpt>
      <trkpt lat="45.50404" lon="6.12637">
        <ele>409</ele>
        <time>2012-03-20T16:03:01.000Z</time>
      </trkpt>
      <trkpt lat="45.50408" lon="6.12645">
        <ele>409</ele>
        <time>2012-03-20T16:03:05.000Z</time>
      </trkpt>
      <trkpt lat="45.50408" lon="6.12649">
        <ele>409.60000610352</ele>
        <time>2012-03-20T16:03:12.000Z</time>
      </trkpt>
      <trkpt lat="45.50409" lon="6.12649">
        <ele>410</ele>
        <time>2012-03-20T16:03:24.000Z</time>
      </trkpt>
      <trkpt lat="45.5041" lon="6.12653">
        <ele>410.60000610352</ele>
        <time>2012-03-20T16:03:40.000Z</time>
      </trkpt>
      <trkpt lat="45.50414" lon="6.12665">
        <ele>411</ele>
        <time>2012-03-20T16:03:46.000Z</time>
      </trkpt>
      <trkpt lat="45.50415" lon="6.12667">
        <ele>411</ele>
        <time>2012-03-20T16:03:47.000Z</time>
      </trkpt>
      <trkpt lat="45.50423" lon="6.12688">
        <ele>411.39999389648</ele>
        <time>2012-03-20T16:03:55.000Z</time>
      </trkpt>
      <trkpt lat="45.50424" lon="6.12689">
        <ele>411.39999389648</ele>
        <time>2012-03-20T16:04:01.000Z</time>
      </trkpt>
      <trkpt lat="45.50424" lon="6.1269">
        <ele>412</ele>
        <time>2012-03-20T16:04:18.000Z</time>
      </trkpt>
      <trkpt lat="45.5042" lon="6.12679">
        <ele>411.39999389648</ele>
        <time>2012-03-20T16:04:22.000Z</time>
      </trkpt>
      <trkpt lat="45.50411" lon="6.12652">
        <ele>410.60000610352</ele>
        <time>2012-03-20T16:04:27.000Z</time>
      </trkpt>
      <trkpt lat="45.50421" lon="6.12635">
        <ele>409.60000610352</ele>
        <time>2012-03-20T16:04:31.000Z</time>
      </trkpt>
      <trkpt lat="45.50448" lon="6.12599">
        <ele>409</ele>
        <time>2012-03-20T16:04:41.000Z</time>
      </trkpt>
      <trkpt lat="45.50466" lon="6.12575">
        <ele>408.20001220703</ele>
        <time>2012-03-20T16:04:48.000Z</time>
      </trkpt>
      <trkpt lat="45.5048" lon="6.12555">
        <ele>407.60000610352</ele>
        <time>2012-03-20T16:04:54.000Z</time>
      </trkpt>
      <trkpt lat="45.50495" lon="6.12532">
        <ele>407.20001220703</ele>
        <time>2012-03-20T16:04:59.000Z</time>
      </trkpt>
      <trkpt lat="45.505" lon="6.12526">
        <ele>406.60000610352</ele>
        <time>2012-03-20T16:05:01.000Z</time>
      </trkpt>
      <trkpt lat="45.50509" lon="6.12525">
        <ele>406.20001220703</ele>
        <time>2012-03-20T16:05:06.000Z</time>
      </trkpt>
      <trkpt lat="45.50509" lon="6.12526">
        <ele>404.79998779297</ele>
        <time>2012-03-20T16:05:15.000Z</time>
      </trkpt>
      <trkpt lat="45.50511" lon="6.12525">
        <ele>399.39999389648</ele>
        <time>2012-03-20T16:05:51.000Z</time>
      </trkpt>
      <trkpt lat="45.50511" lon="6.12526">
        <ele>400.39999389648</ele>
        <time>2012-03-20T16:06:07.000Z</time>
      </trkpt>
      <trkpt lat="45.50511" lon="6.12525">
        <ele>401</ele>
        <time>2012-03-20T16:06:15.000Z</time>
      </trkpt>
      <trkpt lat="45.50512" lon="6.12526">
        <ele>401.39999389648</ele>
        <time>2012-03-20T16:06:23.000Z</time>
      </trkpt>
      <trkpt lat="45.50512" lon="6.12525">
        <ele>402.39999389648</ele>
        <time>2012-03-20T16:06:44.000Z</time>
      </trkpt>
      <trkpt lat="45.50519" lon="6.12511">
        <ele>400</ele>
        <time>2012-03-20T16:06:50.000Z</time>
      </trkpt>
      <trkpt lat="45.50524" lon="6.12499">
        <ele>396.60000610352</ele>
        <time>2012-03-20T16:06:56.000Z</time>
      </trkpt>
      <trkpt lat="45.50525" lon="6.12498">
        <ele>395.60000610352</ele>
        <time>2012-03-20T16:06:57.000Z</time>
      </trkpt>
      <trkpt lat="45.50526" lon="6.12495">
        <ele>394.60000610352</ele>
        <time>2012-03-20T16:07:03.000Z</time>
      </trkpt>
      <trkpt lat="45.50527" lon="6.12493">
        <ele>398</ele>
        <time>2012-03-20T16:07:11.000Z</time>
      </trkpt>
      <trkpt lat="45.5053" lon="6.12492">
        <ele>396.20001220703</ele>
        <time>2012-03-20T16:07:19.000Z</time>
      </trkpt>
      <trkpt lat="45.50532" lon="6.12492">
        <ele>392.79998779297</ele>
        <time>2012-03-20T16:07:26.000Z</time>
      </trkpt>
      <trkpt lat="45.50534" lon="6.12491">
        <ele>390.79998779297</ele>
        <time>2012-03-20T16:07:34.000Z</time>
      </trkpt>
      <trkpt lat="45.50535" lon="6.1249">
        <ele>389.79998779297</ele>
        <time>2012-03-20T16:07:40.000Z</time>
      </trkpt>
      <trkpt lat="45.50538" lon="6.12485">
        <ele>387.39999389648</ele>
        <time>2012-03-20T16:07:46.000Z</time>
      </trkpt>
      <trkpt lat="45.50539" lon="6.12484">
        <ele>384</ele>
        <time>2012-03-20T16:07:53.000Z</time>
      </trkpt>
      <trkpt lat="45.5054" lon="6.12483">
        <ele>386</ele>
        <time>2012-03-20T16:08:00.000Z</time>
      </trkpt>
      <trkpt lat="45.50542" lon="6.1248">
        <ele>389.79998779297</ele>
        <time>2012-03-20T16:08:07.000Z</time>
      </trkpt>
      <trkpt lat="45.50542" lon="6.1248">
        <ele>390.39999389648</ele>
        <time>2012-03-20T16:08:18.000Z</time>
      </trkpt>
      <trkpt lat="45.50544" lon="6.12477">
        <ele>392.20001220703</ele>
        <time>2012-03-20T16:08:24.000Z</time>
      </trkpt>
      <trkpt lat="45.50548" lon="6.12477">
        <ele>391.20001220703</ele>
        <time>2012-03-20T16:08:26.000Z</time>
      </trkpt>
      <trkpt lat="45.50552" lon="6.12477">
        <ele>391.79998779297</ele>
        <time>2012-03-20T16:08:31.000Z</time>
      </trkpt>
      <trkpt lat="45.50554" lon="6.12481">
        <ele>391.20001220703</ele>
        <time>2012-03-20T16:08:37.000Z</time>
      </trkpt>
      <trkpt lat="45.50556" lon="6.12481">
        <ele>391.20001220703</ele>
        <time>2012-03-20T16:08:41.000Z</time>
      </trkpt>
      <trkpt lat="45.50559" lon="6.12481">
        <ele>388</ele>
        <time>2012-03-20T16:08:47.000Z</time>
      </trkpt>
      <trkpt lat="45.50559" lon="6.12487">
        <ele>373</ele>
        <time>2012-03-20T16:08:58.000Z</time>
      </trkpt>
      <trkpt lat="45.5056" lon="6.12488">
        <ele>370.60000610352</ele>
        <time>2012-03-20T16:09:06.000Z</time>
      </trkpt>
      <trkpt lat="45.50565" lon="6.12488">
        <ele>376.39999389648</ele>
        <time>2012-03-20T16:09:19.000Z</time>
      </trkpt>
      <trkpt lat="45.50569" lon="6.12489">
        <ele>378.79998779297</ele>
        <time>2012-03-20T16:09:25.000Z</time>
      </trkpt>
      <trkpt lat="45.50573" lon="6.1249">
        <ele>379.79998779297</ele>
        <time>2012-03-20T16:09:31.000Z</time>
      </trkpt>
      <trkpt lat="45.50576" lon="6.12488">
        <ele>379.79998779297</ele>
        <time>2012-03-20T16:09:37.000Z</time>
      </trkpt>
      <trkpt lat="45.5058" lon="6.12487">
        <ele>381.60000610352</ele>
        <time>2012-03-20T16:09:44.000Z</time>
      </trkpt>
      <trkpt lat="45.50583" lon="6.12485">
        <ele>379.20001220703</ele>
        <time>2012-03-20T16:09:54.000Z</time>
      </trkpt>
      <trkpt lat="45.50584" lon="6.12485">
        <ele>378.79998779297</ele>
        <time>2012-03-20T16:09:59.000Z</time>
      </trkpt>
      <trkpt lat="45.50588" lon="6.12485">
        <ele>377.79998779297</ele>
        <time>2012-03-20T16:10:06.000Z</time>
      </trkpt>
      <trkpt lat="45.50592" lon="6.12484">
        <ele>378.39999389648</ele>
        <time>2012-03-20T16:10:17.000Z</time>
      </trkpt>
      <trkpt lat="45.50596" lon="6.12487">
        <ele>376.79998779297</ele>
        <time>2012-03-20T16:10:23.000Z</time>
      </trkpt>
      <trkpt lat="45.50608" lon="6.12489">
        <ele>373.60000610352</ele>
        <time>2012-03-20T16:10:27.000Z</time>
      </trkpt>
      <trkpt lat="45.50631" lon="6.12486">
        <ele>363.79998779297</ele>
        <time>2012-03-20T16:10:31.000Z</time>
      </trkpt>
      <trkpt lat="45.50643" lon="6.12471">
        <ele>359</ele>
        <time>2012-03-20T16:10:35.000Z</time>
      </trkpt>
      <trkpt lat="45.5067" lon="6.12446">
        <ele>356.60000610352</ele>
        <time>2012-03-20T16:10:42.000Z</time>
      </trkpt>
      <trkpt lat="45.50684" lon="6.12443">
        <ele>355.79998779297</ele>
        <time>2012-03-20T16:10:46.000Z</time>
      </trkpt>
      <trkpt lat="45.5069" lon="6.12449">
        <ele>355.79998779297</ele>
        <time>2012-03-20T16:10:48.000Z</time>
      </trkpt>
      <trkpt lat="45.50716" lon="6.12475">
        <ele>354.79998779297</ele>
        <time>2012-03-20T16:10:55.000Z</time>
      </trkpt>
      <trkpt lat="45.50733" lon="6.12491">
        <ele>354.79998779297</ele>
        <time>2012-03-20T16:10:59.000Z</time>
      </trkpt>
      <trkpt lat="45.50756" lon="6.12519">
        <ele>353.39999389648</ele>
        <time>2012-03-20T16:11:05.000Z</time>
      </trkpt>
      <trkpt lat="45.50793" lon="6.12563">
        <ele>352.39999389648</ele>
        <time>2012-03-20T16:11:14.000Z</time>
      </trkpt>
      <trkpt lat="45.50802" lon="6.12576">
        <ele>352.79998779297</ele>
        <time>2012-03-20T16:11:17.000Z</time>
      </trkpt>
      <trkpt lat="45.50816" lon="6.12593">
        <ele>353.79998779297</ele>
        <time>2012-03-20T16:11:21.000Z</time>
      </trkpt>
      <trkpt lat="45.50829" lon="6.12609">
        <ele>353.79998779297</ele>
        <time>2012-03-20T16:11:25.000Z</time>
      </trkpt>
      <trkpt lat="45.50845" lon="6.12631">
        <ele>353.39999389648</ele>
        <time>2012-03-20T16:11:30.000Z</time>
      </trkpt>
      <trkpt lat="45.50868" lon="6.12662">
        <ele>352.39999389648</ele>
        <time>2012-03-20T16:11:39.000Z</time>
      </trkpt>
      <trkpt lat="45.50887" lon="6.12684">
        <ele>350</ele>
        <time>2012-03-20T16:11:44.000Z</time>
      </trkpt>
      <trkpt lat="45.50911" lon="6.12714">
        <ele>346.20001220703</ele>
        <time>2012-03-20T16:11:49.000Z</time>
      </trkpt>
      <trkpt lat="45.50935" lon="6.12724">
        <ele>343.20001220703</ele>
        <time>2012-03-20T16:11:53.000Z</time>
      </trkpt>
      <trkpt lat="45.5094" lon="6.1272">
        <ele>343.20001220703</ele>
        <time>2012-03-20T16:11:55.000Z</time>
      </trkpt>
      <trkpt lat="45.50941" lon="6.1272">
        <ele>344.20001220703</ele>
        <time>2012-03-20T16:11:58.000Z</time>
      </trkpt>
      <trkpt lat="45.50938" lon="6.12721">
        <ele>344.60000610352</ele>
        <time>2012-03-20T16:12:01.000Z</time>
      </trkpt>
      <trkpt lat="45.50931" lon="6.12723">
        <ele>345.20001220703</ele>
        <time>2012-03-20T16:12:06.000Z</time>
      </trkpt>
      <trkpt lat="45.50931" lon="6.1273">
        <ele>345.60000610352</ele>
        <time>2012-03-20T16:12:11.000Z</time>
      </trkpt>
      <trkpt lat="45.50936" lon="6.12739">
        <ele>345.60000610352</ele>
        <time>2012-03-20T16:12:15.000Z</time>
      </trkpt>
      <trkpt lat="45.50937" lon="6.12746">
        <ele>344.60000610352</ele>
        <time>2012-03-20T16:12:21.000Z</time>
      </trkpt>
      <trkpt lat="45.50938" lon="6.12752">
        <ele>337</ele>
        <time>2012-03-20T16:12:34.000Z</time>
      </trkpt>
      <trkpt lat="45.50935" lon="6.12755">
        <ele>333.20001220703</ele>
        <time>2012-03-20T16:12:48.000Z</time>
      </trkpt>
      <trkpt lat="45.50933" lon="6.12754">
        <ele>335.60000610352</ele>
        <time>2012-03-20T16:12:55.000Z</time>
      </trkpt>
      <trkpt lat="45.50936" lon="6.12755">
        <ele>326</ele>
        <time>2012-03-20T16:13:38.000Z</time>
      </trkpt>
      <trkpt lat="45.50935" lon="6.12745">
        <ele>335</ele>
        <time>2012-03-20T16:13:43.000Z</time>
      </trkpt>
      <trkpt lat="45.50933" lon="6.1274">
        <ele>338</ele>
        <time>2012-03-20T16:13:48.000Z</time>
      </trkpt>
      <trkpt lat="45.5093" lon="6.12736">
        <ele>337</ele>
        <time>2012-03-20T16:13:51.000Z</time>
      </trkpt>
      <trkpt lat="45.50928" lon="6.12726">
        <ele>339</ele>
        <time>2012-03-20T16:13:56.000Z</time>
      </trkpt>
      <trkpt lat="45.50935" lon="6.12722">
        <ele>339.79998779297</ele>
        <time>2012-03-20T16:13:59.000Z</time>
      </trkpt>
      <trkpt lat="45.50953" lon="6.12717">
        <ele>339.39999389648</ele>
        <time>2012-03-20T16:14:04.000Z</time>
      </trkpt>
      <trkpt lat="45.50973" lon="6.12717">
        <ele>339.39999389648</ele>
        <time>2012-03-20T16:14:07.000Z</time>
      </trkpt>
      <trkpt lat="45.5102" lon="6.12709">
        <ele>342.20001220703</ele>
        <time>2012-03-20T16:14:12.000Z</time>
      </trkpt>
      <trkpt lat="45.51045" lon="6.12701">
        <ele>340.79998779297</ele>
        <time>2012-03-20T16:14:15.000Z</time>
      </trkpt>
      <trkpt lat="45.51073" lon="6.12679">
        <ele>339</ele>
        <time>2012-03-20T16:14:20.000Z</time>
      </trkpt>
      <trkpt lat="45.51081" lon="6.12689">
        <ele>338</ele>
        <time>2012-03-20T16:14:23.000Z</time>
      </trkpt>
      <trkpt lat="45.51079" lon="6.12708">
        <ele>334</ele>
        <time>2012-03-20T16:14:26.000Z</time>
      </trkpt>
      <trkpt lat="45.51064" lon="6.12716">
        <ele>326.79998779297</ele>
        <time>2012-03-20T16:14:27.000Z</time>
      </trkpt>
      <trkpt lat="45.51045" lon="6.12742">
        <ele>320.20001220703</ele>
        <time>2012-03-20T16:14:30.000Z</time>
      </trkpt>
      <trkpt lat="45.51026" lon="6.12755">
        <ele>314.39999389648</ele>
        <time>2012-03-20T16:14:34.000Z</time>
      </trkpt>
      <trkpt lat="45.51029" lon="6.12755">
        <ele>314.39999389648</ele>
        <time>2012-03-20T16:14:37.000Z</time>
      </trkpt>
      <trkpt lat="45.51032" lon="6.12752">
        <ele>317.20001220703</ele>
        <time>2012-03-20T16:14:43.000Z</time>
      </trkpt>
      <trkpt lat="45.51042" lon="6.12751">
        <ele>314</ele>
        <time>2012-03-20T16:14:48.000Z</time>
      </trkpt>
      <trkpt lat="45.51059" lon="6.12748">
        <ele>316.39999389648</ele>
        <time>2012-03-20T16:14:51.000Z</time>
      </trkpt>
      <trkpt lat="45.51086" lon="6.12734">
        <ele>317.20001220703</ele>
        <time>2012-03-20T16:14:56.000Z</time>
      </trkpt>
      <trkpt lat="45.51099" lon="6.12722">
        <ele>318.79998779297</ele>
        <time>2012-03-20T16:14:58.000Z</time>
      </trkpt>
      <trkpt lat="45.51107" lon="6.12705">
        <ele>321.60000610352</ele>
        <time>2012-03-20T16:15:00.000Z</time>
      </trkpt>
      <trkpt lat="45.51116" lon="6.12666">
        <ele>328.79998779297</ele>
        <time>2012-03-20T16:15:05.000Z</time>
      </trkpt>
      <trkpt lat="45.51116" lon="6.12659">
        <ele>328.39999389648</ele>
        <time>2012-03-20T16:15:06.000Z</time>
      </trkpt>
      <trkpt lat="45.51117" lon="6.12649">
        <ele>329.20001220703</ele>
        <time>2012-03-20T16:15:08.000Z</time>
      </trkpt>
      <trkpt lat="45.51117" lon="6.12622">
        <ele>329.20001220703</ele>
        <time>2012-03-20T16:15:14.000Z</time>
      </trkpt>
      <trkpt lat="45.51106" lon="6.12599">
        <ele>325</ele>
        <time>2012-03-20T16:15:19.000Z</time>
      </trkpt>
      <trkpt lat="45.51099" lon="6.12577">
        <ele>316.39999389648</ele>
        <time>2012-03-20T16:15:23.000Z</time>
      </trkpt>
      <trkpt lat="45.51103" lon="6.12575">
        <ele>310.60000610352</ele>
        <time>2012-03-20T16:15:26.000Z</time>
      </trkpt>
      <trkpt lat="45.5112" lon="6.1258">
        <ele>303.79998779297</ele>
        <time>2012-03-20T16:15:30.000Z</time>
      </trkpt>
      <trkpt lat="45.51145" lon="6.12609">
        <ele>296.20001220703</ele>
        <time>2012-03-20T16:15:34.000Z</time>
      </trkpt>
      <trkpt lat="45.51165" lon="6.12623">
        <ele>286</ele>
        <time>2012-03-20T16:15:39.000Z</time>
      </trkpt>
      <trkpt lat="45.5119" lon="6.1261">
        <ele>279.39999389648</ele>
        <time>2012-03-20T16:15:44.000Z</time>
      </trkpt>
      <trkpt lat="45.51205" lon="6.12603">
        <ele>280.20001220703</ele>
        <time>2012-03-20T16:15:49.000Z</time>
      </trkpt>
      <trkpt lat="45.51204" lon="6.12606">
        <ele>280.79998779297</ele>
        <time>2012-03-20T16:15:53.000Z</time>
      </trkpt>
      <trkpt lat="45.51204" lon="6.12607">
        <ele>280.20001220703</ele>
        <time>2012-03-20T16:16:06.000Z</time>
      </trkpt>
      <trkpt lat="45.51204" lon="6.12612">
        <ele>280.20001220703</ele>
        <time>2012-03-20T16:16:10.000Z</time>
      </trkpt>
      <trkpt lat="45.51215" lon="6.12634">
        <ele>281.79998779297</ele>
        <time>2012-03-20T16:16:18.000Z</time>
      </trkpt>
      <trkpt lat="45.51229" lon="6.1265">
        <ele>284.20001220703</ele>
        <time>2012-03-20T16:16:24.000Z</time>
      </trkpt>
      <trkpt lat="45.51242" lon="6.12667">
        <ele>285</ele>
        <time>2012-03-20T16:16:30.000Z</time>
      </trkpt>
      <trkpt lat="45.51259" lon="6.12686">
        <ele>287</ele>
        <time>2012-03-20T16:16:37.000Z</time>
      </trkpt>
      <trkpt lat="45.51277" lon="6.12709">
        <ele>288</ele>
        <time>2012-03-20T16:16:44.000Z</time>
      </trkpt>
      <trkpt lat="45.51299" lon="6.12733">
        <ele>290.39999389648</ele>
        <time>2012-03-20T16:16:52.000Z</time>
      </trkpt>
      <trkpt lat="45.51316" lon="6.12751">
        <ele>293.20001220703</ele>
        <time>2012-03-20T16:16:58.000Z</time>
      </trkpt>
      <trkpt lat="45.5133" lon="6.12768">
        <ele>294.60000610352</ele>
        <time>2012-03-20T16:17:03.000Z</time>
      </trkpt>
      <trkpt lat="45.51348" lon="6.1279">
        <ele>297.60000610352</ele>
        <time>2012-03-20T16:17:10.000Z</time>
      </trkpt>
      <trkpt lat="45.51366" lon="6.12809">
        <ele>298.60000610352</ele>
        <time>2012-03-20T16:17:16.000Z</time>
      </trkpt>
      <trkpt lat="45.51399" lon="6.12839">
        <ele>301.39999389648</ele>
        <time>2012-03-20T16:17:26.000Z</time>
      </trkpt>
      <trkpt lat="45.51412" lon="6.12857">
        <ele>303.39999389648</ele>
        <time>2012-03-20T16:17:31.000Z</time>
      </trkpt>
      <trkpt lat="45.5142" lon="6.12869">
        <ele>304.20001220703</ele>
        <time>2012-03-20T16:17:36.000Z</time>
      </trkpt>
      <trkpt lat="45.51428" lon="6.12884">
        <ele>302.79998779297</ele>
        <time>2012-03-20T16:17:41.000Z</time>
      </trkpt>
      <trkpt lat="45.51445" lon="6.12889">
        <ele>301</ele>
        <time>2012-03-20T16:17:44.000Z</time>
      </trkpt>
      <trkpt lat="45.51457" lon="6.12887">
        <ele>300</ele>
        <time>2012-03-20T16:17:46.000Z</time>
      </trkpt>
      <trkpt lat="45.51481" lon="6.129">
        <ele>298</ele>
        <time>2012-03-20T16:17:51.000Z</time>
      </trkpt>
      <trkpt lat="45.5149" lon="6.12907">
        <ele>296.60000610352</ele>
        <time>2012-03-20T16:17:54.000Z</time>
      </trkpt>
      <trkpt lat="45.51512" lon="6.12928">
        <ele>294.60000610352</ele>
        <time>2012-03-20T16:18:01.000Z</time>
      </trkpt>
      <trkpt lat="45.5153" lon="6.12947">
        <ele>292.79998779297</ele>
        <time>2012-03-20T16:18:06.000Z</time>
      </trkpt>
      <trkpt lat="45.51539" lon="6.12958">
        <ele>291.39999389648</ele>
        <time>2012-03-20T16:18:09.000Z</time>
      </trkpt>
      <trkpt lat="45.51554" lon="6.12979">
        <ele>290.39999389648</ele>
        <time>2012-03-20T16:18:15.000Z</time>
      </trkpt>
      <trkpt lat="45.51565" lon="6.12989">
        <ele>289.39999389648</ele>
        <time>2012-03-20T16:18:19.000Z</time>
      </trkpt>
      <trkpt lat="45.51582" lon="6.12998">
        <ele>293.79998779297</ele>
        <time>2012-03-20T16:18:23.000Z</time>
      </trkpt>
      <trkpt lat="45.51595" lon="6.13009">
        <ele>295.20001220703</ele>
        <time>2012-03-20T16:18:28.000Z</time>
      </trkpt>
      <trkpt lat="45.51607" lon="6.1302">
        <ele>294.60000610352</ele>
        <time>2012-03-20T16:18:33.000Z</time>
      </trkpt>
      <trkpt lat="45.5161" lon="6.13022">
        <ele>295.20001220703</ele>
        <time>2012-03-20T16:18:37.000Z</time>
      </trkpt>
      <trkpt lat="45.51614" lon="6.13023">
        <ele>297</ele>
        <time>2012-03-20T16:18:44.000Z</time>
      </trkpt>
      <trkpt lat="45.51614" lon="6.13025">
        <ele>294.60000610352</ele>
        <time>2012-03-20T16:18:49.000Z</time>
      </trkpt>
      <trkpt lat="45.51614" lon="6.13024">
        <ele>297</ele>
        <time>2012-03-20T16:18:57.000Z</time>
      </trkpt>
      <trkpt lat="45.51618" lon="6.13026">
        <ele>296.20001220703</ele>
        <time>2012-03-20T16:19:06.000Z</time>
      </trkpt>
      <trkpt lat="45.5162" lon="6.13031">
        <ele>297.60000610352</ele>
        <time>2012-03-20T16:19:12.000Z</time>
      </trkpt>
      <trkpt lat="45.51622" lon="6.13035">
        <ele>299.39999389648</ele>
        <time>2012-03-20T16:19:17.000Z</time>
      </trkpt>
      <trkpt lat="45.51625" lon="6.13038">
        <ele>300.39999389648</ele>
        <time>2012-03-20T16:19:21.000Z</time>
      </trkpt>
      <trkpt lat="45.5163" lon="6.13044">
        <ele>299.39999389648</ele>
        <time>2012-03-20T16:19:25.000Z</time>
      </trkpt>
      <trkpt lat="45.51634" lon="6.13048">
        <ele>299.39999389648</ele>
        <time>2012-03-20T16:19:29.000Z</time>
      </trkpt>
      <trkpt lat="45.51642" lon="6.13057">
        <ele>298.60000610352</ele>
        <time>2012-03-20T16:19:36.000Z</time>
      </trkpt>
      <trkpt lat="45.51651" lon="6.13069">
        <ele>296.60000610352</ele>
        <time>2012-03-20T16:19:41.000Z</time>
      </trkpt>
      <trkpt lat="45.51658" lon="6.13079">
        <ele>296.60000610352</ele>
        <time>2012-03-20T16:19:45.000Z</time>
      </trkpt>
      <trkpt lat="45.51665" lon="6.13083">
        <ele>295.60000610352</ele>
        <time>2012-03-20T16:19:50.000Z</time>
      </trkpt>
      <trkpt lat="45.51669" lon="6.13086">
        <ele>294.20001220703</ele>
        <time>2012-03-20T16:19:56.000Z</time>
      </trkpt>
      <trkpt lat="45.51673" lon="6.13088">
        <ele>296.20001220703</ele>
        <time>2012-03-20T16:20:00.000Z</time>
      </trkpt>
      <trkpt lat="45.51677" lon="6.13091">
        <ele>297.60000610352</ele>
        <time>2012-03-20T16:20:04.000Z</time>
      </trkpt>
      <trkpt lat="45.51685" lon="6.13097">
        <ele>294.20001220703</ele>
        <time>2012-03-20T16:20:11.000Z</time>
      </trkpt>
      <trkpt lat="45.51692" lon="6.13099">
        <ele>296.20001220703</ele>
        <time>2012-03-20T16:20:21.000Z</time>
      </trkpt>
      <trkpt lat="45.51695" lon="6.13101">
        <ele>293.20001220703</ele>
        <time>2012-03-20T16:20:37.000Z</time>
      </trkpt>
      <trkpt lat="45.51698" lon="6.13099">
        <ele>298</ele>
        <time>2012-03-20T16:20:43.000Z</time>
      </trkpt>
      <trkpt lat="45.51698" lon="6.13095">
        <ele>299</ele>
        <time>2012-03-20T16:20:47.000Z</time>
      </trkpt>
      <trkpt lat="45.51701" lon="6.13096">
        <ele>296.60000610352</ele>
        <time>2012-03-20T16:20:54.000Z</time>
      </trkpt>
      <trkpt lat="45.51703" lon="6.13097">
        <ele>296.20001220703</ele>
        <time>2012-03-20T16:20:57.000Z</time>
      </trkpt>
      <trkpt lat="45.51708" lon="6.13102">
        <ele>297.60000610352</ele>
        <time>2012-03-20T16:21:03.000Z</time>
      </trkpt>
      <trkpt lat="45.51714" lon="6.1311">
        <ele>296.20001220703</ele>
        <time>2012-03-20T16:21:08.000Z</time>
      </trkpt>
      <trkpt lat="45.51716" lon="6.13111">
        <ele>296.20001220703</ele>
        <time>2012-03-20T16:21:09.000Z</time>
      </trkpt>
      <trkpt lat="45.51719" lon="6.13115">
        <ele>295.20001220703</ele>
        <time>2012-03-20T16:21:18.000Z</time>
      </trkpt>
      <trkpt lat="45.51726" lon="6.13126">
        <ele>293.20001220703</ele>
        <time>2012-03-20T16:21:24.000Z</time>
      </trkpt>
      <trkpt lat="45.51733" lon="6.13135">
        <ele>293.20001220703</ele>
        <time>2012-03-20T16:21:29.000Z</time>
      </trkpt>
      <trkpt lat="45.51735" lon="6.13138">
        <ele>291.39999389648</ele>
        <time>2012-03-20T16:21:33.000Z</time>
      </trkpt>
      <trkpt lat="45.51739" lon="6.13142">
        <ele>289.79998779297</ele>
        <time>2012-03-20T16:21:38.000Z</time>
      </trkpt>
      <trkpt lat="45.51753" lon="6.13153">
        <ele>286</ele>
        <time>2012-03-20T16:21:44.000Z</time>
      </trkpt>
      <trkpt lat="45.51767" lon="6.1316">
        <ele>283.20001220703</ele>
        <time>2012-03-20T16:21:48.000Z</time>
      </trkpt>
      <trkpt lat="45.51788" lon="6.13169">
        <ele>280.20001220703</ele>
        <time>2012-03-20T16:21:54.000Z</time>
      </trkpt>
      <trkpt lat="45.51806" lon="6.13176">
        <ele>280.79998779297</ele>
        <time>2012-03-20T16:22:00.000Z</time>
      </trkpt>
      <trkpt lat="45.51821" lon="6.13182">
        <ele>280.79998779297</ele>
        <time>2012-03-20T16:22:07.000Z</time>
      </trkpt>
      <trkpt lat="45.51827" lon="6.13187">
        <ele>280.79998779297</ele>
        <time>2012-03-20T16:22:12.000Z</time>
      </trkpt>
      <trkpt lat="45.5183" lon="6.13191">
        <ele>280.79998779297</ele>
        <time>2012-03-20T16:22:18.000Z</time>
      </trkpt>
      <trkpt lat="45.51832" lon="6.13194">
        <ele>279.79998779297</ele>
        <time>2012-03-20T16:22:25.000Z</time>
      </trkpt>
      <trkpt lat="45.51836" lon="6.13198">
        <ele>279.79998779297</ele>
        <time>2012-03-20T16:22:30.000Z</time>
      </trkpt>
      <trkpt lat="45.51839" lon="6.13201">
        <ele>280.79998779297</ele>
        <time>2012-03-20T16:22:35.000Z</time>
      </trkpt>
      <trkpt lat="45.5184" lon="6.13202">
        <ele>282.20001220703</ele>
        <time>2012-03-20T16:22:42.000Z</time>
      </trkpt>
      <trkpt lat="45.51842" lon="6.13201">
        <ele>283.20001220703</ele>
        <time>2012-03-20T16:22:48.000Z</time>
      </trkpt>
      <trkpt lat="45.51843" lon="6.13202">
        <ele>284.60000610352</ele>
        <time>2012-03-20T16:22:57.000Z</time>
      </trkpt>
      <trkpt lat="45.51845" lon="6.13201">
        <ele>284.20001220703</ele>
        <time>2012-03-20T16:23:01.000Z</time>
      </trkpt>
      <trkpt lat="45.51847" lon="6.13201">
        <ele>285</ele>
        <time>2012-03-20T16:23:06.000Z</time>
      </trkpt>
      <trkpt lat="45.51849" lon="6.13203">
        <ele>285.60000610352</ele>
        <time>2012-03-20T16:23:12.000Z</time>
      </trkpt>
      <trkpt lat="45.5185" lon="6.13204">
        <ele>285</ele>
        <time>2012-03-20T16:23:15.000Z</time>
      </trkpt>
      <trkpt lat="45.51859" lon="6.13207">
        <ele>283.60000610352</ele>
        <time>2012-03-20T16:23:20.000Z</time>
      </trkpt>
      <trkpt lat="45.5186" lon="6.13208">
        <ele>283.20001220703</ele>
        <time>2012-03-20T16:23:22.000Z</time>
      </trkpt>
      <trkpt lat="45.51865" lon="6.13213">
        <ele>282.20001220703</ele>
        <time>2012-03-20T16:23:26.000Z</time>
      </trkpt>
      <trkpt lat="45.51879" lon="6.1323">
        <ele>280.79998779297</ele>
        <time>2012-03-20T16:23:33.000Z</time>
      </trkpt>
      <trkpt lat="45.51896" lon="6.13247">
        <ele>280.20001220703</ele>
        <time>2012-03-20T16:23:40.000Z</time>
      </trkpt>
      <trkpt lat="45.5191" lon="6.13269">
        <ele>278.79998779297</ele>
        <time>2012-03-20T16:23:48.000Z</time>
      </trkpt>
      <trkpt lat="45.51916" lon="6.13274">
        <ele>278.39999389648</ele>
        <time>2012-03-20T16:23:53.000Z</time>
      </trkpt>
      <trkpt lat="45.51926" lon="6.13276">
        <ele>278.79998779297</ele>
        <time>2012-03-20T16:24:01.000Z</time>
      </trkpt>
      <trkpt lat="45.51927" lon="6.13276">
        <ele>278.79998779297</ele>
        <time>2012-03-20T16:24:02.000Z</time>
      </trkpt>
      <trkpt lat="45.5193" lon="6.13277">
        <ele>282.20001220703</ele>
        <time>2012-03-20T16:24:11.000Z</time>
      </trkpt>
      <trkpt lat="45.51933" lon="6.13276">
        <ele>285.60000610352</ele>
        <time>2012-03-20T16:24:29.000Z</time>
      </trkpt>
      <trkpt lat="45.51949" lon="6.13275">
        <ele>285</ele>
        <time>2012-03-20T16:24:35.000Z</time>
      </trkpt>
      <trkpt lat="45.5197" lon="6.13272">
        <ele>285.60000610352</ele>
        <time>2012-03-20T16:24:40.000Z</time>
      </trkpt>
      <trkpt lat="45.51995" lon="6.13268">
        <ele>284.60000610352</ele>
        <time>2012-03-20T16:24:46.000Z</time>
      </trkpt>
      <trkpt lat="45.52019" lon="6.13261">
        <ele>284.20001220703</ele>
        <time>2012-03-20T16:24:52.000Z</time>
      </trkpt>
      <trkpt lat="45.52027" lon="6.13261">
        <ele>283.60000610352</ele>
        <time>2012-03-20T16:24:56.000Z</time>
      </trkpt>
      <trkpt lat="45.52027" lon="6.13261">
        <ele>282.20001220703</ele>
        <time>2012-03-20T16:25:13.000Z</time>
      </trkpt>
      <trkpt lat="45.52028" lon="6.13259">
        <ele>283.20001220703</ele>
        <time>2012-03-20T16:25:44.000Z</time>
      </trkpt>
      <trkpt lat="45.52037" lon="6.13257">
        <ele>282.60000610352</ele>
        <time>2012-03-20T16:25:49.000Z</time>
      </trkpt>
      <trkpt lat="45.52052" lon="6.13254">
        <ele>283.20001220703</ele>
        <time>2012-03-20T16:25:55.000Z</time>
      </trkpt>
      <trkpt lat="45.52074" lon="6.13249">
        <ele>282.60000610352</ele>
        <time>2012-03-20T16:26:04.000Z</time>
      </trkpt>
      <trkpt lat="45.52096" lon="6.13242">
        <ele>282.20001220703</ele>
        <time>2012-03-20T16:26:12.000Z</time>
      </trkpt>
      <trkpt lat="45.52118" lon="6.13236">
        <ele>282.60000610352</ele>
        <time>2012-03-20T16:26:20.000Z</time>
      </trkpt>
      <trkpt lat="45.52142" lon="6.13232">
        <ele>284.20001220703</ele>
        <time>2012-03-20T16:26:28.000Z</time>
      </trkpt>
      <trkpt lat="45.52162" lon="6.13229">
        <ele>285.60000610352</ele>
        <time>2012-03-20T16:26:36.000Z</time>
      </trkpt>
      <trkpt lat="45.52164" lon="6.13228">
        <ele>285.60000610352</ele>
        <time>2012-03-20T16:26:37.000Z</time>
      </trkpt>
      <trkpt lat="45.52168" lon="6.13223">
        <ele>286</ele>
        <time>2012-03-20T16:26:40.000Z</time>
      </trkpt>
      <trkpt lat="45.52165" lon="6.13212">
        <ele>285.60000610352</ele>
        <time>2012-03-20T16:26:44.000Z</time>
      </trkpt>
      <trkpt lat="45.52151" lon="6.13189">
        <ele>284.60000610352</ele>
        <time>2012-03-20T16:26:50.000Z</time>
      </trkpt>
      <trkpt lat="45.52134" lon="6.13167">
        <ele>283.60000610352</ele>
        <time>2012-03-20T16:26:55.000Z</time>
      </trkpt>
      <trkpt lat="45.52107" lon="6.13136">
        <ele>282.20001220703</ele>
        <time>2012-03-20T16:27:02.000Z</time>
      </trkpt>
      <trkpt lat="45.52106" lon="6.13118">
        <ele>282.20001220703</ele>
        <time>2012-03-20T16:27:06.000Z</time>
      </trkpt>
      <trkpt lat="45.52125" lon="6.13113">
        <ele>285.60000610352</ele>
        <time>2012-03-20T16:27:14.000Z</time>
      </trkpt>
      <trkpt lat="45.52146" lon="6.13104">
        <ele>288.39999389648</ele>
        <time>2012-03-20T16:27:22.000Z</time>
      </trkpt>
      <trkpt lat="45.52165" lon="6.13095">
        <ele>290.79998779297</ele>
        <time>2012-03-20T16:27:30.000Z</time>
      </trkpt>
      <trkpt lat="45.52179" lon="6.13086">
        <ele>293.20001220703</ele>
        <time>2012-03-20T16:27:38.000Z</time>
      </trkpt>
      <trkpt lat="45.52192" lon="6.13077">
        <ele>295.60000610352</ele>
        <time>2012-03-20T16:27:46.000Z</time>
      </trkpt>
      <trkpt lat="45.52203" lon="6.13064">
        <ele>298</ele>
        <time>2012-03-20T16:27:54.000Z</time>
      </trkpt>
      <trkpt lat="45.52217" lon="6.13046">
        <ele>301.39999389648</ele>
        <time>2012-03-20T16:28:03.000Z</time>
      </trkpt>
      <trkpt lat="45.5223" lon="6.13025">
        <ele>303.39999389648</ele>
        <time>2012-03-20T16:28:12.000Z</time>
      </trkpt>
      <trkpt lat="45.52243" lon="6.13005">
        <ele>306.20001220703</ele>
        <time>2012-03-20T16:28:21.000Z</time>
      </trkpt>
      <trkpt lat="45.52248" lon="6.13001">
        <ele>306.60000610352</ele>
        <time>2012-03-20T16:28:25.000Z</time>
      </trkpt>
      <trkpt lat="45.52249" lon="6.13">
        <ele>307.20001220703</ele>
        <time>2012-03-20T16:28:30.000Z</time>
      </trkpt>
      <trkpt lat="45.52256" lon="6.12992">
        <ele>308.60000610352</ele>
        <time>2012-03-20T16:28:36.000Z</time>
      </trkpt>
      <trkpt lat="45.52268" lon="6.12989">
        <ele>310.60000610352</ele>
        <time>2012-03-20T16:28:42.000Z</time>
      </trkpt>
      <trkpt lat="45.52283" lon="6.12986">
        <ele>312.39999389648</ele>
        <time>2012-03-20T16:28:50.000Z</time>
      </trkpt>
      <trkpt lat="45.52297" lon="6.12985">
        <ele>314</ele>
        <time>2012-03-20T16:28:57.000Z</time>
      </trkpt>
      <trkpt lat="45.5231" lon="6.12988">
        <ele>315.79998779297</ele>
        <time>2012-03-20T16:29:03.000Z</time>
      </trkpt>
      <trkpt lat="45.52327" lon="6.12993">
        <ele>316.79998779297</ele>
        <time>2012-03-20T16:29:09.000Z</time>
      </trkpt>
      <trkpt lat="45.52344" lon="6.12991">
        <ele>317.20001220703</ele>
        <time>2012-03-20T16:29:14.000Z</time>
      </trkpt>
      <trkpt lat="45.5237" lon="6.12984">
        <ele>317.79998779297</ele>
        <time>2012-03-20T16:29:19.000Z</time>
      </trkpt>
      <trkpt lat="45.52375" lon="6.12981">
        <ele>317.20001220703</ele>
        <time>2012-03-20T16:29:20.000Z</time>
      </trkpt>
      <trkpt lat="45.52391" lon="6.12971">
        <ele>318.20001220703</ele>
        <time>2012-03-20T16:29:23.000Z</time>
      </trkpt>
      <trkpt lat="45.52423" lon="6.12953">
        <ele>320.20001220703</ele>
        <time>2012-03-20T16:29:29.000Z</time>
      </trkpt>
      <trkpt lat="45.52441" lon="6.12944">
        <ele>323.60000610352</ele>
        <time>2012-03-20T16:29:32.000Z</time>
      </trkpt>
      <trkpt lat="45.52468" lon="6.12934">
        <ele>324.39999389648</ele>
        <time>2012-03-20T16:29:37.000Z</time>
      </trkpt>
      <trkpt lat="45.52482" lon="6.12932">
        <ele>326</ele>
        <time>2012-03-20T16:29:40.000Z</time>
      </trkpt>
      <trkpt lat="45.52491" lon="6.12931">
        <ele>326.39999389648</ele>
        <time>2012-03-20T16:29:42.000Z</time>
      </trkpt>
      <trkpt lat="45.52514" lon="6.12936">
        <ele>326.79998779297</ele>
        <time>2012-03-20T16:29:48.000Z</time>
      </trkpt>
      <trkpt lat="45.52532" lon="6.12942">
        <ele>326</ele>
        <time>2012-03-20T16:29:52.000Z</time>
      </trkpt>
      <trkpt lat="45.52567" lon="6.12944">
        <ele>324</ele>
        <time>2012-03-20T16:30:00.000Z</time>
      </trkpt>
      <trkpt lat="45.52573" lon="6.12945">
        <ele>323.60000610352</ele>
        <time>2012-03-20T16:30:01.000Z</time>
      </trkpt>
      <trkpt lat="45.526" lon="6.12963">
        <ele>323.60000610352</ele>
        <time>2012-03-20T16:30:06.000Z</time>
      </trkpt>
      <trkpt lat="45.52623" lon="6.12985">
        <ele>323.60000610352</ele>
        <time>2012-03-20T16:30:10.000Z</time>
      </trkpt>
      <trkpt lat="45.5264" lon="6.12999">
        <ele>324.39999389648</ele>
        <time>2012-03-20T16:30:13.000Z</time>
      </trkpt>
      <trkpt lat="45.52651" lon="6.13011">
        <ele>323.60000610352</ele>
        <time>2012-03-20T16:30:16.000Z</time>
      </trkpt>
      <trkpt lat="45.52659" lon="6.13017">
        <ele>323</ele>
        <time>2012-03-20T16:30:18.000Z</time>
      </trkpt>
      <trkpt lat="45.52673" lon="6.13022">
        <ele>322.60000610352</ele>
        <time>2012-03-20T16:30:22.000Z</time>
      </trkpt>
      <trkpt lat="45.52694" lon="6.1302">
        <ele>322</ele>
        <time>2012-03-20T16:30:29.000Z</time>
      </trkpt>
      <trkpt lat="45.52711" lon="6.13017">
        <ele>323.60000610352</ele>
        <time>2012-03-20T16:30:34.000Z</time>
      </trkpt>
      <trkpt lat="45.52727" lon="6.13019">
        <ele>324.39999389648</ele>
        <time>2012-03-20T16:30:39.000Z</time>
      </trkpt>
      <trkpt lat="45.52745" lon="6.13015">
        <ele>324.39999389648</ele>
        <time>2012-03-20T16:30:45.000Z</time>
      </trkpt>
      <trkpt lat="45.52764" lon="6.13001">
        <ele>325.39999389648</ele>
        <time>2012-03-20T16:30:52.000Z</time>
      </trkpt>
      <trkpt lat="45.52774" lon="6.1298">
        <ele>326</ele>
        <time>2012-03-20T16:30:57.000Z</time>
      </trkpt>
      <trkpt lat="45.52789" lon="6.12948">
        <ele>326.39999389648</ele>
        <time>2012-03-20T16:31:04.000Z</time>
      </trkpt>
      <trkpt lat="45.52805" lon="6.12927">
        <ele>326.39999389648</ele>
        <time>2012-03-20T16:31:10.000Z</time>
      </trkpt>
      <trkpt lat="45.52825" lon="6.1291">
        <ele>326.79998779297</ele>
        <time>2012-03-20T16:31:17.000Z</time>
      </trkpt>
      <trkpt lat="45.52831" lon="6.12918">
        <ele>327.79998779297</ele>
        <time>2012-03-20T16:31:21.000Z</time>
      </trkpt>
      <trkpt lat="45.5283" lon="6.12936">
        <ele>329.79998779297</ele>
        <time>2012-03-20T16:31:27.000Z</time>
      </trkpt>
      <trkpt lat="45.52832" lon="6.12945">
        <ele>331.20001220703</ele>
        <time>2012-03-20T16:31:30.000Z</time>
      </trkpt>
      <trkpt lat="45.52843" lon="6.12955">
        <ele>334</ele>
        <time>2012-03-20T16:31:37.000Z</time>
      </trkpt>
      <trkpt lat="45.52858" lon="6.12963">
        <ele>336.39999389648</ele>
        <time>2012-03-20T16:31:45.000Z</time>
      </trkpt>
      <trkpt lat="45.52867" lon="6.12968">
        <ele>339.39999389648</ele>
        <time>2012-03-20T16:31:51.000Z</time>
      </trkpt>
      <trkpt lat="45.52876" lon="6.12973">
        <ele>341.79998779297</ele>
        <time>2012-03-20T16:31:57.000Z</time>
      </trkpt>
      <trkpt lat="45.52877" lon="6.12974">
        <ele>341.39999389648</ele>
        <time>2012-03-20T16:32:02.000Z</time>
      </trkpt>
      <trkpt lat="45.52879" lon="6.12973">
        <ele>340.79998779297</ele>
        <time>2012-03-20T16:32:08.000Z</time>
      </trkpt>
      <trkpt lat="45.5288" lon="6.12972">
        <ele>343.20001220703</ele>
        <time>2012-03-20T16:32:14.000Z</time>
      </trkpt>
      <trkpt lat="45.52887" lon="6.12976">
        <ele>344.20001220703</ele>
        <time>2012-03-20T16:32:21.000Z</time>
      </trkpt>
      <trkpt lat="45.52892" lon="6.12981">
        <ele>344.20001220703</ele>
        <time>2012-03-20T16:32:26.000Z</time>
      </trkpt>
      <trkpt lat="45.52897" lon="6.12983">
        <ele>345.60000610352</ele>
        <time>2012-03-20T16:32:30.000Z</time>
      </trkpt>
      <trkpt lat="45.52913" lon="6.12989">
        <ele>351.39999389648</ele>
        <time>2012-03-20T16:32:40.000Z</time>
      </trkpt>
      <trkpt lat="45.5292" lon="6.12991">
        <ele>350</ele>
        <time>2012-03-20T16:32:46.000Z</time>
      </trkpt>
      <trkpt lat="45.52925" lon="6.12992">
        <ele>349.39999389648</ele>
        <time>2012-03-20T16:32:51.000Z</time>
      </trkpt>
      <trkpt lat="45.5293" lon="6.12994">
        <ele>349.39999389648</ele>
        <time>2012-03-20T16:32:55.000Z</time>
      </trkpt>
      <trkpt lat="45.52941" lon="6.13003">
        <ele>351.79998779297</ele>
        <time>2012-03-20T16:33:03.000Z</time>
      </trkpt>
      <trkpt lat="45.52942" lon="6.13005">
        <ele>351.79998779297</ele>
        <time>2012-03-20T16:33:04.000Z</time>
      </trkpt>
      <trkpt lat="45.52947" lon="6.13008">
        <ele>351.39999389648</ele>
        <time>2012-03-20T16:33:10.000Z</time>
      </trkpt>
      <trkpt lat="45.52947" lon="6.13009">
        <ele>351.39999389648</ele>
        <time>2012-03-20T16:33:18.000Z</time>
      </trkpt>
      <trkpt lat="45.52954" lon="6.13012">
        <ele>353.39999389648</ele>
        <time>2012-03-20T16:33:26.000Z</time>
      </trkpt>
      <trkpt lat="45.52963" lon="6.13016">
        <ele>354.20001220703</ele>
        <time>2012-03-20T16:33:36.000Z</time>
      </trkpt>
      <trkpt lat="45.52966" lon="6.13017">
        <ele>353.79998779297</ele>
        <time>2012-03-20T16:33:43.000Z</time>
      </trkpt>
      <trkpt lat="45.52969" lon="6.13019">
        <ele>354.20001220703</ele>
        <time>2012-03-20T16:33:50.000Z</time>
      </trkpt>
      <trkpt lat="45.52977" lon="6.13023">
        <ele>355.20001220703</ele>
        <time>2012-03-20T16:33:57.000Z</time>
      </trkpt>
      <trkpt lat="45.5298" lon="6.13028">
        <ele>358.20001220703</ele>
        <time>2012-03-20T16:34:01.000Z</time>
      </trkpt>
      <trkpt lat="45.52981" lon="6.13031">
        <ele>359.60000610352</ele>
        <time>2012-03-20T16:34:03.000Z</time>
      </trkpt>
      <trkpt lat="45.5298" lon="6.13034">
        <ele>361.39999389648</ele>
        <time>2012-03-20T16:34:06.000Z</time>
      </trkpt>
      <trkpt lat="45.52982" lon="6.1304">
        <ele>362.39999389648</ele>
        <time>2012-03-20T16:34:10.000Z</time>
      </trkpt>
      <trkpt lat="45.52985" lon="6.13052">
        <ele>363.39999389648</ele>
        <time>2012-03-20T16:34:17.000Z</time>
      </trkpt>
      <trkpt lat="45.52986" lon="6.13056">
        <ele>363.39999389648</ele>
        <time>2012-03-20T16:34:20.000Z</time>
      </trkpt>
      <trkpt lat="45.52989" lon="6.13062">
        <ele>364.39999389648</ele>
        <time>2012-03-20T16:34:25.000Z</time>
      </trkpt>
      <trkpt lat="45.52992" lon="6.13069">
        <ele>366.20001220703</ele>
        <time>2012-03-20T16:34:30.000Z</time>
      </trkpt>
      <trkpt lat="45.52994" lon="6.13073">
        <ele>366.20001220703</ele>
        <time>2012-03-20T16:34:33.000Z</time>
      </trkpt>
      <trkpt lat="45.52996" lon="6.13078">
        <ele>365.39999389648</ele>
        <time>2012-03-20T16:34:37.000Z</time>
      </trkpt>
      <trkpt lat="45.53" lon="6.13086">
        <ele>365.79998779297</ele>
        <time>2012-03-20T16:34:43.000Z</time>
      </trkpt>
      <trkpt lat="45.53004" lon="6.13097">
        <ele>366.79998779297</ele>
        <time>2012-03-20T16:34:51.000Z</time>
      </trkpt>
      <trkpt lat="45.53008" lon="6.13108">
        <ele>368.20001220703</ele>
        <time>2012-03-20T16:34:58.000Z</time>
      </trkpt>
      <trkpt lat="45.53008" lon="6.13111">
        <ele>369.20001220703</ele>
        <time>2012-03-20T16:35:00.000Z</time>
      </trkpt>
      <trkpt lat="45.53014" lon="6.13122">
        <ele>371.20001220703</ele>
        <time>2012-03-20T16:35:08.000Z</time>
      </trkpt>
      <trkpt lat="45.53016" lon="6.13126">
        <ele>371.20001220703</ele>
        <time>2012-03-20T16:35:11.000Z</time>
      </trkpt>
      <trkpt lat="45.53027" lon="6.13128">
        <ele>374</ele>
        <time>2012-03-20T16:35:21.000Z</time>
      </trkpt>
      <trkpt lat="45.53031" lon="6.13128">
        <ele>375.39999389648</ele>
        <time>2012-03-20T16:35:24.000Z</time>
      </trkpt>
      <trkpt lat="45.53037" lon="6.13133">
        <ele>376.39999389648</ele>
        <time>2012-03-20T16:35:30.000Z</time>
      </trkpt>
      <trkpt lat="45.53046" lon="6.13129">
        <ele>377.39999389648</ele>
        <time>2012-03-20T16:35:36.000Z</time>
      </trkpt>
      <trkpt lat="45.53058" lon="6.13125">
        <ele>378.79998779297</ele>
        <time>2012-03-20T16:35:44.000Z</time>
      </trkpt>
      <trkpt lat="45.5307" lon="6.13124">
        <ele>379.79998779297</ele>
        <time>2012-03-20T16:35:51.000Z</time>
      </trkpt>
      <trkpt lat="45.53088" lon="6.13128">
        <ele>380.20001220703</ele>
        <time>2012-03-20T16:35:59.000Z</time>
      </trkpt>
      <trkpt lat="45.53102" lon="6.13141">
        <ele>381.20001220703</ele>
        <time>2012-03-20T16:36:06.000Z</time>
      </trkpt>
      <trkpt lat="45.53112" lon="6.1316">
        <ele>382.20001220703</ele>
        <time>2012-03-20T16:36:13.000Z</time>
      </trkpt>
      <trkpt lat="45.53119" lon="6.13181">
        <ele>383.60000610352</ele>
        <time>2012-03-20T16:36:20.000Z</time>
      </trkpt>
      <trkpt lat="45.53125" lon="6.13202">
        <ele>385</ele>
        <time>2012-03-20T16:36:27.000Z</time>
      </trkpt>
      <trkpt lat="45.53131" lon="6.13221">
        <ele>386</ele>
        <time>2012-03-20T16:36:34.000Z</time>
      </trkpt>
      <trkpt lat="45.53139" lon="6.1325">
        <ele>387</ele>
        <time>2012-03-20T16:36:42.000Z</time>
      </trkpt>
      <trkpt lat="45.53151" lon="6.13279">
        <ele>388.79998779297</ele>
        <time>2012-03-20T16:36:51.000Z</time>
      </trkpt>
      <trkpt lat="45.53163" lon="6.13302">
        <ele>389.39999389648</ele>
        <time>2012-03-20T16:36:58.000Z</time>
      </trkpt>
      <trkpt lat="45.53173" lon="6.13324">
        <ele>389.39999389648</ele>
        <time>2012-03-20T16:37:04.000Z</time>
      </trkpt>
      <trkpt lat="45.5319" lon="6.13366">
        <ele>390.39999389648</ele>
        <time>2012-03-20T16:37:14.000Z</time>
      </trkpt>
      <trkpt lat="45.5321" lon="6.13411">
        <ele>391.20001220703</ele>
        <time>2012-03-20T16:37:25.000Z</time>
      </trkpt>
      <trkpt lat="45.53224" lon="6.13443">
        <ele>392.20001220703</ele>
        <time>2012-03-20T16:37:33.000Z</time>
      </trkpt>
      <trkpt lat="45.53242" lon="6.13481">
        <ele>393.60000610352</ele>
        <time>2012-03-20T16:37:42.000Z</time>
      </trkpt>
      <trkpt lat="45.53257" lon="6.1352">
        <ele>394.20001220703</ele>
        <time>2012-03-20T16:37:50.000Z</time>
      </trkpt>
      <trkpt lat="45.53266" lon="6.13553">
        <ele>394.20001220703</ele>
        <time>2012-03-20T16:37:56.000Z</time>
      </trkpt>
      <trkpt lat="45.53272" lon="6.13599">
        <ele>393.20001220703</ele>
        <time>2012-03-20T16:38:03.000Z</time>
      </trkpt>
      <trkpt lat="45.53278" lon="6.13635">
        <ele>391.79998779297</ele>
        <time>2012-03-20T16:38:09.000Z</time>
      </trkpt>
      <trkpt lat="45.53292" lon="6.13682">
        <ele>390.79998779297</ele>
        <time>2012-03-20T16:38:16.000Z</time>
      </trkpt>
      <trkpt lat="45.53309" lon="6.1373">
        <ele>389.79998779297</ele>
        <time>2012-03-20T16:38:23.000Z</time>
      </trkpt>
      <trkpt lat="45.53322" lon="6.13763">
        <ele>388.79998779297</ele>
        <time>2012-03-20T16:38:28.000Z</time>
      </trkpt>
      <trkpt lat="45.53347" lon="6.13825">
        <ele>386.39999389648</ele>
        <time>2012-03-20T16:38:37.000Z</time>
      </trkpt>
      <trkpt lat="45.53372" lon="6.13872">
        <ele>384</ele>
        <time>2012-03-20T16:38:44.000Z</time>
      </trkpt>
      <trkpt lat="45.53395" lon="6.139">
        <ele>381.60000610352</ele>
        <time>2012-03-20T16:38:49.000Z</time>
      </trkpt>
      <trkpt lat="45.53428" lon="6.13937">
        <ele>381.60000610352</ele>
        <time>2012-03-20T16:38:56.000Z</time>
      </trkpt>
      <trkpt lat="45.53467" lon="6.13981">
        <ele>382.60000610352</ele>
        <time>2012-03-20T16:39:04.000Z</time>
      </trkpt>
      <trkpt lat="45.53507" lon="6.14022">
        <ele>382.60000610352</ele>
        <time>2012-03-20T16:39:12.000Z</time>
      </trkpt>
      <trkpt lat="45.53533" lon="6.14045">
        <ele>383.20001220703</ele>
        <time>2012-03-20T16:39:18.000Z</time>
      </trkpt>
      <trkpt lat="45.53564" lon="6.1408">
        <ele>384</ele>
        <time>2012-03-20T16:39:26.000Z</time>
      </trkpt>
      <trkpt lat="45.53594" lon="6.1411">
        <ele>385.60000610352</ele>
        <time>2012-03-20T16:39:34.000Z</time>
      </trkpt>
      <trkpt lat="45.53616" lon="6.14133">
        <ele>386</ele>
        <time>2012-03-20T16:39:40.000Z</time>
      </trkpt>
      <trkpt lat="45.53645" lon="6.14161">
        <ele>387</ele>
        <time>2012-03-20T16:39:48.000Z</time>
      </trkpt>
      <trkpt lat="45.53652" lon="6.14161">
        <ele>387.39999389648</ele>
        <time>2012-03-20T16:39:53.000Z</time>
      </trkpt>
      <trkpt lat="45.53653" lon="6.1416">
        <ele>387</ele>
        <time>2012-03-20T16:39:54.000Z</time>
      </trkpt>
      <trkpt lat="45.53664" lon="6.14155">
        <ele>385.60000610352</ele>
        <time>2012-03-20T16:39:59.000Z</time>
      </trkpt>
      <trkpt lat="45.53675" lon="6.14143">
        <ele>379.20001220703</ele>
        <time>2012-03-20T16:40:03.000Z</time>
      </trkpt>
      <trkpt lat="45.53679" lon="6.14119">
        <ele>370.20001220703</ele>
        <time>2012-03-20T16:40:07.000Z</time>
      </trkpt>
      <trkpt lat="45.53684" lon="6.14084">
        <ele>360</ele>
        <time>2012-03-20T16:40:10.000Z</time>
      </trkpt>
      <trkpt lat="45.53687" lon="6.14051">
        <ele>351.39999389648</ele>
        <time>2012-03-20T16:40:13.000Z</time>
      </trkpt>
      <trkpt lat="45.53686" lon="6.1403">
        <ele>347.60000610352</ele>
        <time>2012-03-20T16:40:17.000Z</time>
      </trkpt>
      <trkpt lat="45.53685" lon="6.14028">
        <ele>351.39999389648</ele>
        <time>2012-03-20T16:40:19.000Z</time>
      </trkpt>
      <trkpt lat="45.53686" lon="6.1403">
        <ele>351</ele>
        <time>2012-03-20T16:40:29.000Z</time>
      </trkpt>
      <trkpt lat="45.53684" lon="6.14031">
        <ele>346.60000610352</ele>
        <time>2012-03-20T16:40:41.000Z</time>
      </trkpt>
      <trkpt lat="45.53686" lon="6.1404">
        <ele>351.79998779297</ele>
        <time>2012-03-20T16:40:48.000Z</time>
      </trkpt>
      <trkpt lat="45.53688" lon="6.14043">
        <ele>354.20001220703</ele>
        <time>2012-03-20T16:40:56.000Z</time>
      </trkpt>
      <trkpt lat="45.53691" lon="6.14044">
        <ele>356.20001220703</ele>
        <time>2012-03-20T16:41:02.000Z</time>
      </trkpt>
      <trkpt lat="45.53689" lon="6.14046">
        <ele>358.60000610352</ele>
        <time>2012-03-20T16:41:11.000Z</time>
      </trkpt>
      <trkpt lat="45.53702" lon="6.14041">
        <ele>356.60000610352</ele>
        <time>2012-03-20T16:41:17.000Z</time>
      </trkpt>
      <trkpt lat="45.53704" lon="6.1404">
        <ele>355.79998779297</ele>
        <time>2012-03-20T16:41:19.000Z</time>
      </trkpt>
      <trkpt lat="45.5371" lon="6.14037">
        <ele>359.60000610352</ele>
        <time>2012-03-20T16:41:34.000Z</time>
      </trkpt>
      <trkpt lat="45.53714" lon="6.14036">
        <ele>360</ele>
        <time>2012-03-20T16:41:43.000Z</time>
      </trkpt>
      <trkpt lat="45.53711" lon="6.14036">
        <ele>362</ele>
        <time>2012-03-20T16:41:51.000Z</time>
      </trkpt>
      <trkpt lat="45.53706" lon="6.14038">
        <ele>362.39999389648</ele>
        <time>2012-03-20T16:42:02.000Z</time>
      </trkpt>
      <trkpt lat="45.53702" lon="6.14038">
        <ele>363</ele>
        <time>2012-03-20T16:42:08.000Z</time>
      </trkpt>
      <trkpt lat="45.53698" lon="6.14042">
        <ele>367.79998779297</ele>
        <time>2012-03-20T16:42:19.000Z</time>
      </trkpt>
      <trkpt lat="45.53699" lon="6.14041">
        <ele>369.60000610352</ele>
        <time>2012-03-20T16:42:24.000Z</time>
      </trkpt>
      <trkpt lat="45.53698" lon="6.14039">
        <ele>369.60000610352</ele>
        <time>2012-03-20T16:42:33.000Z</time>
      </trkpt>
      <trkpt lat="45.53692" lon="6.14038">
        <ele>367.79998779297</ele>
        <time>2012-03-20T16:42:39.000Z</time>
      </trkpt>
      <trkpt lat="45.53689" lon="6.14034">
        <ele>364.39999389648</ele>
        <time>2012-03-20T16:42:43.000Z</time>
      </trkpt>
      <trkpt lat="45.53689" lon="6.14022">
        <ele>356.20001220703</ele>
        <time>2012-03-20T16:42:48.000Z</time>
      </trkpt>
      <trkpt lat="45.53681" lon="6.13998">
        <ele>345.60000610352</ele>
        <time>2012-03-20T16:42:52.000Z</time>
      </trkpt>
      <trkpt lat="45.53675" lon="6.13967">
        <ele>333.60000610352</ele>
        <time>2012-03-20T16:42:56.000Z</time>
      </trkpt>
      <trkpt lat="45.53683" lon="6.13925">
        <ele>319.60000610352</ele>
        <time>2012-03-20T16:43:02.000Z</time>
      </trkpt>
      <trkpt lat="45.53695" lon="6.13915">
        <ele>314.39999389648</ele>
        <time>2012-03-20T16:43:05.000Z</time>
      </trkpt>
      <trkpt lat="45.537" lon="6.13911">
        <ele>314</ele>
        <time>2012-03-20T16:43:06.000Z</time>
      </trkpt>
      <trkpt lat="45.53739" lon="6.13884">
        <ele>305.20001220703</ele>
        <time>2012-03-20T16:43:13.000Z</time>
      </trkpt>
      <trkpt lat="45.53752" lon="6.13875">
        <ele>301</ele>
        <time>2012-03-20T16:43:16.000Z</time>
      </trkpt>
      <trkpt lat="45.53759" lon="6.13869">
        <ele>299</ele>
        <time>2012-03-20T16:43:18.000Z</time>
      </trkpt>
      <trkpt lat="45.53777" lon="6.13847">
        <ele>291.39999389648</ele>
        <time>2012-03-20T16:43:23.000Z</time>
      </trkpt>
      <trkpt lat="45.5378" lon="6.13842">
        <ele>290.39999389648</ele>
        <time>2012-03-20T16:43:24.000Z</time>
      </trkpt>
      <trkpt lat="45.53802" lon="6.13806">
        <ele>281.79998779297</ele>
        <time>2012-03-20T16:43:30.000Z</time>
      </trkpt>
      <trkpt lat="45.53814" lon="6.13798">
        <ele>279.39999389648</ele>
        <time>2012-03-20T16:43:32.000Z</time>
      </trkpt>
      <trkpt lat="45.53827" lon="6.1379">
        <ele>273.60000610352</ele>
        <time>2012-03-20T16:43:35.000Z</time>
      </trkpt>
      <trkpt lat="45.53849" lon="6.13791">
        <ele>273</ele>
        <time>2012-03-20T16:43:39.000Z</time>
      </trkpt>
      <trkpt lat="45.53856" lon="6.13796">
        <ele>275</ele>
        <time>2012-03-20T16:43:41.000Z</time>
      </trkpt>
      <trkpt lat="45.53863" lon="6.13801">
        <ele>276.79998779297</ele>
        <time>2012-03-20T16:43:43.000Z</time>
      </trkpt>
      <trkpt lat="45.53874" lon="6.13815">
        <ele>276.79998779297</ele>
        <time>2012-03-20T16:43:47.000Z</time>
      </trkpt>
      <trkpt lat="45.53889" lon="6.13837">
        <ele>281.20001220703</ele>
        <time>2012-03-20T16:43:54.000Z</time>
      </trkpt>
      <trkpt lat="45.53902" lon="6.13855">
        <ele>284.20001220703</ele>
        <time>2012-03-20T16:43:59.000Z</time>
      </trkpt>
      <trkpt lat="45.53915" lon="6.13875">
        <ele>286</ele>
        <time>2012-03-20T16:44:04.000Z</time>
      </trkpt>
      <trkpt lat="45.53926" lon="6.13899">
        <ele>285</ele>
        <time>2012-03-20T16:44:10.000Z</time>
      </trkpt>
      <trkpt lat="45.53931" lon="6.13915">
        <ele>286.60000610352</ele>
        <time>2012-03-20T16:44:15.000Z</time>
      </trkpt>
      <trkpt lat="45.53937" lon="6.1394">
        <ele>290.39999389648</ele>
        <time>2012-03-20T16:44:21.000Z</time>
      </trkpt>
      <trkpt lat="45.53944" lon="6.13968">
        <ele>292.79998779297</ele>
        <time>2012-03-20T16:44:27.000Z</time>
      </trkpt>
      <trkpt lat="45.53951" lon="6.13998">
        <ele>289.79998779297</ele>
        <time>2012-03-20T16:44:33.000Z</time>
      </trkpt>
      <trkpt lat="45.53958" lon="6.14027">
        <ele>289</ele>
        <time>2012-03-20T16:44:39.000Z</time>
      </trkpt>
      <trkpt lat="45.53972" lon="6.14063">
        <ele>291.79998779297</ele>
        <time>2012-03-20T16:44:45.000Z</time>
      </trkpt>
      <trkpt lat="45.53987" lon="6.14094">
        <ele>291.79998779297</ele>
        <time>2012-03-20T16:44:50.000Z</time>
      </trkpt>
      <trkpt lat="45.5401" lon="6.14146">
        <ele>293.20001220703</ele>
        <time>2012-03-20T16:44:57.000Z</time>
      </trkpt>
      <trkpt lat="45.5403" lon="6.14182">
        <ele>291.79998779297</ele>
        <time>2012-03-20T16:45:02.000Z</time>
      </trkpt>
      <trkpt lat="45.54057" lon="6.14236">
        <ele>287.39999389648</ele>
        <time>2012-03-20T16:45:09.000Z</time>
      </trkpt>
      <trkpt lat="45.54065" lon="6.14252">
        <ele>285.60000610352</ele>
        <time>2012-03-20T16:45:11.000Z</time>
      </trkpt>
      <trkpt lat="45.54096" lon="6.14306">
        <ele>288</ele>
        <time>2012-03-20T16:45:18.000Z</time>
      </trkpt>
      <trkpt lat="45.54107" lon="6.14331">
        <ele>289</ele>
        <time>2012-03-20T16:45:21.000Z</time>
      </trkpt>
      <trkpt lat="45.54115" lon="6.14344">
        <ele>289.79998779297</ele>
        <time>2012-03-20T16:45:23.000Z</time>
      </trkpt>
      <trkpt lat="45.5413" lon="6.14371">
        <ele>292.20001220703</ele>
        <time>2012-03-20T16:45:27.000Z</time>
      </trkpt>
      <trkpt lat="45.54151" lon="6.14418">
        <ele>290.39999389648</ele>
        <time>2012-03-20T16:45:33.000Z</time>
      </trkpt>
      <trkpt lat="45.5416" lon="6.1444">
        <ele>288</ele>
        <time>2012-03-20T16:45:36.000Z</time>
      </trkpt>
      <trkpt lat="45.54172" lon="6.14476">
        <ele>288.39999389648</ele>
        <time>2012-03-20T16:45:41.000Z</time>
      </trkpt>
      <trkpt lat="45.54182" lon="6.14488">
        <ele>288</ele>
        <time>2012-03-20T16:45:45.000Z</time>
      </trkpt>
      <trkpt lat="45.54185" lon="6.14487">
        <ele>288.39999389648</ele>
        <time>2012-03-20T16:45:46.000Z</time>
      </trkpt>
      <trkpt lat="45.54192" lon="6.14483">
        <ele>289.39999389648</ele>
        <time>2012-03-20T16:45:48.000Z</time>
      </trkpt>
      <trkpt lat="45.54219" lon="6.14467">
        <ele>289</ele>
        <time>2012-03-20T16:45:56.000Z</time>
      </trkpt>
      <trkpt lat="45.54231" lon="6.14461">
        <ele>288.39999389648</ele>
        <time>2012-03-20T16:45:59.000Z</time>
      </trkpt>
      <trkpt lat="45.54243" lon="6.14468">
        <ele>287.39999389648</ele>
        <time>2012-03-20T16:46:03.000Z</time>
      </trkpt>
      <trkpt lat="45.54245" lon="6.14471">
        <ele>287.39999389648</ele>
        <time>2012-03-20T16:46:04.000Z</time>
      </trkpt>
      <trkpt lat="45.54259" lon="6.14505">
        <ele>288</ele>
        <time>2012-03-20T16:46:11.000Z</time>
      </trkpt>
      <trkpt lat="45.54281" lon="6.14552">
        <ele>287.39999389648</ele>
        <time>2012-03-20T16:46:19.000Z</time>
      </trkpt>
      <trkpt lat="45.54302" lon="6.14599">
        <ele>287</ele>
        <time>2012-03-20T16:46:26.000Z</time>
      </trkpt>
      <trkpt lat="45.54324" lon="6.14647">
        <ele>287</ele>
        <time>2012-03-20T16:46:33.000Z</time>
      </trkpt>
      <trkpt lat="45.54352" lon="6.14709">
        <ele>286.60000610352</ele>
        <time>2012-03-20T16:46:42.000Z</time>
      </trkpt>
      <trkpt lat="45.54378" lon="6.14771">
        <ele>285</ele>
        <time>2012-03-20T16:46:51.000Z</time>
      </trkpt>
      <trkpt lat="45.54405" lon="6.14832">
        <ele>284.60000610352</ele>
        <time>2012-03-20T16:47:00.000Z</time>
      </trkpt>
      <trkpt lat="45.54429" lon="6.14886">
        <ele>284.20001220703</ele>
        <time>2012-03-20T16:47:08.000Z</time>
      </trkpt>
      <trkpt lat="45.54449" lon="6.14932">
        <ele>284.20001220703</ele>
        <time>2012-03-20T16:47:15.000Z</time>
      </trkpt>
      <trkpt lat="45.54474" lon="6.14988">
        <ele>284.20001220703</ele>
        <time>2012-03-20T16:47:24.000Z</time>
      </trkpt>
      <trkpt lat="45.54499" lon="6.15043">
        <ele>284.60000610352</ele>
        <time>2012-03-20T16:47:33.000Z</time>
      </trkpt>
      <trkpt lat="45.5452" lon="6.15089">
        <ele>284.60000610352</ele>
        <time>2012-03-20T16:47:41.000Z</time>
      </trkpt>
      <trkpt lat="45.54535" lon="6.15122">
        <ele>284.60000610352</ele>
        <time>2012-03-20T16:47:47.000Z</time>
      </trkpt>
      <trkpt lat="45.54549" lon="6.15152">
        <ele>284.60000610352</ele>
        <time>2012-03-20T16:47:53.000Z</time>
      </trkpt>
      <trkpt lat="45.54561" lon="6.15177">
        <ele>284.20001220703</ele>
        <time>2012-03-20T16:47:59.000Z</time>
      </trkpt>
      <trkpt lat="45.54571" lon="6.15174">
        <ele>284.20001220703</ele>
        <time>2012-03-20T16:48:03.000Z</time>
      </trkpt>
      <trkpt lat="45.54581" lon="6.15166">
        <ele>283.60000610352</ele>
        <time>2012-03-20T16:48:07.000Z</time>
      </trkpt>
      <trkpt lat="45.54584" lon="6.15164">
        <ele>284.20001220703</ele>
        <time>2012-03-20T16:48:08.000Z</time>
      </trkpt>
      <trkpt lat="45.54593" lon="6.15153">
        <ele>284.20001220703</ele>
        <time>2012-03-20T16:48:14.000Z</time>
      </trkpt>
      <trkpt lat="45.54603" lon="6.15143">
        <ele>281.79998779297</ele>
        <time>2012-03-20T16:48:19.000Z</time>
      </trkpt>
      <trkpt lat="45.54619" lon="6.15131">
        <ele>281.79998779297</ele>
        <time>2012-03-20T16:48:25.000Z</time>
      </trkpt>
      <trkpt lat="45.54636" lon="6.15119">
        <ele>280.79998779297</ele>
        <time>2012-03-20T16:48:30.000Z</time>
      </trkpt>
      <trkpt lat="45.54638" lon="6.15116">
        <ele>280.20001220703</ele>
        <time>2012-03-20T16:48:31.000Z</time>
      </trkpt>
      <trkpt lat="45.54648" lon="6.15113">
        <ele>281.20001220703</ele>
        <time>2012-03-20T16:48:36.000Z</time>
      </trkpt>
      <trkpt lat="45.54658" lon="6.15124">
        <ele>281.20001220703</ele>
        <time>2012-03-20T16:48:41.000Z</time>
      </trkpt>
      <trkpt lat="45.54659" lon="6.15127">
        <ele>280.79998779297</ele>
        <time>2012-03-20T16:48:42.000Z</time>
      </trkpt>
      <trkpt lat="45.54661" lon="6.1513">
        <ele>281.20001220703</ele>
        <time>2012-03-20T16:48:44.000Z</time>
      </trkpt>
      <trkpt lat="45.54661" lon="6.15135">
        <ele>280.20001220703</ele>
        <time>2012-03-20T16:48:50.000Z</time>
      </trkpt>
      <trkpt lat="45.5466" lon="6.15128">
        <ele>279.79998779297</ele>
        <time>2012-03-20T16:48:55.000Z</time>
      </trkpt>
      <trkpt lat="45.5466" lon="6.15108">
        <ele>278.39999389648</ele>
        <time>2012-03-20T16:49:02.000Z</time>
      </trkpt>
      <trkpt lat="45.5466" lon="6.15106">
        <ele>278.39999389648</ele>
        <time>2012-03-20T16:49:03.000Z</time>
      </trkpt>
      <trkpt lat="45.54677" lon="6.15087">
        <ele>276.39999389648</ele>
        <time>2012-03-20T16:49:09.000Z</time>
      </trkpt>
      <trkpt lat="45.54696" lon="6.15086">
        <ele>280.79998779297</ele>
        <time>2012-03-20T16:49:13.000Z</time>
      </trkpt>
      <trkpt lat="45.54712" lon="6.1508">
        <ele>284.20001220703</ele>
        <time>2012-03-20T16:49:19.000Z</time>
      </trkpt>
      <trkpt lat="45.54715" lon="6.15078">
        <ele>284.60000610352</ele>
        <time>2012-03-20T16:49:20.000Z</time>
      </trkpt>
      <trkpt lat="45.54731" lon="6.15073">
        <ele>286</ele>
        <time>2012-03-20T16:49:26.000Z</time>
      </trkpt>
      <trkpt lat="45.54735" lon="6.15074">
        <ele>286.60000610352</ele>
        <time>2012-03-20T16:49:28.000Z</time>
      </trkpt>
      <trkpt lat="45.5475" lon="6.15091">
        <ele>287.39999389648</ele>
        <time>2012-03-20T16:49:34.000Z</time>
      </trkpt>
      <trkpt lat="45.54764" lon="6.15124">
        <ele>289.79998779297</ele>
        <time>2012-03-20T16:49:40.000Z</time>
      </trkpt>
      <trkpt lat="45.54783" lon="6.15172">
        <ele>288.39999389648</ele>
        <time>2012-03-20T16:49:48.000Z</time>
      </trkpt>
      <trkpt lat="45.54805" lon="6.15227">
        <ele>288.39999389648</ele>
        <time>2012-03-20T16:49:57.000Z</time>
      </trkpt>
      <trkpt lat="45.54814" lon="6.15252">
        <ele>288.39999389648</ele>
        <time>2012-03-20T16:50:01.000Z</time>
      </trkpt>
      <trkpt lat="45.54823" lon="6.15277">
        <ele>288.39999389648</ele>
        <time>2012-03-20T16:50:05.000Z</time>
      </trkpt>
      <trkpt lat="45.54832" lon="6.15303">
        <ele>287.39999389648</ele>
        <time>2012-03-20T16:50:09.000Z</time>
      </trkpt>
      <trkpt lat="45.54846" lon="6.15344">
        <ele>287</ele>
        <time>2012-03-20T16:50:15.000Z</time>
      </trkpt>
      <trkpt lat="45.54865" lon="6.15399">
        <ele>286</ele>
        <time>2012-03-20T16:50:23.000Z</time>
      </trkpt>
      <trkpt lat="45.54887" lon="6.15465">
        <ele>286.60000610352</ele>
        <time>2012-03-20T16:50:32.000Z</time>
      </trkpt>
      <trkpt lat="45.54905" lon="6.15525">
        <ele>287</ele>
        <time>2012-03-20T16:50:40.000Z</time>
      </trkpt>
      <trkpt lat="45.54925" lon="6.15593">
        <ele>287</ele>
        <time>2012-03-20T16:50:49.000Z</time>
      </trkpt>
      <trkpt lat="45.54949" lon="6.15676">
        <ele>287</ele>
        <time>2012-03-20T16:51:00.000Z</time>
      </trkpt>
      <trkpt lat="45.54962" lon="6.15722">
        <ele>287.39999389648</ele>
        <time>2012-03-20T16:51:06.000Z</time>
      </trkpt>
      <trkpt lat="45.5498" lon="6.15783">
        <ele>288</ele>
        <time>2012-03-20T16:51:14.000Z</time>
      </trkpt>
      <trkpt lat="45.54993" lon="6.15829">
        <ele>288.39999389648</ele>
        <time>2012-03-20T16:51:20.000Z</time>
      </trkpt>
      <trkpt lat="45.54995" lon="6.15837">
        <ele>288.39999389648</ele>
        <time>2012-03-20T16:51:21.000Z</time>
      </trkpt>
      <trkpt lat="45.5501" lon="6.15888">
        <ele>288.39999389648</ele>
        <time>2012-03-20T16:51:28.000Z</time>
      </trkpt>
      <trkpt lat="45.55018" lon="6.15916">
        <ele>289</ele>
        <time>2012-03-20T16:51:33.000Z</time>
      </trkpt>
      <trkpt lat="45.55029" lon="6.15954">
        <ele>289.39999389648</ele>
        <time>2012-03-20T16:51:39.000Z</time>
      </trkpt>
      <trkpt lat="45.55039" lon="6.1599">
        <ele>289.79998779297</ele>
        <time>2012-03-20T16:51:45.000Z</time>
      </trkpt>
      <trkpt lat="45.55046" lon="6.16015">
        <ele>289.79998779297</ele>
        <time>2012-03-20T16:51:49.000Z</time>
      </trkpt>
      <trkpt lat="45.55054" lon="6.16047">
        <ele>289.39999389648</ele>
        <time>2012-03-20T16:51:54.000Z</time>
      </trkpt>
      <trkpt lat="45.55057" lon="6.16072">
        <ele>289.79998779297</ele>
        <time>2012-03-20T16:51:59.000Z</time>
      </trkpt>
      <trkpt lat="45.55061" lon="6.16094">
        <ele>290.39999389648</ele>
        <time>2012-03-20T16:52:04.000Z</time>
      </trkpt>
      <trkpt lat="45.55069" lon="6.16105">
        <ele>290.79998779297</ele>
        <time>2012-03-20T16:52:09.000Z</time>
      </trkpt>
      <trkpt lat="45.55078" lon="6.16104">
        <ele>291.39999389648</ele>
        <time>2012-03-20T16:52:12.000Z</time>
      </trkpt>
      <trkpt lat="45.5512" lon="6.16081">
        <ele>290.39999389648</ele>
        <time>2012-03-20T16:52:21.000Z</time>
      </trkpt>
      <trkpt lat="45.55156" lon="6.1606">
        <ele>289.39999389648</ele>
        <time>2012-03-20T16:52:29.000Z</time>
      </trkpt>
      <trkpt lat="45.55181" lon="6.16048">
        <ele>289</ele>
        <time>2012-03-20T16:52:35.000Z</time>
      </trkpt>
      <trkpt lat="45.55189" lon="6.16044">
        <ele>288.39999389648</ele>
        <time>2012-03-20T16:52:42.000Z</time>
      </trkpt>
      <trkpt lat="45.55189" lon="6.16043">
        <ele>288.39999389648</ele>
        <time>2012-03-20T16:52:47.000Z</time>
      </trkpt>
      <trkpt lat="45.55194" lon="6.1604">
        <ele>288.39999389648</ele>
        <time>2012-03-20T16:53:04.000Z</time>
      </trkpt>
      <trkpt lat="45.55209" lon="6.16035">
        <ele>288.39999389648</ele>
        <time>2012-03-20T16:53:08.000Z</time>
      </trkpt>
      <trkpt lat="45.55237" lon="6.16019">
        <ele>288</ele>
        <time>2012-03-20T16:53:13.000Z</time>
      </trkpt>
      <trkpt lat="45.55265" lon="6.15999">
        <ele>287.39999389648</ele>
        <time>2012-03-20T16:53:18.000Z</time>
      </trkpt>
      <trkpt lat="45.55271" lon="6.15994">
        <ele>287.39999389648</ele>
        <time>2012-03-20T16:53:19.000Z</time>
      </trkpt>
      <trkpt lat="45.55289" lon="6.15969">
        <ele>286</ele>
        <time>2012-03-20T16:53:23.000Z</time>
      </trkpt>
      <trkpt lat="45.5531" lon="6.15954">
        <ele>285.60000610352</ele>
        <time>2012-03-20T16:53:27.000Z</time>
      </trkpt>
      <trkpt lat="45.5532" lon="6.15948">
        <ele>285.60000610352</ele>
        <time>2012-03-20T16:53:29.000Z</time>
      </trkpt>
      <trkpt lat="45.55342" lon="6.15928">
        <ele>284.20001220703</ele>
        <time>2012-03-20T16:53:34.000Z</time>
      </trkpt>
      <trkpt lat="45.55351" lon="6.15922">
        <ele>284.20001220703</ele>
        <time>2012-03-20T16:53:36.000Z</time>
      </trkpt>
      <trkpt lat="45.55371" lon="6.15901">
        <ele>284.20001220703</ele>
        <time>2012-03-20T16:53:41.000Z</time>
      </trkpt>
      <trkpt lat="45.55404" lon="6.15879">
        <ele>283.60000610352</ele>
        <time>2012-03-20T16:53:48.000Z</time>
      </trkpt>
      <trkpt lat="45.55416" lon="6.15873">
        <ele>283.60000610352</ele>
        <time>2012-03-20T16:53:51.000Z</time>
      </trkpt>
      <trkpt lat="45.55438" lon="6.1586">
        <ele>283.60000610352</ele>
        <time>2012-03-20T16:53:57.000Z</time>
      </trkpt>
      <trkpt lat="45.55462" lon="6.15848">
        <ele>284.20001220703</ele>
        <time>2012-03-20T16:54:03.000Z</time>
      </trkpt>
      <trkpt lat="45.55483" lon="6.15836">
        <ele>283.60000610352</ele>
        <time>2012-03-20T16:54:08.000Z</time>
      </trkpt>
      <trkpt lat="45.5551" lon="6.1582">
        <ele>283.20001220703</ele>
        <time>2012-03-20T16:54:14.000Z</time>
      </trkpt>
      <trkpt lat="45.55536" lon="6.15807">
        <ele>281.79998779297</ele>
        <time>2012-03-20T16:54:20.000Z</time>
      </trkpt>
      <trkpt lat="45.55562" lon="6.15792">
        <ele>283.60000610352</ele>
        <time>2012-03-20T16:54:26.000Z</time>
      </trkpt>
      <trkpt lat="45.55585" lon="6.15775">
        <ele>287</ele>
        <time>2012-03-20T16:54:33.000Z</time>
      </trkpt>
      <trkpt lat="45.55588" lon="6.15772">
        <ele>287.39999389648</ele>
        <time>2012-03-20T16:54:34.000Z</time>
      </trkpt>
      <trkpt lat="45.55593" lon="6.15759">
        <ele>288</ele>
        <time>2012-03-20T16:54:39.000Z</time>
      </trkpt>
      <trkpt lat="45.55592" lon="6.1574">
        <ele>288.39999389648</ele>
        <time>2012-03-20T16:54:45.000Z</time>
      </trkpt>
      <trkpt lat="45.55591" lon="6.15719">
        <ele>288.39999389648</ele>
        <time>2012-03-20T16:54:51.000Z</time>
      </trkpt>
      <trkpt lat="45.55589" lon="6.15693">
        <ele>288.39999389648</ele>
        <time>2012-03-20T16:54:57.000Z</time>
      </trkpt>
      <trkpt lat="45.55587" lon="6.15665">
        <ele>289</ele>
        <time>2012-03-20T16:55:03.000Z</time>
      </trkpt>
      <trkpt lat="45.55585" lon="6.15628">
        <ele>290.39999389648</ele>
        <time>2012-03-20T16:55:10.000Z</time>
      </trkpt>
      <trkpt lat="45.55584" lon="6.15592">
        <ele>290.79998779297</ele>
        <time>2012-03-20T16:55:16.000Z</time>
      </trkpt>
      <trkpt lat="45.55583" lon="6.15556">
        <ele>290.79998779297</ele>
        <time>2012-03-20T16:55:22.000Z</time>
      </trkpt>
      <trkpt lat="45.55582" lon="6.15545">
        <ele>290.79998779297</ele>
        <time>2012-03-20T16:55:24.000Z</time>
      </trkpt>
      <trkpt lat="45.55579" lon="6.15515">
        <ele>289.79998779297</ele>
        <time>2012-03-20T16:55:29.000Z</time>
      </trkpt>
      <trkpt lat="45.55572" lon="6.15466">
        <ele>289</ele>
        <time>2012-03-20T16:55:36.000Z</time>
      </trkpt>
      <trkpt lat="45.55562" lon="6.15429">
        <ele>287.39999389648</ele>
        <time>2012-03-20T16:55:41.000Z</time>
      </trkpt>
      <trkpt lat="45.55552" lon="6.15355">
        <ele>285</ele>
        <time>2012-03-20T16:55:50.000Z</time>
      </trkpt>
      <trkpt lat="45.55551" lon="6.15333">
        <ele>285.60000610352</ele>
        <time>2012-03-20T16:55:53.000Z</time>
      </trkpt>
      <trkpt lat="45.55559" lon="6.15313">
        <ele>285.60000610352</ele>
        <time>2012-03-20T16:55:57.000Z</time>
      </trkpt>
      <trkpt lat="45.55566" lon="6.15306">
        <ele>286</ele>
        <time>2012-03-20T16:55:59.000Z</time>
      </trkpt>
      <trkpt lat="45.55576" lon="6.15286">
        <ele>287</ele>
        <time>2012-03-20T16:56:04.000Z</time>
      </trkpt>
      <trkpt lat="45.55575" lon="6.15273">
        <ele>286.60000610352</ele>
        <time>2012-03-20T16:56:07.000Z</time>
      </trkpt>
      <trkpt lat="45.55579" lon="6.15249">
        <ele>286</ele>
        <time>2012-03-20T16:56:13.000Z</time>
      </trkpt>
      <trkpt lat="45.55592" lon="6.15242">
        <ele>286</ele>
        <time>2012-03-20T16:56:17.000Z</time>
      </trkpt>
      <trkpt lat="45.55604" lon="6.15239">
        <ele>287.39999389648</ele>
        <time>2012-03-20T16:56:22.000Z</time>
      </trkpt>
      <trkpt lat="45.55613" lon="6.1524">
        <ele>289</ele>
        <time>2012-03-20T16:56:29.000Z</time>
      </trkpt>
      <trkpt lat="45.55618" lon="6.15237">
        <ele>290.39999389648</ele>
        <time>2012-03-20T16:56:34.000Z</time>
      </trkpt>
      <trkpt lat="45.55623" lon="6.15237">
        <ele>291.79998779297</ele>
        <time>2012-03-20T16:56:37.000Z</time>
      </trkpt>
      <trkpt lat="45.55633" lon="6.15233">
        <ele>295.20001220703</ele>
        <time>2012-03-20T16:56:46.000Z</time>
      </trkpt>
      <trkpt lat="45.55642" lon="6.15229">
        <ele>290.39999389648</ele>
        <time>2012-03-20T16:56:53.000Z</time>
      </trkpt>
      <trkpt lat="45.55647" lon="6.15222">
        <ele>289</ele>
        <time>2012-03-20T16:56:58.000Z</time>
      </trkpt>
      <trkpt lat="45.55648" lon="6.15221">
        <ele>289</ele>
        <time>2012-03-20T16:56:59.000Z</time>
      </trkpt>
      <trkpt lat="45.55657" lon="6.15214">
        <ele>291.79998779297</ele>
        <time>2012-03-20T16:57:07.000Z</time>
      </trkpt>
      <trkpt lat="45.55668" lon="6.15213">
        <ele>294.60000610352</ele>
        <time>2012-03-20T16:57:15.000Z</time>
      </trkpt>
      <trkpt lat="45.55679" lon="6.15214">
        <ele>295.60000610352</ele>
        <time>2012-03-20T16:57:22.000Z</time>
      </trkpt>
      <trkpt lat="45.55691" lon="6.15214">
        <ele>298.60000610352</ele>
        <time>2012-03-20T16:57:30.000Z</time>
      </trkpt>
      <trkpt lat="45.55708" lon="6.15216">
        <ele>301</ele>
        <time>2012-03-20T16:57:39.000Z</time>
      </trkpt>
      <trkpt lat="45.55729" lon="6.15221">
        <ele>302.79998779297</ele>
        <time>2012-03-20T16:57:47.000Z</time>
      </trkpt>
      <trkpt lat="45.55737" lon="6.15223">
        <ele>303.79998779297</ele>
        <time>2012-03-20T16:57:51.000Z</time>
      </trkpt>
      <trkpt lat="45.55759" lon="6.15226">
        <ele>305.20001220703</ele>
        <time>2012-03-20T16:57:59.000Z</time>
      </trkpt>
      <trkpt lat="45.55787" lon="6.1523">
        <ele>308.60000610352</ele>
        <time>2012-03-20T16:58:08.000Z</time>
      </trkpt>
      <trkpt lat="45.55809" lon="6.15231">
        <ele>310</ele>
        <time>2012-03-20T16:58:16.000Z</time>
      </trkpt>
      <trkpt lat="45.55825" lon="6.15226">
        <ele>310</ele>
        <time>2012-03-20T16:58:22.000Z</time>
      </trkpt>
      <trkpt lat="45.55841" lon="6.15224">
        <ele>311.60000610352</ele>
        <time>2012-03-20T16:58:28.000Z</time>
      </trkpt>
      <trkpt lat="45.5586" lon="6.15221">
        <ele>312</ele>
        <time>2012-03-20T16:58:36.000Z</time>
      </trkpt>
      <trkpt lat="45.55875" lon="6.15214">
        <ele>313</ele>
        <time>2012-03-20T16:58:42.000Z</time>
      </trkpt>
      <trkpt lat="45.559" lon="6.15202">
        <ele>313.39999389648</ele>
        <time>2012-03-20T16:58:51.000Z</time>
      </trkpt>
      <trkpt lat="45.55924" lon="6.15191">
        <ele>314</ele>
        <time>2012-03-20T16:58:59.000Z</time>
      </trkpt>
      <trkpt lat="45.55953" lon="6.15176">
        <ele>315.79998779297</ele>
        <time>2012-03-20T16:59:09.000Z</time>
      </trkpt>
      <trkpt lat="45.55972" lon="6.15167">
        <ele>317.20001220703</ele>
        <time>2012-03-20T16:59:15.000Z</time>
      </trkpt>
      <trkpt lat="45.55997" lon="6.15154">
        <ele>318.20001220703</ele>
        <time>2012-03-20T16:59:23.000Z</time>
      </trkpt>
      <trkpt lat="45.56019" lon="6.15145">
        <ele>319.20001220703</ele>
        <time>2012-03-20T16:59:30.000Z</time>
      </trkpt>
      <trkpt lat="45.56042" lon="6.15139">
        <ele>320.60000610352</ele>
        <time>2012-03-20T16:59:38.000Z</time>
      </trkpt>
      <trkpt lat="45.56069" lon="6.15132">
        <ele>322</ele>
        <time>2012-03-20T16:59:47.000Z</time>
      </trkpt>
      <trkpt lat="45.5609" lon="6.15127">
        <ele>323.60000610352</ele>
        <time>2012-03-20T16:59:54.000Z</time>
      </trkpt>
      <trkpt lat="45.56117" lon="6.1512">
        <ele>325.39999389648</ele>
        <time>2012-03-20T17:00:03.000Z</time>
      </trkpt>
      <trkpt lat="45.56131" lon="6.15119">
        <ele>326.79998779297</ele>
        <time>2012-03-20T17:00:08.000Z</time>
      </trkpt>
      <trkpt lat="45.56145" lon="6.1511">
        <ele>327.79998779297</ele>
        <time>2012-03-20T17:00:13.000Z</time>
      </trkpt>
      <trkpt lat="45.56165" lon="6.15103">
        <ele>330.20001220703</ele>
        <time>2012-03-20T17:00:21.000Z</time>
      </trkpt>
      <trkpt lat="45.56187" lon="6.15096">
        <ele>332.20001220703</ele>
        <time>2012-03-20T17:00:30.000Z</time>
      </trkpt>
      <trkpt lat="45.56206" lon="6.15092">
        <ele>334.60000610352</ele>
        <time>2012-03-20T17:00:38.000Z</time>
      </trkpt>
      <trkpt lat="45.56224" lon="6.15089">
        <ele>336.39999389648</ele>
        <time>2012-03-20T17:00:46.000Z</time>
      </trkpt>
      <trkpt lat="45.56244" lon="6.15082">
        <ele>338.39999389648</ele>
        <time>2012-03-20T17:00:55.000Z</time>
      </trkpt>
      <trkpt lat="45.56256" lon="6.1507">
        <ele>338.39999389648</ele>
        <time>2012-03-20T17:01:01.000Z</time>
      </trkpt>
      <trkpt lat="45.56272" lon="6.15051">
        <ele>338</ele>
        <time>2012-03-20T17:01:08.000Z</time>
      </trkpt>
      <trkpt lat="45.56291" lon="6.1503">
        <ele>338.39999389648</ele>
        <time>2012-03-20T17:01:15.000Z</time>
      </trkpt>
      <trkpt lat="45.56318" lon="6.15005">
        <ele>339.79998779297</ele>
        <time>2012-03-20T17:01:25.000Z</time>
      </trkpt>
      <trkpt lat="45.56334" lon="6.14998">
        <ele>341.79998779297</ele>
        <time>2012-03-20T17:01:32.000Z</time>
      </trkpt>
      <trkpt lat="45.56353" lon="6.15002">
        <ele>344.20001220703</ele>
        <time>2012-03-20T17:01:39.000Z</time>
      </trkpt>
      <trkpt lat="45.5638" lon="6.15007">
        <ele>347</ele>
        <time>2012-03-20T17:01:48.000Z</time>
      </trkpt>
      <trkpt lat="45.56397" lon="6.15006">
        <ele>348.60000610352</ele>
        <time>2012-03-20T17:01:54.000Z</time>
      </trkpt>
      <trkpt lat="45.56419" lon="6.15005">
        <ele>351.39999389648</ele>
        <time>2012-03-20T17:02:03.000Z</time>
      </trkpt>
      <trkpt lat="45.56428" lon="6.15008">
        <ele>352.79998779297</ele>
        <time>2012-03-20T17:02:09.000Z</time>
      </trkpt>
      <trkpt lat="45.56437" lon="6.15018">
        <ele>353.39999389648</ele>
        <time>2012-03-20T17:02:14.000Z</time>
      </trkpt>
      <trkpt lat="45.56447" lon="6.15027">
        <ele>353.39999389648</ele>
        <time>2012-03-20T17:02:19.000Z</time>
      </trkpt>
      <trkpt lat="45.56462" lon="6.1505">
        <ele>354.79998779297</ele>
        <time>2012-03-20T17:02:29.000Z</time>
      </trkpt>
      <trkpt lat="45.56472" lon="6.1507">
        <ele>355.79998779297</ele>
        <time>2012-03-20T17:02:37.000Z</time>
      </trkpt>
      <trkpt lat="45.56479" lon="6.15087">
        <ele>357.60000610352</ele>
        <time>2012-03-20T17:02:43.000Z</time>
      </trkpt>
      <trkpt lat="45.56489" lon="6.15109">
        <ele>359.60000610352</ele>
        <time>2012-03-20T17:02:50.000Z</time>
      </trkpt>
      <trkpt lat="45.56492" lon="6.15113">
        <ele>359.60000610352</ele>
        <time>2012-03-20T17:02:51.000Z</time>
      </trkpt>
      <trkpt lat="45.56502" lon="6.15136">
        <ele>360.60000610352</ele>
        <time>2012-03-20T17:02:58.000Z</time>
      </trkpt>
      <trkpt lat="45.56518" lon="6.15165">
        <ele>362.39999389648</ele>
        <time>2012-03-20T17:03:08.000Z</time>
      </trkpt>
      <trkpt lat="45.56527" lon="6.15184">
        <ele>363.79998779297</ele>
        <time>2012-03-20T17:03:15.000Z</time>
      </trkpt>
      <trkpt lat="45.56537" lon="6.15201">
        <ele>366.20001220703</ele>
        <time>2012-03-20T17:03:23.000Z</time>
      </trkpt>
      <trkpt lat="45.56543" lon="6.15211">
        <ele>367.79998779297</ele>
        <time>2012-03-20T17:03:29.000Z</time>
      </trkpt>
      <trkpt lat="45.56554" lon="6.15218">
        <ele>368.79998779297</ele>
        <time>2012-03-20T17:03:36.000Z</time>
      </trkpt>
      <trkpt lat="45.56566" lon="6.15225">
        <ele>369.20001220703</ele>
        <time>2012-03-20T17:03:44.000Z</time>
      </trkpt>
      <trkpt lat="45.56577" lon="6.15231">
        <ele>371.20001220703</ele>
        <time>2012-03-20T17:03:51.000Z</time>
      </trkpt>
      <trkpt lat="45.56587" lon="6.15237">
        <ele>372</ele>
        <time>2012-03-20T17:03:57.000Z</time>
      </trkpt>
      <trkpt lat="45.56599" lon="6.15244">
        <ele>373.60000610352</ele>
        <time>2012-03-20T17:04:05.000Z</time>
      </trkpt>
      <trkpt lat="45.56608" lon="6.15256">
        <ele>375</ele>
        <time>2012-03-20T17:04:12.000Z</time>
      </trkpt>
      <trkpt lat="45.56615" lon="6.15262">
        <ele>375.39999389648</ele>
        <time>2012-03-20T17:04:17.000Z</time>
      </trkpt>
      <trkpt lat="45.56627" lon="6.15268">
        <ele>376.39999389648</ele>
        <time>2012-03-20T17:04:24.000Z</time>
      </trkpt>
      <trkpt lat="45.56641" lon="6.15278">
        <ele>377.39999389648</ele>
        <time>2012-03-20T17:04:32.000Z</time>
      </trkpt>
      <trkpt lat="45.56655" lon="6.15285">
        <ele>377.39999389648</ele>
        <time>2012-03-20T17:04:40.000Z</time>
      </trkpt>
      <trkpt lat="45.5666" lon="6.15288">
        <ele>376.39999389648</ele>
        <time>2012-03-20T17:04:43.000Z</time>
      </trkpt>
      <trkpt lat="45.56669" lon="6.15294">
        <ele>376</ele>
        <time>2012-03-20T17:04:49.000Z</time>
      </trkpt>
      <trkpt lat="45.56671" lon="6.15296">
        <ele>376</ele>
        <time>2012-03-20T17:04:51.000Z</time>
      </trkpt>
      <trkpt lat="45.56685" lon="6.15302">
        <ele>378.79998779297</ele>
        <time>2012-03-20T17:04:59.000Z</time>
      </trkpt>
      <trkpt lat="45.567" lon="6.15307">
        <ele>382.20001220703</ele>
        <time>2012-03-20T17:05:06.000Z</time>
      </trkpt>
      <trkpt lat="45.56716" lon="6.15314">
        <ele>384</ele>
        <time>2012-03-20T17:05:14.000Z</time>
      </trkpt>
      <trkpt lat="45.56732" lon="6.15322">
        <ele>386</ele>
        <time>2012-03-20T17:05:22.000Z</time>
      </trkpt>
      <trkpt lat="45.56746" lon="6.15329">
        <ele>387.39999389648</ele>
        <time>2012-03-20T17:05:29.000Z</time>
      </trkpt>
      <trkpt lat="45.56758" lon="6.15333">
        <ele>388.39999389648</ele>
        <time>2012-03-20T17:05:35.000Z</time>
      </trkpt>
      <trkpt lat="45.56776" lon="6.15341">
        <ele>389.39999389648</ele>
        <time>2012-03-20T17:05:44.000Z</time>
      </trkpt>
      <trkpt lat="45.56791" lon="6.15348">
        <ele>391.20001220703</ele>
        <time>2012-03-20T17:05:52.000Z</time>
      </trkpt>
      <trkpt lat="45.56807" lon="6.15351">
        <ele>393.20001220703</ele>
        <time>2012-03-20T17:06:00.000Z</time>
      </trkpt>
      <trkpt lat="45.56816" lon="6.15352">
        <ele>397.60000610352</ele>
        <time>2012-03-20T17:06:06.000Z</time>
      </trkpt>
      <trkpt lat="45.56817" lon="6.15352">
        <ele>398.60000610352</ele>
        <time>2012-03-20T17:06:07.000Z</time>
      </trkpt>
      <trkpt lat="45.56827" lon="6.15349">
        <ele>402.39999389648</ele>
        <time>2012-03-20T17:06:12.000Z</time>
      </trkpt>
      <trkpt lat="45.5684" lon="6.15349">
        <ele>406.20001220703</ele>
        <time>2012-03-20T17:06:18.000Z</time>
      </trkpt>
      <trkpt lat="45.56848" lon="6.15348">
        <ele>409</ele>
        <time>2012-03-20T17:06:22.000Z</time>
      </trkpt>
      <trkpt lat="45.56864" lon="6.15352">
        <ele>408.60000610352</ele>
        <time>2012-03-20T17:06:29.000Z</time>
      </trkpt>
      <trkpt lat="45.56881" lon="6.15361">
        <ele>408.20001220703</ele>
        <time>2012-03-20T17:06:36.000Z</time>
      </trkpt>
      <trkpt lat="45.56894" lon="6.15375">
        <ele>411</ele>
        <time>2012-03-20T17:06:43.000Z</time>
      </trkpt>
      <trkpt lat="45.56904" lon="6.15391">
        <ele>414.79998779297</ele>
        <time>2012-03-20T17:06:51.000Z</time>
      </trkpt>
      <trkpt lat="45.56909" lon="6.15403">
        <ele>421.60000610352</ele>
        <time>2012-03-20T17:06:56.000Z</time>
      </trkpt>
      <trkpt lat="45.56918" lon="6.15398">
        <ele>416.20001220703</ele>
        <time>2012-03-20T17:07:04.000Z</time>
      </trkpt>
      <trkpt lat="45.56925" lon="6.15388">
        <ele>414.39999389648</ele>
        <time>2012-03-20T17:07:09.000Z</time>
      </trkpt>
      <trkpt lat="45.56937" lon="6.15364">
        <ele>412.39999389648</ele>
        <time>2012-03-20T17:07:16.000Z</time>
      </trkpt>
      <trkpt lat="45.56945" lon="6.15364">
        <ele>413</ele>
        <time>2012-03-20T17:07:20.000Z</time>
      </trkpt>
      <trkpt lat="45.56952" lon="6.15367">
        <ele>414.79998779297</ele>
        <time>2012-03-20T17:07:27.000Z</time>
      </trkpt>
      <trkpt lat="45.56962" lon="6.15374">
        <ele>417.20001220703</ele>
        <time>2012-03-20T17:07:36.000Z</time>
      </trkpt>
      <trkpt lat="45.56963" lon="6.15373">
        <ele>418.20001220703</ele>
        <time>2012-03-20T17:07:42.000Z</time>
      </trkpt>
      <trkpt lat="45.56964" lon="6.15376">
        <ele>417.79998779297</ele>
        <time>2012-03-20T17:07:44.000Z</time>
      </trkpt>
      <trkpt lat="45.56966" lon="6.15393">
        <ele>416.20001220703</ele>
        <time>2012-03-20T17:07:48.000Z</time>
      </trkpt>
      <trkpt lat="45.56972" lon="6.15379">
        <ele>412</ele>
        <time>2012-03-20T17:07:54.000Z</time>
      </trkpt>
      <trkpt lat="45.56973" lon="6.15378">
        <ele>411</ele>
        <time>2012-03-20T17:07:57.000Z</time>
      </trkpt>
      <trkpt lat="45.56974" lon="6.15379">
        <ele>411</ele>
        <time>2012-03-20T17:08:06.000Z</time>
      </trkpt>
      <trkpt lat="45.56977" lon="6.15383">
        <ele>411.39999389648</ele>
        <time>2012-03-20T17:08:12.000Z</time>
      </trkpt>
      <trkpt lat="45.56979" lon="6.15383">
        <ele>413.39999389648</ele>
        <time>2012-03-20T17:08:37.000Z</time>
      </trkpt>
      <trkpt lat="45.5698" lon="6.15383">
        <ele>418.60000610352</ele>
        <time>2012-03-20T17:08:48.000Z</time>
      </trkpt>
      <trkpt lat="45.56975" lon="6.15403">
        <ele>416.20001220703</ele>
        <time>2012-03-20T17:08:55.000Z</time>
      </trkpt>
      <trkpt lat="45.56968" lon="6.15418">
        <ele>418.20001220703</ele>
        <time>2012-03-20T17:09:00.000Z</time>
      </trkpt>
      <trkpt lat="45.5697" lon="6.15425">
        <ele>415.39999389648</ele>
        <time>2012-03-20T17:09:06.000Z</time>
      </trkpt>
      <trkpt lat="45.56972" lon="6.15426">
        <ele>413.39999389648</ele>
        <time>2012-03-20T17:09:12.000Z</time>
      </trkpt>
      <trkpt lat="45.56972" lon="6.15421">
        <ele>419.20001220703</ele>
        <time>2012-03-20T17:09:22.000Z</time>
      </trkpt>
      <trkpt lat="45.56973" lon="6.15423">
        <ele>420.60000610352</ele>
        <time>2012-03-20T17:09:29.000Z</time>
      </trkpt>
    </trkseg>
  </trk>
</gpx>